<?xml version="1.0" encoding="UTF-8" standalone="no" ?>
<gpx xmlns="http://www.topografix.com/GPX/1/1" xmlns:xsi="http://www.w3.org/2001/XMLSchema-instance" xsi:schemaLocation="http://www.topografix.com/GPX/1/1 http://www.topografix.com/GPX/1/1/gpx.xsd" version="1.1" creator="VisuGPX - https://www.visugpx.com">
  <metadata>
    <name>CAMINO PRIMITIVO &quot;FONSAGRADE - O CADAVO-BALEIRA&quot;</name>
    <desc><![CDATA[Traversée de foret d'eucalyptus puis de pins avec des paysages typiques de la Galice.]]></desc>
  </metadata>
  <trk>
    <name><![CDATA[2016-07-12-01]]></name>
    <trkseg>
      <trkpt lat="43.13051" lon="-7.06646">
        <ele>956.1</ele>
        <time>2016-07-12T05:10:32Z</time>
      </trkpt>
      <trkpt lat="43.13049" lon="-7.06646">
        <ele>957.1</ele>
        <time>2016-07-12T05:10:33Z</time>
      </trkpt>
      <trkpt lat="43.1304" lon="-7.06646">
        <ele>963.4</ele>
        <time>2016-07-12T05:10:41Z</time>
      </trkpt>
      <trkpt lat="43.13031" lon="-7.06647">
        <ele>967.7</ele>
        <time>2016-07-12T05:10:50Z</time>
      </trkpt>
      <trkpt lat="43.13022" lon="-7.06648">
        <ele>970.3</ele>
        <time>2016-07-12T05:11:00Z</time>
      </trkpt>
      <trkpt lat="43.13012" lon="-7.06651">
        <ele>971.7</ele>
        <time>2016-07-12T05:11:10Z</time>
      </trkpt>
      <trkpt lat="43.13003" lon="-7.0665">
        <ele>972.6</ele>
        <time>2016-07-12T05:11:19Z</time>
      </trkpt>
      <trkpt lat="43.12994" lon="-7.06653">
        <ele>973.4</ele>
        <time>2016-07-12T05:11:28Z</time>
      </trkpt>
      <trkpt lat="43.12984" lon="-7.06654">
        <ele>973.7</ele>
        <time>2016-07-12T05:11:35Z</time>
      </trkpt>
      <trkpt lat="43.12975" lon="-7.06656">
        <ele>973.9</ele>
        <time>2016-07-12T05:11:43Z</time>
      </trkpt>
      <trkpt lat="43.12966" lon="-7.06657">
        <ele>974</ele>
        <time>2016-07-12T05:11:51Z</time>
      </trkpt>
      <trkpt lat="43.12957" lon="-7.0666">
        <ele>974</ele>
        <time>2016-07-12T05:11:59Z</time>
      </trkpt>
      <trkpt lat="43.12948" lon="-7.06662">
        <ele>974.2</ele>
        <time>2016-07-12T05:12:08Z</time>
      </trkpt>
      <trkpt lat="43.12939" lon="-7.06663">
        <ele>974.5</ele>
        <time>2016-07-12T05:12:16Z</time>
      </trkpt>
      <trkpt lat="43.1293" lon="-7.06665">
        <ele>974.6</ele>
        <time>2016-07-12T05:12:23Z</time>
      </trkpt>
      <trkpt lat="43.12921" lon="-7.06671">
        <ele>974.7</ele>
        <time>2016-07-12T05:12:31Z</time>
      </trkpt>
      <trkpt lat="43.12913" lon="-7.06677">
        <ele>974.6</ele>
        <time>2016-07-12T05:12:39Z</time>
      </trkpt>
      <trkpt lat="43.12905" lon="-7.06685">
        <ele>974.5</ele>
        <time>2016-07-12T05:12:48Z</time>
      </trkpt>
      <trkpt lat="43.12897" lon="-7.06693">
        <ele>974.4</ele>
        <time>2016-07-12T05:12:56Z</time>
      </trkpt>
      <trkpt lat="43.12889" lon="-7.06699">
        <ele>974.3</ele>
        <time>2016-07-12T05:13:04Z</time>
      </trkpt>
      <trkpt lat="43.1288" lon="-7.067">
        <ele>974.2</ele>
        <time>2016-07-12T05:13:11Z</time>
      </trkpt>
      <trkpt lat="43.12871" lon="-7.06701">
        <ele>974</ele>
        <time>2016-07-12T05:13:18Z</time>
      </trkpt>
      <trkpt lat="43.12861" lon="-7.067">
        <ele>973.6</ele>
        <time>2016-07-12T05:13:25Z</time>
      </trkpt>
      <trkpt lat="43.12852" lon="-7.06697">
        <ele>973.3</ele>
        <time>2016-07-12T05:13:32Z</time>
      </trkpt>
      <trkpt lat="43.12843" lon="-7.06695">
        <ele>973.2</ele>
        <time>2016-07-12T05:13:39Z</time>
      </trkpt>
      <trkpt lat="43.12833" lon="-7.06693">
        <ele>972.7</ele>
        <time>2016-07-12T05:13:46Z</time>
      </trkpt>
      <trkpt lat="43.12824" lon="-7.06692">
        <ele>972.4</ele>
        <time>2016-07-12T05:13:52Z</time>
      </trkpt>
      <trkpt lat="43.12815" lon="-7.06691">
        <ele>972.2</ele>
        <time>2016-07-12T05:13:58Z</time>
      </trkpt>
      <trkpt lat="43.12805" lon="-7.06694">
        <ele>972</ele>
        <time>2016-07-12T05:14:06Z</time>
      </trkpt>
      <trkpt lat="43.12796" lon="-7.06692">
        <ele>972</ele>
        <time>2016-07-12T05:14:13Z</time>
      </trkpt>
      <trkpt lat="43.12787" lon="-7.06692">
        <ele>972.3</ele>
        <time>2016-07-12T05:14:20Z</time>
      </trkpt>
      <trkpt lat="43.12778" lon="-7.06692">
        <ele>972.4</ele>
        <time>2016-07-12T05:14:27Z</time>
      </trkpt>
      <trkpt lat="43.12769" lon="-7.06693">
        <ele>972.1</ele>
        <time>2016-07-12T05:14:33Z</time>
      </trkpt>
      <trkpt lat="43.1276" lon="-7.06691">
        <ele>971.7</ele>
        <time>2016-07-12T05:14:42Z</time>
      </trkpt>
      <trkpt lat="43.1275" lon="-7.0669">
        <ele>971</ele>
        <time>2016-07-12T05:14:51Z</time>
      </trkpt>
      <trkpt lat="43.1274" lon="-7.06688">
        <ele>971.4</ele>
        <time>2016-07-12T05:15:01Z</time>
      </trkpt>
      <trkpt lat="43.12731" lon="-7.06685">
        <ele>971.2</ele>
        <time>2016-07-12T05:15:09Z</time>
      </trkpt>
      <trkpt lat="43.12721" lon="-7.06685">
        <ele>970.9</ele>
        <time>2016-07-12T05:15:21Z</time>
      </trkpt>
      <trkpt lat="43.12715" lon="-7.06695">
        <ele>970.7</ele>
        <time>2016-07-12T05:15:28Z</time>
      </trkpt>
      <trkpt lat="43.12708" lon="-7.06703">
        <ele>970.4</ele>
        <time>2016-07-12T05:15:36Z</time>
      </trkpt>
      <trkpt lat="43.12702" lon="-7.06712">
        <ele>970.3</ele>
        <time>2016-07-12T05:15:43Z</time>
      </trkpt>
      <trkpt lat="43.12694" lon="-7.06719">
        <ele>969.9</ele>
        <time>2016-07-12T05:15:50Z</time>
      </trkpt>
      <trkpt lat="43.12685" lon="-7.06726">
        <ele>969.4</ele>
        <time>2016-07-12T05:15:57Z</time>
      </trkpt>
      <trkpt lat="43.12677" lon="-7.06731">
        <ele>969.1</ele>
        <time>2016-07-12T05:16:04Z</time>
      </trkpt>
      <trkpt lat="43.1267" lon="-7.06741">
        <ele>968.8</ele>
        <time>2016-07-12T05:16:14Z</time>
      </trkpt>
      <trkpt lat="43.12661" lon="-7.06743">
        <ele>968.5</ele>
        <time>2016-07-12T05:16:24Z</time>
      </trkpt>
      <trkpt lat="43.12652" lon="-7.06743">
        <ele>968.6</ele>
        <time>2016-07-12T05:16:31Z</time>
      </trkpt>
      <trkpt lat="43.12643" lon="-7.06745">
        <ele>968.9</ele>
        <time>2016-07-12T05:16:39Z</time>
      </trkpt>
      <trkpt lat="43.12633" lon="-7.0674">
        <ele>969.2</ele>
        <time>2016-07-12T05:16:47Z</time>
      </trkpt>
      <trkpt lat="43.12624" lon="-7.06735">
        <ele>969.4</ele>
        <time>2016-07-12T05:16:54Z</time>
      </trkpt>
      <trkpt lat="43.12615" lon="-7.06731">
        <ele>969.9</ele>
        <time>2016-07-12T05:17:00Z</time>
      </trkpt>
      <trkpt lat="43.12605" lon="-7.06727">
        <ele>970.3</ele>
        <time>2016-07-12T05:17:07Z</time>
      </trkpt>
      <trkpt lat="43.12596" lon="-7.06727">
        <ele>970.9</ele>
        <time>2016-07-12T05:17:14Z</time>
      </trkpt>
      <trkpt lat="43.12586" lon="-7.0672">
        <ele>971</ele>
        <time>2016-07-12T05:17:26Z</time>
      </trkpt>
      <trkpt lat="43.12578" lon="-7.06713">
        <ele>971.9</ele>
        <time>2016-07-12T05:17:38Z</time>
      </trkpt>
      <trkpt lat="43.12569" lon="-7.06709">
        <ele>972</ele>
        <time>2016-07-12T05:17:48Z</time>
      </trkpt>
      <trkpt lat="43.12563" lon="-7.06719">
        <ele>971.5</ele>
        <time>2016-07-12T05:18:30Z</time>
      </trkpt>
      <trkpt lat="43.12554" lon="-7.06724">
        <ele>973.1</ele>
        <time>2016-07-12T05:19:14Z</time>
      </trkpt>
      <trkpt lat="43.12546" lon="-7.06729">
        <ele>973.9</ele>
        <time>2016-07-12T05:19:26Z</time>
      </trkpt>
      <trkpt lat="43.1254" lon="-7.0674">
        <ele>975.1</ele>
        <time>2016-07-12T05:19:37Z</time>
      </trkpt>
      <trkpt lat="43.12534" lon="-7.0675">
        <ele>976</ele>
        <time>2016-07-12T05:19:46Z</time>
      </trkpt>
      <trkpt lat="43.12527" lon="-7.06759">
        <ele>977.6</ele>
        <time>2016-07-12T05:19:58Z</time>
      </trkpt>
      <trkpt lat="43.12521" lon="-7.06769">
        <ele>979.4</ele>
        <time>2016-07-12T05:20:10Z</time>
      </trkpt>
      <trkpt lat="43.12514" lon="-7.06776">
        <ele>980.1</ele>
        <time>2016-07-12T05:20:18Z</time>
      </trkpt>
      <trkpt lat="43.12506" lon="-7.06784">
        <ele>980.7</ele>
        <time>2016-07-12T05:20:27Z</time>
      </trkpt>
      <trkpt lat="43.12498" lon="-7.06792">
        <ele>982.1</ele>
        <time>2016-07-12T05:20:40Z</time>
      </trkpt>
      <trkpt lat="43.1249" lon="-7.06795">
        <ele>983</ele>
        <time>2016-07-12T05:20:54Z</time>
      </trkpt>
      <trkpt lat="43.12481" lon="-7.06799">
        <ele>983.7</ele>
        <time>2016-07-12T05:21:03Z</time>
      </trkpt>
      <trkpt lat="43.12472" lon="-7.06804">
        <ele>984.2</ele>
        <time>2016-07-12T05:21:11Z</time>
      </trkpt>
      <trkpt lat="43.12464" lon="-7.06811">
        <ele>984.5</ele>
        <time>2016-07-12T05:21:19Z</time>
      </trkpt>
      <trkpt lat="43.12454" lon="-7.06816">
        <ele>984.7</ele>
        <time>2016-07-12T05:21:27Z</time>
      </trkpt>
      <trkpt lat="43.12445" lon="-7.06821">
        <ele>984.7</ele>
        <time>2016-07-12T05:21:35Z</time>
      </trkpt>
      <trkpt lat="43.12438" lon="-7.06829">
        <ele>984.6</ele>
        <time>2016-07-12T05:21:42Z</time>
      </trkpt>
      <trkpt lat="43.1243" lon="-7.06836">
        <ele>984.4</ele>
        <time>2016-07-12T05:21:51Z</time>
      </trkpt>
      <trkpt lat="43.12421" lon="-7.06843">
        <ele>983.7</ele>
        <time>2016-07-12T05:21:58Z</time>
      </trkpt>
      <trkpt lat="43.12412" lon="-7.06849">
        <ele>983</ele>
        <time>2016-07-12T05:22:07Z</time>
      </trkpt>
      <trkpt lat="43.12403" lon="-7.06853">
        <ele>982.6</ele>
        <time>2016-07-12T05:22:16Z</time>
      </trkpt>
      <trkpt lat="43.12394" lon="-7.06859">
        <ele>982</ele>
        <time>2016-07-12T05:22:24Z</time>
      </trkpt>
      <trkpt lat="43.12386" lon="-7.06866">
        <ele>981.2</ele>
        <time>2016-07-12T05:22:32Z</time>
      </trkpt>
      <trkpt lat="43.12378" lon="-7.06872">
        <ele>980.2</ele>
        <time>2016-07-12T05:22:42Z</time>
      </trkpt>
      <trkpt lat="43.12368" lon="-7.06874">
        <ele>979.1</ele>
        <time>2016-07-12T05:22:50Z</time>
      </trkpt>
      <trkpt lat="43.12358" lon="-7.06872">
        <ele>978.5</ele>
        <time>2016-07-12T05:22:57Z</time>
      </trkpt>
      <trkpt lat="43.12349" lon="-7.06873">
        <ele>978</ele>
        <time>2016-07-12T05:23:04Z</time>
      </trkpt>
      <trkpt lat="43.12339" lon="-7.06871">
        <ele>976.9</ele>
        <time>2016-07-12T05:23:13Z</time>
      </trkpt>
      <trkpt lat="43.1233" lon="-7.06868">
        <ele>975.9</ele>
        <time>2016-07-12T05:23:20Z</time>
      </trkpt>
      <trkpt lat="43.12319" lon="-7.06864">
        <ele>975.1</ele>
        <time>2016-07-12T05:23:26Z</time>
      </trkpt>
      <trkpt lat="43.1231" lon="-7.06859">
        <ele>974.3</ele>
        <time>2016-07-12T05:23:32Z</time>
      </trkpt>
      <trkpt lat="43.12301" lon="-7.06855">
        <ele>972.9</ele>
        <time>2016-07-12T05:23:39Z</time>
      </trkpt>
      <trkpt lat="43.12292" lon="-7.0685">
        <ele>971.7</ele>
        <time>2016-07-12T05:23:46Z</time>
      </trkpt>
      <trkpt lat="43.12284" lon="-7.06847">
        <ele>970.9</ele>
        <time>2016-07-12T05:23:53Z</time>
      </trkpt>
      <trkpt lat="43.12274" lon="-7.06846">
        <ele>970.1</ele>
        <time>2016-07-12T05:24:00Z</time>
      </trkpt>
      <trkpt lat="43.12264" lon="-7.06846">
        <ele>969.5</ele>
        <time>2016-07-12T05:24:07Z</time>
      </trkpt>
      <trkpt lat="43.12255" lon="-7.06848">
        <ele>968.6</ele>
        <time>2016-07-12T05:24:15Z</time>
      </trkpt>
      <trkpt lat="43.12245" lon="-7.06853">
        <ele>967.1</ele>
        <time>2016-07-12T05:24:23Z</time>
      </trkpt>
      <trkpt lat="43.12236" lon="-7.06856">
        <ele>966.4</ele>
        <time>2016-07-12T05:24:31Z</time>
      </trkpt>
      <trkpt lat="43.12227" lon="-7.06862">
        <ele>965.5</ele>
        <time>2016-07-12T05:24:38Z</time>
      </trkpt>
      <trkpt lat="43.12219" lon="-7.06868">
        <ele>964.7</ele>
        <time>2016-07-12T05:24:45Z</time>
      </trkpt>
      <trkpt lat="43.1221" lon="-7.06873">
        <ele>963.7</ele>
        <time>2016-07-12T05:24:52Z</time>
      </trkpt>
      <trkpt lat="43.12202" lon="-7.06881">
        <ele>962.9</ele>
        <time>2016-07-12T05:25:00Z</time>
      </trkpt>
      <trkpt lat="43.12195" lon="-7.0689">
        <ele>961.6</ele>
        <time>2016-07-12T05:25:08Z</time>
      </trkpt>
      <trkpt lat="43.1219" lon="-7.06901">
        <ele>960.3</ele>
        <time>2016-07-12T05:25:18Z</time>
      </trkpt>
      <trkpt lat="43.12185" lon="-7.06912">
        <ele>959.5</ele>
        <time>2016-07-12T05:25:26Z</time>
      </trkpt>
      <trkpt lat="43.1218" lon="-7.06922">
        <ele>958.9</ele>
        <time>2016-07-12T05:25:33Z</time>
      </trkpt>
      <trkpt lat="43.12174" lon="-7.06932">
        <ele>958</ele>
        <time>2016-07-12T05:25:40Z</time>
      </trkpt>
      <trkpt lat="43.12168" lon="-7.06943">
        <ele>956.9</ele>
        <time>2016-07-12T05:25:47Z</time>
      </trkpt>
      <trkpt lat="43.1216" lon="-7.06951">
        <ele>956.3</ele>
        <time>2016-07-12T05:25:54Z</time>
      </trkpt>
      <trkpt lat="43.12152" lon="-7.06959">
        <ele>955.7</ele>
        <time>2016-07-12T05:26:01Z</time>
      </trkpt>
      <trkpt lat="43.12146" lon="-7.06968">
        <ele>955.3</ele>
        <time>2016-07-12T05:26:09Z</time>
      </trkpt>
      <trkpt lat="43.1214" lon="-7.06979">
        <ele>954.6</ele>
        <time>2016-07-12T05:26:18Z</time>
      </trkpt>
      <trkpt lat="43.12131" lon="-7.06986">
        <ele>954.1</ele>
        <time>2016-07-12T05:26:25Z</time>
      </trkpt>
      <trkpt lat="43.12123" lon="-7.06992">
        <ele>953.7</ele>
        <time>2016-07-12T05:26:32Z</time>
      </trkpt>
      <trkpt lat="43.12117" lon="-7.07002">
        <ele>952.9</ele>
        <time>2016-07-12T05:26:40Z</time>
      </trkpt>
      <trkpt lat="43.1211" lon="-7.07012">
        <ele>952.2</ele>
        <time>2016-07-12T05:26:49Z</time>
      </trkpt>
      <trkpt lat="43.12104" lon="-7.07022">
        <ele>951.9</ele>
        <time>2016-07-12T05:26:57Z</time>
      </trkpt>
      <trkpt lat="43.12098" lon="-7.07033">
        <ele>951.7</ele>
        <time>2016-07-12T05:27:06Z</time>
      </trkpt>
      <trkpt lat="43.12094" lon="-7.07045">
        <ele>951.2</ele>
        <time>2016-07-12T05:27:14Z</time>
      </trkpt>
      <trkpt lat="43.1209" lon="-7.07057">
        <ele>950.8</ele>
        <time>2016-07-12T05:27:20Z</time>
      </trkpt>
      <trkpt lat="43.12084" lon="-7.07069">
        <ele>950.4</ele>
        <time>2016-07-12T05:27:27Z</time>
      </trkpt>
      <trkpt lat="43.12078" lon="-7.07079">
        <ele>949.7</ele>
        <time>2016-07-12T05:27:34Z</time>
      </trkpt>
      <trkpt lat="43.12072" lon="-7.0709">
        <ele>948.8</ele>
        <time>2016-07-12T05:27:42Z</time>
      </trkpt>
      <trkpt lat="43.12066" lon="-7.07099">
        <ele>948.2</ele>
        <time>2016-07-12T05:27:49Z</time>
      </trkpt>
      <trkpt lat="43.12059" lon="-7.0711">
        <ele>947.3</ele>
        <time>2016-07-12T05:27:57Z</time>
      </trkpt>
      <trkpt lat="43.12051" lon="-7.07118">
        <ele>946.3</ele>
        <time>2016-07-12T05:28:04Z</time>
      </trkpt>
      <trkpt lat="43.12047" lon="-7.07129">
        <ele>943.7</ele>
        <time>2016-07-12T05:28:56Z</time>
      </trkpt>
      <trkpt lat="43.12039" lon="-7.07138">
        <ele>943.2</ele>
        <time>2016-07-12T05:29:04Z</time>
      </trkpt>
      <trkpt lat="43.12031" lon="-7.07147">
        <ele>942.3</ele>
        <time>2016-07-12T05:29:12Z</time>
      </trkpt>
      <trkpt lat="43.12023" lon="-7.07155">
        <ele>941.7</ele>
        <time>2016-07-12T05:29:19Z</time>
      </trkpt>
      <trkpt lat="43.12016" lon="-7.07163">
        <ele>940.8</ele>
        <time>2016-07-12T05:29:26Z</time>
      </trkpt>
      <trkpt lat="43.12007" lon="-7.07171">
        <ele>939.8</ele>
        <time>2016-07-12T05:29:33Z</time>
      </trkpt>
      <trkpt lat="43.12" lon="-7.0718">
        <ele>939</ele>
        <time>2016-07-12T05:29:40Z</time>
      </trkpt>
      <trkpt lat="43.11993" lon="-7.07188">
        <ele>938</ele>
        <time>2016-07-12T05:29:47Z</time>
      </trkpt>
      <trkpt lat="43.11986" lon="-7.07197">
        <ele>936.6</ele>
        <time>2016-07-12T05:29:57Z</time>
      </trkpt>
      <trkpt lat="43.1198" lon="-7.07207">
        <ele>935.3</ele>
        <time>2016-07-12T05:30:06Z</time>
      </trkpt>
      <trkpt lat="43.11973" lon="-7.07217">
        <ele>934.1</ele>
        <time>2016-07-12T05:30:14Z</time>
      </trkpt>
      <trkpt lat="43.11965" lon="-7.07225">
        <ele>933.2</ele>
        <time>2016-07-12T05:30:21Z</time>
      </trkpt>
      <trkpt lat="43.11957" lon="-7.07233">
        <ele>932.1</ele>
        <time>2016-07-12T05:30:29Z</time>
      </trkpt>
      <trkpt lat="43.11949" lon="-7.0724">
        <ele>931.5</ele>
        <time>2016-07-12T05:30:36Z</time>
      </trkpt>
      <trkpt lat="43.1194" lon="-7.07247">
        <ele>930.8</ele>
        <time>2016-07-12T05:30:44Z</time>
      </trkpt>
      <trkpt lat="43.11933" lon="-7.07255">
        <ele>929.9</ele>
        <time>2016-07-12T05:30:52Z</time>
      </trkpt>
      <trkpt lat="43.11925" lon="-7.07264">
        <ele>929.3</ele>
        <time>2016-07-12T05:30:59Z</time>
      </trkpt>
      <trkpt lat="43.11917" lon="-7.07271">
        <ele>928.7</ele>
        <time>2016-07-12T05:31:06Z</time>
      </trkpt>
      <trkpt lat="43.11914" lon="-7.07283">
        <ele>928.1</ele>
        <time>2016-07-12T05:31:14Z</time>
      </trkpt>
      <trkpt lat="43.11913" lon="-7.07296">
        <ele>927.6</ele>
        <time>2016-07-12T05:31:24Z</time>
      </trkpt>
      <trkpt lat="43.11912" lon="-7.07309">
        <ele>926.7</ele>
        <time>2016-07-12T05:31:32Z</time>
      </trkpt>
      <trkpt lat="43.1191" lon="-7.07322">
        <ele>925.9</ele>
        <time>2016-07-12T05:31:39Z</time>
      </trkpt>
      <trkpt lat="43.11909" lon="-7.07335">
        <ele>925.2</ele>
        <time>2016-07-12T05:31:46Z</time>
      </trkpt>
      <trkpt lat="43.11907" lon="-7.07348">
        <ele>924.5</ele>
        <time>2016-07-12T05:31:53Z</time>
      </trkpt>
      <trkpt lat="43.11904" lon="-7.07361">
        <ele>923.7</ele>
        <time>2016-07-12T05:32:00Z</time>
      </trkpt>
      <trkpt lat="43.11902" lon="-7.07375">
        <ele>923.2</ele>
        <time>2016-07-12T05:32:07Z</time>
      </trkpt>
      <trkpt lat="43.11901" lon="-7.07388">
        <ele>922.4</ele>
        <time>2016-07-12T05:32:14Z</time>
      </trkpt>
      <trkpt lat="43.11899" lon="-7.074">
        <ele>921.8</ele>
        <time>2016-07-12T05:32:20Z</time>
      </trkpt>
      <trkpt lat="43.11897" lon="-7.07413">
        <ele>921</ele>
        <time>2016-07-12T05:32:27Z</time>
      </trkpt>
      <trkpt lat="43.11897" lon="-7.07426">
        <ele>920.4</ele>
        <time>2016-07-12T05:32:34Z</time>
      </trkpt>
      <trkpt lat="43.11897" lon="-7.0744">
        <ele>919.3</ele>
        <time>2016-07-12T05:32:42Z</time>
      </trkpt>
      <trkpt lat="43.11896" lon="-7.07453">
        <ele>918.6</ele>
        <time>2016-07-12T05:32:49Z</time>
      </trkpt>
      <trkpt lat="43.11894" lon="-7.07467">
        <ele>917.8</ele>
        <time>2016-07-12T05:32:56Z</time>
      </trkpt>
      <trkpt lat="43.11892" lon="-7.07481">
        <ele>916.7</ele>
        <time>2016-07-12T05:33:03Z</time>
      </trkpt>
      <trkpt lat="43.11887" lon="-7.07494">
        <ele>915.7</ele>
        <time>2016-07-12T05:33:10Z</time>
      </trkpt>
      <trkpt lat="43.11883" lon="-7.07505">
        <ele>914.6</ele>
        <time>2016-07-12T05:33:17Z</time>
      </trkpt>
      <trkpt lat="43.11877" lon="-7.07515">
        <ele>913.8</ele>
        <time>2016-07-12T05:33:24Z</time>
      </trkpt>
      <trkpt lat="43.1187" lon="-7.07524">
        <ele>913.1</ele>
        <time>2016-07-12T05:33:31Z</time>
      </trkpt>
      <trkpt lat="43.11862" lon="-7.07533">
        <ele>912.4</ele>
        <time>2016-07-12T05:33:38Z</time>
      </trkpt>
      <trkpt lat="43.11854" lon="-7.0754">
        <ele>911.7</ele>
        <time>2016-07-12T05:33:44Z</time>
      </trkpt>
      <trkpt lat="43.11846" lon="-7.07547">
        <ele>910.9</ele>
        <time>2016-07-12T05:33:50Z</time>
      </trkpt>
      <trkpt lat="43.11838" lon="-7.07554">
        <ele>910.1</ele>
        <time>2016-07-12T05:33:56Z</time>
      </trkpt>
      <trkpt lat="43.11829" lon="-7.0756">
        <ele>909.3</ele>
        <time>2016-07-12T05:34:02Z</time>
      </trkpt>
      <trkpt lat="43.11822" lon="-7.07566">
        <ele>908.6</ele>
        <time>2016-07-12T05:34:08Z</time>
      </trkpt>
      <trkpt lat="43.11814" lon="-7.07572">
        <ele>907.5</ele>
        <time>2016-07-12T05:34:15Z</time>
      </trkpt>
      <trkpt lat="43.11805" lon="-7.07578">
        <ele>905.3</ele>
        <time>2016-07-12T05:34:34Z</time>
      </trkpt>
      <trkpt lat="43.11797" lon="-7.07585">
        <ele>904.2</ele>
        <time>2016-07-12T05:34:42Z</time>
      </trkpt>
      <trkpt lat="43.11789" lon="-7.07592">
        <ele>903.4</ele>
        <time>2016-07-12T05:34:51Z</time>
      </trkpt>
      <trkpt lat="43.1178" lon="-7.07599">
        <ele>902.6</ele>
        <time>2016-07-12T05:34:58Z</time>
      </trkpt>
      <trkpt lat="43.11771" lon="-7.07606">
        <ele>902</ele>
        <time>2016-07-12T05:35:06Z</time>
      </trkpt>
      <trkpt lat="43.11763" lon="-7.07612">
        <ele>901.5</ele>
        <time>2016-07-12T05:35:12Z</time>
      </trkpt>
      <trkpt lat="43.11754" lon="-7.07618">
        <ele>900.8</ele>
        <time>2016-07-12T05:35:19Z</time>
      </trkpt>
      <trkpt lat="43.11746" lon="-7.07625">
        <ele>900.3</ele>
        <time>2016-07-12T05:35:26Z</time>
      </trkpt>
      <trkpt lat="43.11738" lon="-7.07633">
        <ele>900.1</ele>
        <time>2016-07-12T05:35:33Z</time>
      </trkpt>
      <trkpt lat="43.11733" lon="-7.07644">
        <ele>899.1</ele>
        <time>2016-07-12T05:35:40Z</time>
      </trkpt>
      <trkpt lat="43.11731" lon="-7.07657">
        <ele>898.3</ele>
        <time>2016-07-12T05:35:47Z</time>
      </trkpt>
      <trkpt lat="43.11732" lon="-7.0767">
        <ele>897.8</ele>
        <time>2016-07-12T05:35:55Z</time>
      </trkpt>
      <trkpt lat="43.11733" lon="-7.07682">
        <ele>897.5</ele>
        <time>2016-07-12T05:36:02Z</time>
      </trkpt>
      <trkpt lat="43.11736" lon="-7.07694">
        <ele>897.2</ele>
        <time>2016-07-12T05:36:09Z</time>
      </trkpt>
      <trkpt lat="43.1174" lon="-7.07707">
        <ele>897.1</ele>
        <time>2016-07-12T05:36:17Z</time>
      </trkpt>
      <trkpt lat="43.11745" lon="-7.07718">
        <ele>896.9</ele>
        <time>2016-07-12T05:36:25Z</time>
      </trkpt>
      <trkpt lat="43.1175" lon="-7.0773">
        <ele>897.8</ele>
        <time>2016-07-12T05:36:33Z</time>
      </trkpt>
      <trkpt lat="43.11753" lon="-7.07742">
        <ele>898.9</ele>
        <time>2016-07-12T05:36:43Z</time>
      </trkpt>
      <trkpt lat="43.11752" lon="-7.07754">
        <ele>899.8</ele>
        <time>2016-07-12T05:36:52Z</time>
      </trkpt>
      <trkpt lat="43.11745" lon="-7.07764">
        <ele>900.7</ele>
        <time>2016-07-12T05:37:01Z</time>
      </trkpt>
      <trkpt lat="43.11738" lon="-7.07774">
        <ele>902.1</ele>
        <time>2016-07-12T05:37:10Z</time>
      </trkpt>
      <trkpt lat="43.11733" lon="-7.07785">
        <ele>903.3</ele>
        <time>2016-07-12T05:37:19Z</time>
      </trkpt>
      <trkpt lat="43.11728" lon="-7.07795">
        <ele>903.9</ele>
        <time>2016-07-12T05:37:28Z</time>
      </trkpt>
      <trkpt lat="43.11724" lon="-7.07807">
        <ele>903.7</ele>
        <time>2016-07-12T05:37:40Z</time>
      </trkpt>
      <trkpt lat="43.11719" lon="-7.07819">
        <ele>902.6</ele>
        <time>2016-07-12T05:37:50Z</time>
      </trkpt>
      <trkpt lat="43.11716" lon="-7.07832">
        <ele>901.8</ele>
        <time>2016-07-12T05:37:58Z</time>
      </trkpt>
      <trkpt lat="43.11713" lon="-7.07846">
        <ele>900.7</ele>
        <time>2016-07-12T05:38:06Z</time>
      </trkpt>
      <trkpt lat="43.11707" lon="-7.07856">
        <ele>899.8</ele>
        <time>2016-07-12T05:38:14Z</time>
      </trkpt>
      <trkpt lat="43.11699" lon="-7.07863">
        <ele>899.1</ele>
        <time>2016-07-12T05:38:21Z</time>
      </trkpt>
      <trkpt lat="43.11691" lon="-7.07872">
        <ele>898.4</ele>
        <time>2016-07-12T05:38:30Z</time>
      </trkpt>
      <trkpt lat="43.11683" lon="-7.07879">
        <ele>897.8</ele>
        <time>2016-07-12T05:38:37Z</time>
      </trkpt>
      <trkpt lat="43.11677" lon="-7.07889">
        <ele>897.3</ele>
        <time>2016-07-12T05:38:44Z</time>
      </trkpt>
      <trkpt lat="43.11675" lon="-7.07901">
        <ele>895.2</ele>
        <time>2016-07-12T05:39:36Z</time>
      </trkpt>
      <trkpt lat="43.11671" lon="-7.07913">
        <ele>895</ele>
        <time>2016-07-12T05:39:43Z</time>
      </trkpt>
      <trkpt lat="43.1167" lon="-7.07926">
        <ele>895</ele>
        <time>2016-07-12T05:39:49Z</time>
      </trkpt>
      <trkpt lat="43.11669" lon="-7.07939">
        <ele>895</ele>
        <time>2016-07-12T05:39:55Z</time>
      </trkpt>
      <trkpt lat="43.11669" lon="-7.07952">
        <ele>894.9</ele>
        <time>2016-07-12T05:40:01Z</time>
      </trkpt>
      <trkpt lat="43.11669" lon="-7.07966">
        <ele>894.6</ele>
        <time>2016-07-12T05:40:08Z</time>
      </trkpt>
      <trkpt lat="43.1167" lon="-7.07979">
        <ele>894.6</ele>
        <time>2016-07-12T05:40:16Z</time>
      </trkpt>
      <trkpt lat="43.1167" lon="-7.07992">
        <ele>894.3</ele>
        <time>2016-07-12T05:40:25Z</time>
      </trkpt>
      <trkpt lat="43.11673" lon="-7.08004">
        <ele>893.7</ele>
        <time>2016-07-12T05:40:33Z</time>
      </trkpt>
      <trkpt lat="43.11674" lon="-7.08016">
        <ele>893.4</ele>
        <time>2016-07-12T05:40:43Z</time>
      </trkpt>
      <trkpt lat="43.11675" lon="-7.0803">
        <ele>893.5</ele>
        <time>2016-07-12T05:40:52Z</time>
      </trkpt>
      <trkpt lat="43.11678" lon="-7.08042">
        <ele>893.6</ele>
        <time>2016-07-12T05:40:59Z</time>
      </trkpt>
      <trkpt lat="43.11681" lon="-7.08055">
        <ele>893.7</ele>
        <time>2016-07-12T05:41:06Z</time>
      </trkpt>
      <trkpt lat="43.11682" lon="-7.08067">
        <ele>893.7</ele>
        <time>2016-07-12T05:41:13Z</time>
      </trkpt>
      <trkpt lat="43.11684" lon="-7.08081">
        <ele>893.7</ele>
        <time>2016-07-12T05:41:20Z</time>
      </trkpt>
      <trkpt lat="43.11685" lon="-7.08094">
        <ele>893.7</ele>
        <time>2016-07-12T05:41:28Z</time>
      </trkpt>
      <trkpt lat="43.11685" lon="-7.08107">
        <ele>893.1</ele>
        <time>2016-07-12T05:41:35Z</time>
      </trkpt>
      <trkpt lat="43.11684" lon="-7.08119">
        <ele>892.7</ele>
        <time>2016-07-12T05:41:41Z</time>
      </trkpt>
      <trkpt lat="43.11682" lon="-7.08132">
        <ele>892.3</ele>
        <time>2016-07-12T05:41:47Z</time>
      </trkpt>
      <trkpt lat="43.11677" lon="-7.08143">
        <ele>892.1</ele>
        <time>2016-07-12T05:41:53Z</time>
      </trkpt>
      <trkpt lat="43.11671" lon="-7.08153">
        <ele>891.7</ele>
        <time>2016-07-12T05:41:59Z</time>
      </trkpt>
      <trkpt lat="43.11664" lon="-7.08163">
        <ele>890.9</ele>
        <time>2016-07-12T05:42:10Z</time>
      </trkpt>
      <trkpt lat="43.11658" lon="-7.08172">
        <ele>890.6</ele>
        <time>2016-07-12T05:42:17Z</time>
      </trkpt>
      <trkpt lat="43.1165" lon="-7.0818">
        <ele>890.3</ele>
        <time>2016-07-12T05:42:25Z</time>
      </trkpt>
      <trkpt lat="43.11643" lon="-7.08187">
        <ele>890</ele>
        <time>2016-07-12T05:42:34Z</time>
      </trkpt>
      <trkpt lat="43.11634" lon="-7.08194">
        <ele>889.6</ele>
        <time>2016-07-12T05:42:42Z</time>
      </trkpt>
      <trkpt lat="43.11626" lon="-7.082">
        <ele>889.2</ele>
        <time>2016-07-12T05:42:50Z</time>
      </trkpt>
      <trkpt lat="43.11617" lon="-7.08205">
        <ele>889</ele>
        <time>2016-07-12T05:42:57Z</time>
      </trkpt>
      <trkpt lat="43.11609" lon="-7.0821">
        <ele>888.5</ele>
        <time>2016-07-12T05:43:06Z</time>
      </trkpt>
      <trkpt lat="43.116" lon="-7.08216">
        <ele>888.1</ele>
        <time>2016-07-12T05:43:14Z</time>
      </trkpt>
      <trkpt lat="43.11591" lon="-7.08221">
        <ele>887.6</ele>
        <time>2016-07-12T05:43:21Z</time>
      </trkpt>
      <trkpt lat="43.11583" lon="-7.08226">
        <ele>887.3</ele>
        <time>2016-07-12T05:43:28Z</time>
      </trkpt>
      <trkpt lat="43.11575" lon="-7.08233">
        <ele>886.9</ele>
        <time>2016-07-12T05:43:35Z</time>
      </trkpt>
      <trkpt lat="43.11565" lon="-7.08239">
        <ele>886.5</ele>
        <time>2016-07-12T05:43:43Z</time>
      </trkpt>
      <trkpt lat="43.11557" lon="-7.08243">
        <ele>886.4</ele>
        <time>2016-07-12T05:43:50Z</time>
      </trkpt>
      <trkpt lat="43.11548" lon="-7.08248">
        <ele>886.4</ele>
        <time>2016-07-12T05:43:57Z</time>
      </trkpt>
      <trkpt lat="43.1154" lon="-7.08254">
        <ele>886.2</ele>
        <time>2016-07-12T05:44:04Z</time>
      </trkpt>
      <trkpt lat="43.11531" lon="-7.08258">
        <ele>885.9</ele>
        <time>2016-07-12T05:44:12Z</time>
      </trkpt>
      <trkpt lat="43.11523" lon="-7.08264">
        <ele>885.3</ele>
        <time>2016-07-12T05:44:22Z</time>
      </trkpt>
      <trkpt lat="43.11513" lon="-7.08268">
        <ele>884.9</ele>
        <time>2016-07-12T05:44:30Z</time>
      </trkpt>
      <trkpt lat="43.11504" lon="-7.08273">
        <ele>884.6</ele>
        <time>2016-07-12T05:44:39Z</time>
      </trkpt>
      <trkpt lat="43.11495" lon="-7.08279">
        <ele>884.4</ele>
        <time>2016-07-12T05:44:48Z</time>
      </trkpt>
      <trkpt lat="43.11485" lon="-7.08283">
        <ele>884</ele>
        <time>2016-07-12T05:44:56Z</time>
      </trkpt>
      <trkpt lat="43.11476" lon="-7.08289">
        <ele>883.7</ele>
        <time>2016-07-12T05:45:04Z</time>
      </trkpt>
      <trkpt lat="43.11467" lon="-7.08294">
        <ele>883.6</ele>
        <time>2016-07-12T05:45:11Z</time>
      </trkpt>
      <trkpt lat="43.11458" lon="-7.08298">
        <ele>883.2</ele>
        <time>2016-07-12T05:45:18Z</time>
      </trkpt>
      <trkpt lat="43.11449" lon="-7.08303">
        <ele>882.7</ele>
        <time>2016-07-12T05:45:25Z</time>
      </trkpt>
      <trkpt lat="43.11439" lon="-7.08307">
        <ele>882.5</ele>
        <time>2016-07-12T05:45:32Z</time>
      </trkpt>
      <trkpt lat="43.11431" lon="-7.08311">
        <ele>882.6</ele>
        <time>2016-07-12T05:45:39Z</time>
      </trkpt>
      <trkpt lat="43.11422" lon="-7.08316">
        <ele>883.4</ele>
        <time>2016-07-12T05:45:46Z</time>
      </trkpt>
      <trkpt lat="43.11413" lon="-7.08321">
        <ele>884.2</ele>
        <time>2016-07-12T05:45:54Z</time>
      </trkpt>
      <trkpt lat="43.11403" lon="-7.08327">
        <ele>884.7</ele>
        <time>2016-07-12T05:46:02Z</time>
      </trkpt>
      <trkpt lat="43.11394" lon="-7.08331">
        <ele>884.7</ele>
        <time>2016-07-12T05:46:09Z</time>
      </trkpt>
      <trkpt lat="43.11386" lon="-7.08337">
        <ele>884.6</ele>
        <time>2016-07-12T05:46:15Z</time>
      </trkpt>
      <trkpt lat="43.11378" lon="-7.08345">
        <ele>884.5</ele>
        <time>2016-07-12T05:46:22Z</time>
      </trkpt>
      <trkpt lat="43.11371" lon="-7.08352">
        <ele>884.4</ele>
        <time>2016-07-12T05:46:29Z</time>
      </trkpt>
      <trkpt lat="43.11363" lon="-7.0836">
        <ele>884</ele>
        <time>2016-07-12T05:46:36Z</time>
      </trkpt>
      <trkpt lat="43.11356" lon="-7.0837">
        <ele>883.6</ele>
        <time>2016-07-12T05:46:44Z</time>
      </trkpt>
      <trkpt lat="43.1135" lon="-7.0838">
        <ele>882.9</ele>
        <time>2016-07-12T05:46:52Z</time>
      </trkpt>
      <trkpt lat="43.11344" lon="-7.08391">
        <ele>882.6</ele>
        <time>2016-07-12T05:47:00Z</time>
      </trkpt>
      <trkpt lat="43.11337" lon="-7.084">
        <ele>882.5</ele>
        <time>2016-07-12T05:47:08Z</time>
      </trkpt>
      <trkpt lat="43.11329" lon="-7.08406">
        <ele>882.4</ele>
        <time>2016-07-12T05:47:15Z</time>
      </trkpt>
      <trkpt lat="43.11324" lon="-7.08416">
        <ele>882.1</ele>
        <time>2016-07-12T05:47:23Z</time>
      </trkpt>
      <trkpt lat="43.1132" lon="-7.08427">
        <ele>882</ele>
        <time>2016-07-12T05:47:30Z</time>
      </trkpt>
      <trkpt lat="43.11317" lon="-7.0844">
        <ele>881.9</ele>
        <time>2016-07-12T05:47:37Z</time>
      </trkpt>
      <trkpt lat="43.11313" lon="-7.08453">
        <ele>881.7</ele>
        <time>2016-07-12T05:47:45Z</time>
      </trkpt>
      <trkpt lat="43.11312" lon="-7.08465">
        <ele>881.5</ele>
        <time>2016-07-12T05:47:52Z</time>
      </trkpt>
      <trkpt lat="43.11312" lon="-7.08478">
        <ele>881.4</ele>
        <time>2016-07-12T05:48:00Z</time>
      </trkpt>
      <trkpt lat="43.11311" lon="-7.08491">
        <ele>881.3</ele>
        <time>2016-07-12T05:48:08Z</time>
      </trkpt>
      <trkpt lat="43.11309" lon="-7.08504">
        <ele>881.2</ele>
        <time>2016-07-12T05:48:17Z</time>
      </trkpt>
      <trkpt lat="43.11305" lon="-7.08516">
        <ele>881.2</ele>
        <time>2016-07-12T05:48:28Z</time>
      </trkpt>
      <trkpt lat="43.11301" lon="-7.08527">
        <ele>881</ele>
        <time>2016-07-12T05:48:37Z</time>
      </trkpt>
      <trkpt lat="43.11299" lon="-7.0854">
        <ele>880.8</ele>
        <time>2016-07-12T05:48:46Z</time>
      </trkpt>
      <trkpt lat="43.11297" lon="-7.08552">
        <ele>880.7</ele>
        <time>2016-07-12T05:48:55Z</time>
      </trkpt>
      <trkpt lat="43.11296" lon="-7.08565">
        <ele>881.1</ele>
        <time>2016-07-12T05:49:05Z</time>
      </trkpt>
      <trkpt lat="43.11295" lon="-7.08579">
        <ele>881.3</ele>
        <time>2016-07-12T05:49:14Z</time>
      </trkpt>
      <trkpt lat="43.11293" lon="-7.08592">
        <ele>881.2</ele>
        <time>2016-07-12T05:49:22Z</time>
      </trkpt>
      <trkpt lat="43.11292" lon="-7.08605">
        <ele>880.9</ele>
        <time>2016-07-12T05:49:29Z</time>
      </trkpt>
      <trkpt lat="43.11292" lon="-7.08617">
        <ele>880.8</ele>
        <time>2016-07-12T05:49:37Z</time>
      </trkpt>
      <trkpt lat="43.11292" lon="-7.08631">
        <ele>880.4</ele>
        <time>2016-07-12T05:49:45Z</time>
      </trkpt>
      <trkpt lat="43.11293" lon="-7.08645">
        <ele>879.9</ele>
        <time>2016-07-12T05:49:53Z</time>
      </trkpt>
      <trkpt lat="43.11292" lon="-7.08658">
        <ele>879.2</ele>
        <time>2016-07-12T05:50:00Z</time>
      </trkpt>
      <trkpt lat="43.11293" lon="-7.08671">
        <ele>878.6</ele>
        <time>2016-07-12T05:50:09Z</time>
      </trkpt>
      <trkpt lat="43.11291" lon="-7.08685">
        <ele>877.8</ele>
        <time>2016-07-12T05:50:17Z</time>
      </trkpt>
      <trkpt lat="43.1129" lon="-7.08698">
        <ele>876.7</ele>
        <time>2016-07-12T05:50:24Z</time>
      </trkpt>
      <trkpt lat="43.11289" lon="-7.08712">
        <ele>875.2</ele>
        <time>2016-07-12T05:50:31Z</time>
      </trkpt>
      <trkpt lat="43.11287" lon="-7.08724">
        <ele>874.3</ele>
        <time>2016-07-12T05:50:38Z</time>
      </trkpt>
      <trkpt lat="43.11286" lon="-7.08737">
        <ele>873.3</ele>
        <time>2016-07-12T05:50:46Z</time>
      </trkpt>
      <trkpt lat="43.11285" lon="-7.0875">
        <ele>872.6</ele>
        <time>2016-07-12T05:50:54Z</time>
      </trkpt>
      <trkpt lat="43.11284" lon="-7.08762">
        <ele>872</ele>
        <time>2016-07-12T05:51:02Z</time>
      </trkpt>
      <trkpt lat="43.11282" lon="-7.08775">
        <ele>871.5</ele>
        <time>2016-07-12T05:51:09Z</time>
      </trkpt>
      <trkpt lat="43.11277" lon="-7.08788">
        <ele>871.3</ele>
        <time>2016-07-12T05:51:16Z</time>
      </trkpt>
      <trkpt lat="43.11269" lon="-7.08795">
        <ele>870.9</ele>
        <time>2016-07-12T05:51:24Z</time>
      </trkpt>
      <trkpt lat="43.1126" lon="-7.08799">
        <ele>870.8</ele>
        <time>2016-07-12T05:51:32Z</time>
      </trkpt>
      <trkpt lat="43.11251" lon="-7.08803">
        <ele>871.5</ele>
        <time>2016-07-12T05:51:40Z</time>
      </trkpt>
      <trkpt lat="43.11241" lon="-7.08804">
        <ele>871.9</ele>
        <time>2016-07-12T05:51:48Z</time>
      </trkpt>
      <trkpt lat="43.11233" lon="-7.08808">
        <ele>873</ele>
        <time>2016-07-12T05:51:57Z</time>
      </trkpt>
      <trkpt lat="43.11224" lon="-7.08814">
        <ele>874.1</ele>
        <time>2016-07-12T05:52:06Z</time>
      </trkpt>
      <trkpt lat="43.11215" lon="-7.08821">
        <ele>875.1</ele>
        <time>2016-07-12T05:52:16Z</time>
      </trkpt>
      <trkpt lat="43.11206" lon="-7.08827">
        <ele>875.7</ele>
        <time>2016-07-12T05:52:24Z</time>
      </trkpt>
      <trkpt lat="43.11198" lon="-7.08834">
        <ele>876</ele>
        <time>2016-07-12T05:52:33Z</time>
      </trkpt>
      <trkpt lat="43.11189" lon="-7.08841">
        <ele>876.4</ele>
        <time>2016-07-12T05:52:41Z</time>
      </trkpt>
      <trkpt lat="43.11183" lon="-7.08851">
        <ele>876.9</ele>
        <time>2016-07-12T05:52:49Z</time>
      </trkpt>
      <trkpt lat="43.11173" lon="-7.08855">
        <ele>877.2</ele>
        <time>2016-07-12T05:52:57Z</time>
      </trkpt>
      <trkpt lat="43.11164" lon="-7.08859">
        <ele>877.4</ele>
        <time>2016-07-12T05:53:05Z</time>
      </trkpt>
      <trkpt lat="43.11154" lon="-7.08862">
        <ele>877.5</ele>
        <time>2016-07-12T05:53:12Z</time>
      </trkpt>
      <trkpt lat="43.11145" lon="-7.08865">
        <ele>877.8</ele>
        <time>2016-07-12T05:53:19Z</time>
      </trkpt>
      <trkpt lat="43.11135" lon="-7.08868">
        <ele>878.1</ele>
        <time>2016-07-12T05:53:27Z</time>
      </trkpt>
      <trkpt lat="43.11126" lon="-7.08871">
        <ele>878.3</ele>
        <time>2016-07-12T05:53:35Z</time>
      </trkpt>
      <trkpt lat="43.11116" lon="-7.08873">
        <ele>878.9</ele>
        <time>2016-07-12T05:53:44Z</time>
      </trkpt>
      <trkpt lat="43.11106" lon="-7.08876">
        <ele>879.1</ele>
        <time>2016-07-12T05:53:52Z</time>
      </trkpt>
      <trkpt lat="43.11097" lon="-7.08878">
        <ele>879.3</ele>
        <time>2016-07-12T05:53:59Z</time>
      </trkpt>
      <trkpt lat="43.11088" lon="-7.08882">
        <ele>879.5</ele>
        <time>2016-07-12T05:54:07Z</time>
      </trkpt>
      <trkpt lat="43.11079" lon="-7.08885">
        <ele>879.7</ele>
        <time>2016-07-12T05:54:16Z</time>
      </trkpt>
      <trkpt lat="43.1107" lon="-7.08888">
        <ele>879.7</ele>
        <time>2016-07-12T05:54:24Z</time>
      </trkpt>
      <trkpt lat="43.11061" lon="-7.0889">
        <ele>879.9</ele>
        <time>2016-07-12T05:54:31Z</time>
      </trkpt>
      <trkpt lat="43.11053" lon="-7.08895">
        <ele>880.1</ele>
        <time>2016-07-12T05:54:38Z</time>
      </trkpt>
      <trkpt lat="43.11043" lon="-7.08899">
        <ele>880.3</ele>
        <time>2016-07-12T05:54:46Z</time>
      </trkpt>
      <trkpt lat="43.11034" lon="-7.08903">
        <ele>880.8</ele>
        <time>2016-07-12T05:54:54Z</time>
      </trkpt>
      <trkpt lat="43.11025" lon="-7.08908">
        <ele>880.7</ele>
        <time>2016-07-12T05:55:02Z</time>
      </trkpt>
      <trkpt lat="43.11016" lon="-7.08912">
        <ele>880.8</ele>
        <time>2016-07-12T05:55:09Z</time>
      </trkpt>
      <trkpt lat="43.11009" lon="-7.08919">
        <ele>881</ele>
        <time>2016-07-12T05:55:17Z</time>
      </trkpt>
      <trkpt lat="43.11002" lon="-7.08928">
        <ele>881.2</ele>
        <time>2016-07-12T05:55:25Z</time>
      </trkpt>
      <trkpt lat="43.10999" lon="-7.08941">
        <ele>881.5</ele>
        <time>2016-07-12T05:55:35Z</time>
      </trkpt>
      <trkpt lat="43.10996" lon="-7.08954">
        <ele>881.2</ele>
        <time>2016-07-12T05:55:43Z</time>
      </trkpt>
      <trkpt lat="43.10992" lon="-7.08965">
        <ele>881.3</ele>
        <time>2016-07-12T05:55:52Z</time>
      </trkpt>
      <trkpt lat="43.10984" lon="-7.08975">
        <ele>882</ele>
        <time>2016-07-12T05:56:01Z</time>
      </trkpt>
      <trkpt lat="43.1098" lon="-7.08986">
        <ele>882</ele>
        <time>2016-07-12T05:56:14Z</time>
      </trkpt>
      <trkpt lat="43.10976" lon="-7.08997">
        <ele>882.4</ele>
        <time>2016-07-12T05:56:24Z</time>
      </trkpt>
      <trkpt lat="43.10972" lon="-7.09009">
        <ele>882.5</ele>
        <time>2016-07-12T05:56:32Z</time>
      </trkpt>
      <trkpt lat="43.10969" lon="-7.09021">
        <ele>882.6</ele>
        <time>2016-07-12T05:56:40Z</time>
      </trkpt>
      <trkpt lat="43.10969" lon="-7.09034">
        <ele>882.7</ele>
        <time>2016-07-12T05:56:48Z</time>
      </trkpt>
      <trkpt lat="43.1097" lon="-7.09047">
        <ele>883.3</ele>
        <time>2016-07-12T05:56:56Z</time>
      </trkpt>
      <trkpt lat="43.10972" lon="-7.09059">
        <ele>883.9</ele>
        <time>2016-07-12T05:57:04Z</time>
      </trkpt>
      <trkpt lat="43.10973" lon="-7.09072">
        <ele>884</ele>
        <time>2016-07-12T05:57:14Z</time>
      </trkpt>
      <trkpt lat="43.10976" lon="-7.09084">
        <ele>884.7</ele>
        <time>2016-07-12T05:57:24Z</time>
      </trkpt>
      <trkpt lat="43.10979" lon="-7.09096">
        <ele>886.2</ele>
        <time>2016-07-12T05:57:34Z</time>
      </trkpt>
      <trkpt lat="43.10982" lon="-7.09108">
        <ele>887.7</ele>
        <time>2016-07-12T05:57:45Z</time>
      </trkpt>
      <trkpt lat="43.10983" lon="-7.09122">
        <ele>889.8</ele>
        <time>2016-07-12T05:57:58Z</time>
      </trkpt>
      <trkpt lat="43.10983" lon="-7.09135">
        <ele>890.9</ele>
        <time>2016-07-12T05:58:07Z</time>
      </trkpt>
      <trkpt lat="43.1098" lon="-7.09147">
        <ele>891.7</ele>
        <time>2016-07-12T05:58:16Z</time>
      </trkpt>
      <trkpt lat="43.10977" lon="-7.09159">
        <ele>892.7</ele>
        <time>2016-07-12T05:58:25Z</time>
      </trkpt>
      <trkpt lat="43.10976" lon="-7.09172">
        <ele>893.3</ele>
        <time>2016-07-12T05:58:34Z</time>
      </trkpt>
      <trkpt lat="43.10975" lon="-7.09185">
        <ele>893.9</ele>
        <time>2016-07-12T05:58:42Z</time>
      </trkpt>
      <trkpt lat="43.10976" lon="-7.09198">
        <ele>894.5</ele>
        <time>2016-07-12T05:58:52Z</time>
      </trkpt>
      <trkpt lat="43.1098" lon="-7.09211">
        <ele>894.7</ele>
        <time>2016-07-12T05:59:01Z</time>
      </trkpt>
      <trkpt lat="43.10982" lon="-7.09224">
        <ele>894.9</ele>
        <time>2016-07-12T05:59:11Z</time>
      </trkpt>
      <trkpt lat="43.10988" lon="-7.09234">
        <ele>895.5</ele>
        <time>2016-07-12T05:59:20Z</time>
      </trkpt>
      <trkpt lat="43.10992" lon="-7.09246">
        <ele>896.4</ele>
        <time>2016-07-12T05:59:30Z</time>
      </trkpt>
      <trkpt lat="43.10995" lon="-7.09258">
        <ele>897</ele>
        <time>2016-07-12T05:59:39Z</time>
      </trkpt>
      <trkpt lat="43.10998" lon="-7.0927">
        <ele>897.6</ele>
        <time>2016-07-12T05:59:48Z</time>
      </trkpt>
      <trkpt lat="43.11002" lon="-7.09281">
        <ele>898.5</ele>
        <time>2016-07-12T05:59:57Z</time>
      </trkpt>
      <trkpt lat="43.11006" lon="-7.09293">
        <ele>899.7</ele>
        <time>2016-07-12T06:00:07Z</time>
      </trkpt>
      <trkpt lat="43.11008" lon="-7.09305">
        <ele>901.2</ele>
        <time>2016-07-12T06:00:17Z</time>
      </trkpt>
      <trkpt lat="43.11011" lon="-7.09318">
        <ele>902.3</ele>
        <time>2016-07-12T06:00:27Z</time>
      </trkpt>
      <trkpt lat="43.11009" lon="-7.0933">
        <ele>903.8</ele>
        <time>2016-07-12T06:00:38Z</time>
      </trkpt>
      <trkpt lat="43.11007" lon="-7.09343">
        <ele>904.9</ele>
        <time>2016-07-12T06:00:48Z</time>
      </trkpt>
      <trkpt lat="43.11005" lon="-7.09355">
        <ele>905.9</ele>
        <time>2016-07-12T06:00:58Z</time>
      </trkpt>
      <trkpt lat="43.11001" lon="-7.09367">
        <ele>906.6</ele>
        <time>2016-07-12T06:01:07Z</time>
      </trkpt>
      <trkpt lat="43.10997" lon="-7.09378">
        <ele>907.2</ele>
        <time>2016-07-12T06:01:16Z</time>
      </trkpt>
      <trkpt lat="43.10992" lon="-7.09389">
        <ele>907.7</ele>
        <time>2016-07-12T06:01:25Z</time>
      </trkpt>
      <trkpt lat="43.10986" lon="-7.09401">
        <ele>908.1</ele>
        <time>2016-07-12T06:01:35Z</time>
      </trkpt>
      <trkpt lat="43.10982" lon="-7.09413">
        <ele>907.8</ele>
        <time>2016-07-12T06:01:45Z</time>
      </trkpt>
      <trkpt lat="43.10978" lon="-7.09426">
        <ele>908</ele>
        <time>2016-07-12T06:01:54Z</time>
      </trkpt>
      <trkpt lat="43.10975" lon="-7.09438">
        <ele>908.4</ele>
        <time>2016-07-12T06:02:02Z</time>
      </trkpt>
      <trkpt lat="43.10972" lon="-7.0945">
        <ele>908.6</ele>
        <time>2016-07-12T06:02:10Z</time>
      </trkpt>
      <trkpt lat="43.10968" lon="-7.09463">
        <ele>908.7</ele>
        <time>2016-07-12T06:02:19Z</time>
      </trkpt>
      <trkpt lat="43.10963" lon="-7.09474">
        <ele>908.8</ele>
        <time>2016-07-12T06:02:27Z</time>
      </trkpt>
      <trkpt lat="43.10958" lon="-7.09485">
        <ele>909.3</ele>
        <time>2016-07-12T06:02:35Z</time>
      </trkpt>
      <trkpt lat="43.10957" lon="-7.09498">
        <ele>910.3</ele>
        <time>2016-07-12T06:02:44Z</time>
      </trkpt>
      <trkpt lat="43.10958" lon="-7.09511">
        <ele>910.8</ele>
        <time>2016-07-12T06:02:52Z</time>
      </trkpt>
      <trkpt lat="43.10958" lon="-7.09524">
        <ele>911.7</ele>
        <time>2016-07-12T06:03:00Z</time>
      </trkpt>
      <trkpt lat="43.10959" lon="-7.09539">
        <ele>912.6</ele>
        <time>2016-07-12T06:03:08Z</time>
      </trkpt>
      <trkpt lat="43.10959" lon="-7.09552">
        <ele>913.3</ele>
        <time>2016-07-12T06:03:17Z</time>
      </trkpt>
      <trkpt lat="43.10958" lon="-7.09566">
        <ele>913.8</ele>
        <time>2016-07-12T06:03:26Z</time>
      </trkpt>
      <trkpt lat="43.10959" lon="-7.09579">
        <ele>914.4</ele>
        <time>2016-07-12T06:03:35Z</time>
      </trkpt>
      <trkpt lat="43.10959" lon="-7.09592">
        <ele>914.8</ele>
        <time>2016-07-12T06:03:46Z</time>
      </trkpt>
      <trkpt lat="43.10959" lon="-7.09606">
        <ele>914.8</ele>
        <time>2016-07-12T06:03:55Z</time>
      </trkpt>
      <trkpt lat="43.10956" lon="-7.09619">
        <ele>914.1</ele>
        <time>2016-07-12T06:04:06Z</time>
      </trkpt>
      <trkpt lat="43.10953" lon="-7.09632">
        <ele>913.6</ele>
        <time>2016-07-12T06:04:15Z</time>
      </trkpt>
      <trkpt lat="43.10948" lon="-7.09644">
        <ele>913.4</ele>
        <time>2016-07-12T06:04:23Z</time>
      </trkpt>
      <trkpt lat="43.10943" lon="-7.09655">
        <ele>913</ele>
        <time>2016-07-12T06:04:30Z</time>
      </trkpt>
      <trkpt lat="43.10939" lon="-7.09666">
        <ele>912</ele>
        <time>2016-07-12T06:04:38Z</time>
      </trkpt>
      <trkpt lat="43.10937" lon="-7.09679">
        <ele>911.2</ele>
        <time>2016-07-12T06:04:47Z</time>
      </trkpt>
      <trkpt lat="43.10934" lon="-7.09691">
        <ele>910.2</ele>
        <time>2016-07-12T06:04:55Z</time>
      </trkpt>
      <trkpt lat="43.10931" lon="-7.09703">
        <ele>909.4</ele>
        <time>2016-07-12T06:05:04Z</time>
      </trkpt>
      <trkpt lat="43.10927" lon="-7.09715">
        <ele>907.4</ele>
        <time>2016-07-12T06:05:14Z</time>
      </trkpt>
      <trkpt lat="43.10922" lon="-7.09727">
        <ele>905.4</ele>
        <time>2016-07-12T06:05:25Z</time>
      </trkpt>
      <trkpt lat="43.10919" lon="-7.09739">
        <ele>903</ele>
        <time>2016-07-12T06:05:35Z</time>
      </trkpt>
      <trkpt lat="43.10917" lon="-7.09751">
        <ele>900.4</ele>
        <time>2016-07-12T06:05:44Z</time>
      </trkpt>
      <trkpt lat="43.10914" lon="-7.09764">
        <ele>898.3</ele>
        <time>2016-07-12T06:05:52Z</time>
      </trkpt>
      <trkpt lat="43.1091" lon="-7.09777">
        <ele>896.4</ele>
        <time>2016-07-12T06:06:01Z</time>
      </trkpt>
      <trkpt lat="43.10909" lon="-7.0979">
        <ele>894.1</ele>
        <time>2016-07-12T06:06:11Z</time>
      </trkpt>
      <trkpt lat="43.1091" lon="-7.09804">
        <ele>891.6</ele>
        <time>2016-07-12T06:06:22Z</time>
      </trkpt>
      <trkpt lat="43.10916" lon="-7.09813">
        <ele>889.1</ele>
        <time>2016-07-12T06:06:33Z</time>
      </trkpt>
      <trkpt lat="43.10922" lon="-7.09824">
        <ele>887.4</ele>
        <time>2016-07-12T06:06:41Z</time>
      </trkpt>
      <trkpt lat="43.10925" lon="-7.09836">
        <ele>885.9</ele>
        <time>2016-07-12T06:06:50Z</time>
      </trkpt>
      <trkpt lat="43.10929" lon="-7.09848">
        <ele>884</ele>
        <time>2016-07-12T06:07:00Z</time>
      </trkpt>
      <trkpt lat="43.1093" lon="-7.09861">
        <ele>882.5</ele>
        <time>2016-07-12T06:07:08Z</time>
      </trkpt>
      <trkpt lat="43.10933" lon="-7.09873">
        <ele>881.6</ele>
        <time>2016-07-12T06:07:16Z</time>
      </trkpt>
      <trkpt lat="43.10939" lon="-7.09883">
        <ele>879.2</ele>
        <time>2016-07-12T06:07:33Z</time>
      </trkpt>
      <trkpt lat="43.10946" lon="-7.09891">
        <ele>877.5</ele>
        <time>2016-07-12T06:07:44Z</time>
      </trkpt>
      <trkpt lat="43.10953" lon="-7.09901">
        <ele>875.3</ele>
        <time>2016-07-12T06:07:55Z</time>
      </trkpt>
      <trkpt lat="43.10961" lon="-7.09909">
        <ele>873.9</ele>
        <time>2016-07-12T06:08:04Z</time>
      </trkpt>
      <trkpt lat="43.10967" lon="-7.09918">
        <ele>872.4</ele>
        <time>2016-07-12T06:08:14Z</time>
      </trkpt>
      <trkpt lat="43.10973" lon="-7.0993">
        <ele>871.4</ele>
        <time>2016-07-12T06:08:26Z</time>
      </trkpt>
      <trkpt lat="43.10977" lon="-7.09942">
        <ele>870.7</ele>
        <time>2016-07-12T06:08:34Z</time>
      </trkpt>
      <trkpt lat="43.10979" lon="-7.09954">
        <ele>869.9</ele>
        <time>2016-07-12T06:08:43Z</time>
      </trkpt>
      <trkpt lat="43.10981" lon="-7.09967">
        <ele>869.3</ele>
        <time>2016-07-12T06:08:52Z</time>
      </trkpt>
      <trkpt lat="43.10981" lon="-7.09981">
        <ele>869</ele>
        <time>2016-07-12T06:09:02Z</time>
      </trkpt>
      <trkpt lat="43.1098" lon="-7.09994">
        <ele>869</ele>
        <time>2016-07-12T06:09:09Z</time>
      </trkpt>
      <trkpt lat="43.10978" lon="-7.10007">
        <ele>868.6</ele>
        <time>2016-07-12T06:09:17Z</time>
      </trkpt>
      <trkpt lat="43.10976" lon="-7.1002">
        <ele>868.5</ele>
        <time>2016-07-12T06:09:25Z</time>
      </trkpt>
      <trkpt lat="43.10973" lon="-7.10032">
        <ele>868.4</ele>
        <time>2016-07-12T06:09:32Z</time>
      </trkpt>
      <trkpt lat="43.10972" lon="-7.10046">
        <ele>868.2</ele>
        <time>2016-07-12T06:09:41Z</time>
      </trkpt>
      <trkpt lat="43.10968" lon="-7.10059">
        <ele>868.1</ele>
        <time>2016-07-12T06:09:50Z</time>
      </trkpt>
      <trkpt lat="43.10962" lon="-7.1007">
        <ele>868.3</ele>
        <time>2016-07-12T06:09:56Z</time>
      </trkpt>
      <trkpt lat="43.10957" lon="-7.1008">
        <ele>868.5</ele>
        <time>2016-07-12T06:10:02Z</time>
      </trkpt>
      <trkpt lat="43.1095" lon="-7.1009">
        <ele>869.1</ele>
        <time>2016-07-12T06:10:10Z</time>
      </trkpt>
      <trkpt lat="43.10943" lon="-7.10098">
        <ele>869.5</ele>
        <time>2016-07-12T06:10:18Z</time>
      </trkpt>
      <trkpt lat="43.10935" lon="-7.10104">
        <ele>869.8</ele>
        <time>2016-07-12T06:10:28Z</time>
      </trkpt>
      <trkpt lat="43.10927" lon="-7.10111">
        <ele>870.5</ele>
        <time>2016-07-12T06:10:38Z</time>
      </trkpt>
      <trkpt lat="43.10919" lon="-7.10119">
        <ele>872.4</ele>
        <time>2016-07-12T06:10:51Z</time>
      </trkpt>
      <trkpt lat="43.10924" lon="-7.10129">
        <ele>874.4</ele>
        <time>2016-07-12T06:11:09Z</time>
      </trkpt>
      <trkpt lat="43.10934" lon="-7.10129">
        <ele>875.6</ele>
        <time>2016-07-12T06:11:26Z</time>
      </trkpt>
      <trkpt lat="43.10941" lon="-7.10138">
        <ele>877.3</ele>
        <time>2016-07-12T06:11:38Z</time>
      </trkpt>
      <trkpt lat="43.10946" lon="-7.10149">
        <ele>879.1</ele>
        <time>2016-07-12T06:11:48Z</time>
      </trkpt>
      <trkpt lat="43.10949" lon="-7.10161">
        <ele>880.4</ele>
        <time>2016-07-12T06:12:00Z</time>
      </trkpt>
      <trkpt lat="43.10952" lon="-7.10174">
        <ele>881.4</ele>
        <time>2016-07-12T06:12:10Z</time>
      </trkpt>
      <trkpt lat="43.10953" lon="-7.10187">
        <ele>882.5</ele>
        <time>2016-07-12T06:12:20Z</time>
      </trkpt>
      <trkpt lat="43.10955" lon="-7.102">
        <ele>883.3</ele>
        <time>2016-07-12T06:12:31Z</time>
      </trkpt>
      <trkpt lat="43.10957" lon="-7.10212">
        <ele>884.5</ele>
        <time>2016-07-12T06:12:42Z</time>
      </trkpt>
      <trkpt lat="43.10959" lon="-7.10224">
        <ele>886</ele>
        <time>2016-07-12T06:12:53Z</time>
      </trkpt>
      <trkpt lat="43.10962" lon="-7.10236">
        <ele>887.2</ele>
        <time>2016-07-12T06:13:04Z</time>
      </trkpt>
      <trkpt lat="43.10967" lon="-7.10248">
        <ele>888.5</ele>
        <time>2016-07-12T06:13:15Z</time>
      </trkpt>
      <trkpt lat="43.10972" lon="-7.1026">
        <ele>890.1</ele>
        <time>2016-07-12T06:13:25Z</time>
      </trkpt>
      <trkpt lat="43.10975" lon="-7.10272">
        <ele>891.4</ele>
        <time>2016-07-12T06:13:37Z</time>
      </trkpt>
      <trkpt lat="43.10977" lon="-7.10285">
        <ele>892</ele>
        <time>2016-07-12T06:13:47Z</time>
      </trkpt>
      <trkpt lat="43.1098" lon="-7.10298">
        <ele>893.5</ele>
        <time>2016-07-12T06:13:59Z</time>
      </trkpt>
      <trkpt lat="43.1098" lon="-7.10311">
        <ele>894.5</ele>
        <time>2016-07-12T06:14:10Z</time>
      </trkpt>
      <trkpt lat="43.10978" lon="-7.10323">
        <ele>896</ele>
        <time>2016-07-12T06:14:21Z</time>
      </trkpt>
      <trkpt lat="43.10976" lon="-7.10336">
        <ele>896.9</ele>
        <time>2016-07-12T06:14:31Z</time>
      </trkpt>
      <trkpt lat="43.10972" lon="-7.10348">
        <ele>897.9</ele>
        <time>2016-07-12T06:14:40Z</time>
      </trkpt>
      <trkpt lat="43.10968" lon="-7.1036">
        <ele>898.7</ele>
        <time>2016-07-12T06:14:49Z</time>
      </trkpt>
      <trkpt lat="43.10965" lon="-7.10372">
        <ele>899.6</ele>
        <time>2016-07-12T06:14:58Z</time>
      </trkpt>
      <trkpt lat="43.10961" lon="-7.10384">
        <ele>900</ele>
        <time>2016-07-12T06:15:07Z</time>
      </trkpt>
      <trkpt lat="43.10956" lon="-7.10396">
        <ele>901</ele>
        <time>2016-07-12T06:15:17Z</time>
      </trkpt>
      <trkpt lat="43.10949" lon="-7.10403">
        <ele>901.7</ele>
        <time>2016-07-12T06:15:27Z</time>
      </trkpt>
      <trkpt lat="43.10939" lon="-7.10409">
        <ele>902.6</ele>
        <time>2016-07-12T06:15:37Z</time>
      </trkpt>
      <trkpt lat="43.10934" lon="-7.10419">
        <ele>903</ele>
        <time>2016-07-12T06:15:46Z</time>
      </trkpt>
      <trkpt lat="43.1093" lon="-7.10431">
        <ele>903.5</ele>
        <time>2016-07-12T06:15:55Z</time>
      </trkpt>
      <trkpt lat="43.10925" lon="-7.10442">
        <ele>903.9</ele>
        <time>2016-07-12T06:16:03Z</time>
      </trkpt>
      <trkpt lat="43.10922" lon="-7.10453">
        <ele>904.4</ele>
        <time>2016-07-12T06:16:12Z</time>
      </trkpt>
      <trkpt lat="43.10918" lon="-7.10465">
        <ele>905.4</ele>
        <time>2016-07-12T06:16:22Z</time>
      </trkpt>
      <trkpt lat="43.10916" lon="-7.10477">
        <ele>906.7</ele>
        <time>2016-07-12T06:16:32Z</time>
      </trkpt>
      <trkpt lat="43.10915" lon="-7.1049">
        <ele>907.8</ele>
        <time>2016-07-12T06:16:42Z</time>
      </trkpt>
      <trkpt lat="43.10914" lon="-7.10503">
        <ele>909</ele>
        <time>2016-07-12T06:16:53Z</time>
      </trkpt>
      <trkpt lat="43.10913" lon="-7.10515">
        <ele>910.3</ele>
        <time>2016-07-12T06:17:04Z</time>
      </trkpt>
      <trkpt lat="43.10911" lon="-7.10527">
        <ele>911.5</ele>
        <time>2016-07-12T06:17:14Z</time>
      </trkpt>
      <trkpt lat="43.10907" lon="-7.1054">
        <ele>912.8</ele>
        <time>2016-07-12T06:17:24Z</time>
      </trkpt>
      <trkpt lat="43.10903" lon="-7.10551">
        <ele>913.5</ele>
        <time>2016-07-12T06:17:33Z</time>
      </trkpt>
      <trkpt lat="43.10899" lon="-7.10563">
        <ele>914.2</ele>
        <time>2016-07-12T06:17:42Z</time>
      </trkpt>
      <trkpt lat="43.10896" lon="-7.10575">
        <ele>914.6</ele>
        <time>2016-07-12T06:17:52Z</time>
      </trkpt>
      <trkpt lat="43.10891" lon="-7.10585">
        <ele>915.3</ele>
        <time>2016-07-12T06:18:03Z</time>
      </trkpt>
      <trkpt lat="43.10889" lon="-7.10597">
        <ele>916.2</ele>
        <time>2016-07-12T06:18:24Z</time>
      </trkpt>
      <trkpt lat="43.1089" lon="-7.1061">
        <ele>916.6</ele>
        <time>2016-07-12T06:18:39Z</time>
      </trkpt>
      <trkpt lat="43.10886" lon="-7.10622">
        <ele>916.1</ele>
        <time>2016-07-12T06:18:47Z</time>
      </trkpt>
      <trkpt lat="43.10882" lon="-7.10633">
        <ele>916</ele>
        <time>2016-07-12T06:18:54Z</time>
      </trkpt>
      <trkpt lat="43.10877" lon="-7.10644">
        <ele>916.6</ele>
        <time>2016-07-12T06:19:01Z</time>
      </trkpt>
      <trkpt lat="43.10873" lon="-7.10655">
        <ele>916.8</ele>
        <time>2016-07-12T06:19:09Z</time>
      </trkpt>
      <trkpt lat="43.10867" lon="-7.10666">
        <ele>917</ele>
        <time>2016-07-12T06:19:16Z</time>
      </trkpt>
      <trkpt lat="43.10863" lon="-7.10678">
        <ele>917</ele>
        <time>2016-07-12T06:19:24Z</time>
      </trkpt>
      <trkpt lat="43.10858" lon="-7.1069">
        <ele>917.2</ele>
        <time>2016-07-12T06:19:32Z</time>
      </trkpt>
      <trkpt lat="43.10853" lon="-7.107">
        <ele>917.5</ele>
        <time>2016-07-12T06:19:39Z</time>
      </trkpt>
      <trkpt lat="43.10849" lon="-7.10712">
        <ele>917.9</ele>
        <time>2016-07-12T06:19:48Z</time>
      </trkpt>
      <trkpt lat="43.1085" lon="-7.10725">
        <ele>918.2</ele>
        <time>2016-07-12T06:19:59Z</time>
      </trkpt>
      <trkpt lat="43.10845" lon="-7.10735">
        <ele>919.6</ele>
        <time>2016-07-12T06:21:52Z</time>
      </trkpt>
      <trkpt lat="43.10843" lon="-7.10747">
        <ele>918.9</ele>
        <time>2016-07-12T06:26:52Z</time>
      </trkpt>
      <trkpt lat="43.10841" lon="-7.10761">
        <ele>919</ele>
        <time>2016-07-12T06:27:02Z</time>
      </trkpt>
      <trkpt lat="43.10839" lon="-7.10774">
        <ele>919.3</ele>
        <time>2016-07-12T06:27:12Z</time>
      </trkpt>
      <trkpt lat="43.10837" lon="-7.10786">
        <ele>920.1</ele>
        <time>2016-07-12T06:27:20Z</time>
      </trkpt>
      <trkpt lat="43.10834" lon="-7.10799">
        <ele>920.7</ele>
        <time>2016-07-12T06:27:29Z</time>
      </trkpt>
      <trkpt lat="43.10832" lon="-7.10811">
        <ele>920.8</ele>
        <time>2016-07-12T06:27:37Z</time>
      </trkpt>
      <trkpt lat="43.10829" lon="-7.10823">
        <ele>920.8</ele>
        <time>2016-07-12T06:27:46Z</time>
      </trkpt>
      <trkpt lat="43.10825" lon="-7.10835">
        <ele>921.3</ele>
        <time>2016-07-12T06:27:55Z</time>
      </trkpt>
      <trkpt lat="43.10821" lon="-7.10847">
        <ele>921.8</ele>
        <time>2016-07-12T06:28:03Z</time>
      </trkpt>
      <trkpt lat="43.10819" lon="-7.10859">
        <ele>922.4</ele>
        <time>2016-07-12T06:28:12Z</time>
      </trkpt>
      <trkpt lat="43.10814" lon="-7.1087">
        <ele>923</ele>
        <time>2016-07-12T06:28:23Z</time>
      </trkpt>
      <trkpt lat="43.1081" lon="-7.10882">
        <ele>923.4</ele>
        <time>2016-07-12T06:28:32Z</time>
      </trkpt>
      <trkpt lat="43.10807" lon="-7.10894">
        <ele>923.7</ele>
        <time>2016-07-12T06:28:40Z</time>
      </trkpt>
      <trkpt lat="43.10803" lon="-7.10905">
        <ele>924.1</ele>
        <time>2016-07-12T06:28:49Z</time>
      </trkpt>
      <trkpt lat="43.10801" lon="-7.10918">
        <ele>924.7</ele>
        <time>2016-07-12T06:28:59Z</time>
      </trkpt>
      <trkpt lat="43.10798" lon="-7.10929">
        <ele>925.2</ele>
        <time>2016-07-12T06:29:08Z</time>
      </trkpt>
      <trkpt lat="43.10794" lon="-7.10941">
        <ele>925.8</ele>
        <time>2016-07-12T06:29:17Z</time>
      </trkpt>
      <trkpt lat="43.10791" lon="-7.10953">
        <ele>926.6</ele>
        <time>2016-07-12T06:29:28Z</time>
      </trkpt>
      <trkpt lat="43.10787" lon="-7.10965">
        <ele>927.4</ele>
        <time>2016-07-12T06:29:36Z</time>
      </trkpt>
      <trkpt lat="43.10784" lon="-7.10977">
        <ele>927.9</ele>
        <time>2016-07-12T06:29:44Z</time>
      </trkpt>
      <trkpt lat="43.10779" lon="-7.10988">
        <ele>928.2</ele>
        <time>2016-07-12T06:29:53Z</time>
      </trkpt>
      <trkpt lat="43.10775" lon="-7.10999">
        <ele>929.2</ele>
        <time>2016-07-12T06:30:02Z</time>
      </trkpt>
      <trkpt lat="43.10771" lon="-7.11011">
        <ele>930.3</ele>
        <time>2016-07-12T06:30:13Z</time>
      </trkpt>
      <trkpt lat="43.10767" lon="-7.11023">
        <ele>931.6</ele>
        <time>2016-07-12T06:30:25Z</time>
      </trkpt>
      <trkpt lat="43.10763" lon="-7.11035">
        <ele>932.6</ele>
        <time>2016-07-12T06:30:34Z</time>
      </trkpt>
      <trkpt lat="43.10761" lon="-7.11047">
        <ele>933.1</ele>
        <time>2016-07-12T06:30:43Z</time>
      </trkpt>
      <trkpt lat="43.10758" lon="-7.1106">
        <ele>933.7</ele>
        <time>2016-07-12T06:30:54Z</time>
      </trkpt>
      <trkpt lat="43.10756" lon="-7.11072">
        <ele>934.9</ele>
        <time>2016-07-12T06:31:04Z</time>
      </trkpt>
      <trkpt lat="43.10753" lon="-7.11085">
        <ele>935.8</ele>
        <time>2016-07-12T06:31:14Z</time>
      </trkpt>
      <trkpt lat="43.1075" lon="-7.11097">
        <ele>936.7</ele>
        <time>2016-07-12T06:31:26Z</time>
      </trkpt>
      <trkpt lat="43.10745" lon="-7.11108">
        <ele>938</ele>
        <time>2016-07-12T06:31:37Z</time>
      </trkpt>
      <trkpt lat="43.10741" lon="-7.1112">
        <ele>939.6</ele>
        <time>2016-07-12T06:31:49Z</time>
      </trkpt>
      <trkpt lat="43.10737" lon="-7.11131">
        <ele>940.7</ele>
        <time>2016-07-12T06:32:01Z</time>
      </trkpt>
      <trkpt lat="43.10731" lon="-7.11142">
        <ele>942.6</ele>
        <time>2016-07-12T06:32:12Z</time>
      </trkpt>
      <trkpt lat="43.10728" lon="-7.11155">
        <ele>944.3</ele>
        <time>2016-07-12T06:32:24Z</time>
      </trkpt>
      <trkpt lat="43.10724" lon="-7.11166">
        <ele>946.7</ele>
        <time>2016-07-12T06:32:36Z</time>
      </trkpt>
      <trkpt lat="43.10719" lon="-7.11177">
        <ele>948.5</ele>
        <time>2016-07-12T06:32:48Z</time>
      </trkpt>
      <trkpt lat="43.10715" lon="-7.11189">
        <ele>949.7</ele>
        <time>2016-07-12T06:33:01Z</time>
      </trkpt>
      <trkpt lat="43.10711" lon="-7.11201">
        <ele>951.2</ele>
        <time>2016-07-12T06:33:14Z</time>
      </trkpt>
      <trkpt lat="43.10707" lon="-7.11212">
        <ele>952.6</ele>
        <time>2016-07-12T06:33:26Z</time>
      </trkpt>
      <trkpt lat="43.10701" lon="-7.11221">
        <ele>955.7</ele>
        <time>2016-07-12T06:34:01Z</time>
      </trkpt>
      <trkpt lat="43.10695" lon="-7.11232">
        <ele>957.5</ele>
        <time>2016-07-12T06:34:18Z</time>
      </trkpt>
      <trkpt lat="43.10692" lon="-7.11244">
        <ele>959.1</ele>
        <time>2016-07-12T06:34:31Z</time>
      </trkpt>
      <trkpt lat="43.10686" lon="-7.11255">
        <ele>960.9</ele>
        <time>2016-07-12T06:34:42Z</time>
      </trkpt>
      <trkpt lat="43.10684" lon="-7.11267">
        <ele>962.3</ele>
        <time>2016-07-12T06:34:53Z</time>
      </trkpt>
      <trkpt lat="43.10681" lon="-7.1128">
        <ele>963.9</ele>
        <time>2016-07-12T06:35:05Z</time>
      </trkpt>
      <trkpt lat="43.10678" lon="-7.11291">
        <ele>965.6</ele>
        <time>2016-07-12T06:35:17Z</time>
      </trkpt>
      <trkpt lat="43.10675" lon="-7.11303">
        <ele>966.5</ele>
        <time>2016-07-12T06:35:28Z</time>
      </trkpt>
      <trkpt lat="43.10671" lon="-7.11316">
        <ele>967.3</ele>
        <time>2016-07-12T06:35:37Z</time>
      </trkpt>
      <trkpt lat="43.10663" lon="-7.11321">
        <ele>968.2</ele>
        <time>2016-07-12T06:36:13Z</time>
      </trkpt>
      <trkpt lat="43.10661" lon="-7.11334">
        <ele>969.3</ele>
        <time>2016-07-12T06:37:12Z</time>
      </trkpt>
      <trkpt lat="43.10658" lon="-7.11346">
        <ele>969.4</ele>
        <time>2016-07-12T06:37:21Z</time>
      </trkpt>
      <trkpt lat="43.10652" lon="-7.11358">
        <ele>969.4</ele>
        <time>2016-07-12T06:37:30Z</time>
      </trkpt>
      <trkpt lat="43.10648" lon="-7.11368">
        <ele>969.3</ele>
        <time>2016-07-12T06:37:37Z</time>
      </trkpt>
      <trkpt lat="43.10644" lon="-7.11382">
        <ele>969.4</ele>
        <time>2016-07-12T06:37:45Z</time>
      </trkpt>
      <trkpt lat="43.10642" lon="-7.11394">
        <ele>969.4</ele>
        <time>2016-07-12T06:37:52Z</time>
      </trkpt>
      <trkpt lat="43.1064" lon="-7.11406">
        <ele>969.5</ele>
        <time>2016-07-12T06:37:59Z</time>
      </trkpt>
      <trkpt lat="43.10639" lon="-7.11419">
        <ele>969.5</ele>
        <time>2016-07-12T06:38:07Z</time>
      </trkpt>
      <trkpt lat="43.10637" lon="-7.11433">
        <ele>969.8</ele>
        <time>2016-07-12T06:38:16Z</time>
      </trkpt>
      <trkpt lat="43.10635" lon="-7.11445">
        <ele>969.9</ele>
        <time>2016-07-12T06:38:24Z</time>
      </trkpt>
      <trkpt lat="43.10634" lon="-7.11458">
        <ele>970</ele>
        <time>2016-07-12T06:38:33Z</time>
      </trkpt>
      <trkpt lat="43.10632" lon="-7.11472">
        <ele>970.4</ele>
        <time>2016-07-12T06:38:42Z</time>
      </trkpt>
      <trkpt lat="43.10631" lon="-7.11484">
        <ele>970.7</ele>
        <time>2016-07-12T06:38:51Z</time>
      </trkpt>
      <trkpt lat="43.1063" lon="-7.11497">
        <ele>970.7</ele>
        <time>2016-07-12T06:38:59Z</time>
      </trkpt>
      <trkpt lat="43.10629" lon="-7.1151">
        <ele>970.6</ele>
        <time>2016-07-12T06:39:06Z</time>
      </trkpt>
      <trkpt lat="43.10626" lon="-7.11523">
        <ele>970.6</ele>
        <time>2016-07-12T06:39:14Z</time>
      </trkpt>
      <trkpt lat="43.10624" lon="-7.11536">
        <ele>970.6</ele>
        <time>2016-07-12T06:39:22Z</time>
      </trkpt>
      <trkpt lat="43.10623" lon="-7.11549">
        <ele>970.6</ele>
        <time>2016-07-12T06:39:29Z</time>
      </trkpt>
      <trkpt lat="43.10621" lon="-7.11563">
        <ele>970.6</ele>
        <time>2016-07-12T06:39:37Z</time>
      </trkpt>
      <trkpt lat="43.10618" lon="-7.11575">
        <ele>970.6</ele>
        <time>2016-07-12T06:39:44Z</time>
      </trkpt>
      <trkpt lat="43.10618" lon="-7.11588">
        <ele>970.5</ele>
        <time>2016-07-12T06:39:51Z</time>
      </trkpt>
      <trkpt lat="43.10616" lon="-7.11601">
        <ele>970.1</ele>
        <time>2016-07-12T06:39:59Z</time>
      </trkpt>
      <trkpt lat="43.10613" lon="-7.11614">
        <ele>969.6</ele>
        <time>2016-07-12T06:40:07Z</time>
      </trkpt>
      <trkpt lat="43.10609" lon="-7.11626">
        <ele>968.8</ele>
        <time>2016-07-12T06:40:14Z</time>
      </trkpt>
      <trkpt lat="43.10605" lon="-7.11637">
        <ele>968.1</ele>
        <time>2016-07-12T06:40:21Z</time>
      </trkpt>
      <trkpt lat="43.10601" lon="-7.1165">
        <ele>967.5</ele>
        <time>2016-07-12T06:40:29Z</time>
      </trkpt>
      <trkpt lat="43.10598" lon="-7.11662">
        <ele>967.1</ele>
        <time>2016-07-12T06:40:36Z</time>
      </trkpt>
      <trkpt lat="43.10594" lon="-7.11675">
        <ele>966.6</ele>
        <time>2016-07-12T06:40:43Z</time>
      </trkpt>
      <trkpt lat="43.1059" lon="-7.11688">
        <ele>966.2</ele>
        <time>2016-07-12T06:40:49Z</time>
      </trkpt>
      <trkpt lat="43.10587" lon="-7.117">
        <ele>965.8</ele>
        <time>2016-07-12T06:40:55Z</time>
      </trkpt>
      <trkpt lat="43.10584" lon="-7.11712">
        <ele>965.3</ele>
        <time>2016-07-12T06:41:02Z</time>
      </trkpt>
      <trkpt lat="43.10583" lon="-7.11725">
        <ele>964.9</ele>
        <time>2016-07-12T06:41:10Z</time>
      </trkpt>
      <trkpt lat="43.10579" lon="-7.11737">
        <ele>964.5</ele>
        <time>2016-07-12T06:41:17Z</time>
      </trkpt>
      <trkpt lat="43.10574" lon="-7.11749">
        <ele>964.1</ele>
        <time>2016-07-12T06:41:25Z</time>
      </trkpt>
      <trkpt lat="43.10569" lon="-7.1176">
        <ele>963.6</ele>
        <time>2016-07-12T06:41:32Z</time>
      </trkpt>
      <trkpt lat="43.10564" lon="-7.11771">
        <ele>962.6</ele>
        <time>2016-07-12T06:41:40Z</time>
      </trkpt>
      <trkpt lat="43.10559" lon="-7.11783">
        <ele>961.8</ele>
        <time>2016-07-12T06:41:48Z</time>
      </trkpt>
      <trkpt lat="43.10554" lon="-7.11795">
        <ele>960.9</ele>
        <time>2016-07-12T06:41:55Z</time>
      </trkpt>
      <trkpt lat="43.1055" lon="-7.11806">
        <ele>960.4</ele>
        <time>2016-07-12T06:42:02Z</time>
      </trkpt>
      <trkpt lat="43.10546" lon="-7.11819">
        <ele>959.9</ele>
        <time>2016-07-12T06:42:10Z</time>
      </trkpt>
      <trkpt lat="43.10542" lon="-7.1183">
        <ele>959.5</ele>
        <time>2016-07-12T06:42:17Z</time>
      </trkpt>
      <trkpt lat="43.10537" lon="-7.11842">
        <ele>959.1</ele>
        <time>2016-07-12T06:42:25Z</time>
      </trkpt>
      <trkpt lat="43.10532" lon="-7.11853">
        <ele>958.5</ele>
        <time>2016-07-12T06:42:32Z</time>
      </trkpt>
      <trkpt lat="43.10528" lon="-7.11865">
        <ele>957.4</ele>
        <time>2016-07-12T06:42:40Z</time>
      </trkpt>
      <trkpt lat="43.10523" lon="-7.11876">
        <ele>955.8</ele>
        <time>2016-07-12T06:42:50Z</time>
      </trkpt>
      <trkpt lat="43.10518" lon="-7.11888">
        <ele>954.9</ele>
        <time>2016-07-12T06:42:59Z</time>
      </trkpt>
      <trkpt lat="43.10513" lon="-7.11899">
        <ele>954.5</ele>
        <time>2016-07-12T06:43:07Z</time>
      </trkpt>
      <trkpt lat="43.10509" lon="-7.11911">
        <ele>954.1</ele>
        <time>2016-07-12T06:43:15Z</time>
      </trkpt>
      <trkpt lat="43.10504" lon="-7.11922">
        <ele>953.5</ele>
        <time>2016-07-12T06:43:23Z</time>
      </trkpt>
      <trkpt lat="43.10499" lon="-7.11934">
        <ele>953.1</ele>
        <time>2016-07-12T06:43:31Z</time>
      </trkpt>
      <trkpt lat="43.10496" lon="-7.11947">
        <ele>952.6</ele>
        <time>2016-07-12T06:43:40Z</time>
      </trkpt>
      <trkpt lat="43.10491" lon="-7.11958">
        <ele>952.4</ele>
        <time>2016-07-12T06:43:48Z</time>
      </trkpt>
      <trkpt lat="43.10486" lon="-7.1197">
        <ele>952.3</ele>
        <time>2016-07-12T06:43:56Z</time>
      </trkpt>
      <trkpt lat="43.10481" lon="-7.11981">
        <ele>952</ele>
        <time>2016-07-12T06:44:04Z</time>
      </trkpt>
      <trkpt lat="43.10476" lon="-7.11992">
        <ele>952</ele>
        <time>2016-07-12T06:44:12Z</time>
      </trkpt>
      <trkpt lat="43.10472" lon="-7.12005">
        <ele>952</ele>
        <time>2016-07-12T06:44:24Z</time>
      </trkpt>
      <trkpt lat="43.10468" lon="-7.12016">
        <ele>951.9</ele>
        <time>2016-07-12T06:44:32Z</time>
      </trkpt>
      <trkpt lat="43.10464" lon="-7.12028">
        <ele>951.8</ele>
        <time>2016-07-12T06:44:40Z</time>
      </trkpt>
      <trkpt lat="43.1046" lon="-7.1204">
        <ele>951.8</ele>
        <time>2016-07-12T06:44:48Z</time>
      </trkpt>
      <trkpt lat="43.10457" lon="-7.12053">
        <ele>951.9</ele>
        <time>2016-07-12T06:44:56Z</time>
      </trkpt>
      <trkpt lat="43.10453" lon="-7.12064">
        <ele>951.9</ele>
        <time>2016-07-12T06:45:04Z</time>
      </trkpt>
      <trkpt lat="43.10449" lon="-7.12076">
        <ele>951.9</ele>
        <time>2016-07-12T06:45:11Z</time>
      </trkpt>
      <trkpt lat="43.10446" lon="-7.12088">
        <ele>952.1</ele>
        <time>2016-07-12T06:45:19Z</time>
      </trkpt>
      <trkpt lat="43.10441" lon="-7.12099">
        <ele>952.3</ele>
        <time>2016-07-12T06:45:27Z</time>
      </trkpt>
      <trkpt lat="43.10433" lon="-7.12108">
        <ele>952.4</ele>
        <time>2016-07-12T06:45:35Z</time>
      </trkpt>
      <trkpt lat="43.10426" lon="-7.12117">
        <ele>952.2</ele>
        <time>2016-07-12T06:45:43Z</time>
      </trkpt>
      <trkpt lat="43.1042" lon="-7.12127">
        <ele>952.1</ele>
        <time>2016-07-12T06:45:51Z</time>
      </trkpt>
      <trkpt lat="43.10413" lon="-7.12136">
        <ele>951.8</ele>
        <time>2016-07-12T06:45:59Z</time>
      </trkpt>
      <trkpt lat="43.10408" lon="-7.12148">
        <ele>951.2</ele>
        <time>2016-07-12T06:46:07Z</time>
      </trkpt>
      <trkpt lat="43.10403" lon="-7.12159">
        <ele>950.3</ele>
        <time>2016-07-12T06:46:15Z</time>
      </trkpt>
      <trkpt lat="43.10398" lon="-7.1217">
        <ele>949.8</ele>
        <time>2016-07-12T06:46:23Z</time>
      </trkpt>
      <trkpt lat="43.10393" lon="-7.12181">
        <ele>949.1</ele>
        <time>2016-07-12T06:46:31Z</time>
      </trkpt>
      <trkpt lat="43.1039" lon="-7.12193">
        <ele>948.3</ele>
        <time>2016-07-12T06:46:39Z</time>
      </trkpt>
      <trkpt lat="43.10386" lon="-7.12204">
        <ele>947.8</ele>
        <time>2016-07-12T06:46:47Z</time>
      </trkpt>
      <trkpt lat="43.10381" lon="-7.12216">
        <ele>947.5</ele>
        <time>2016-07-12T06:46:55Z</time>
      </trkpt>
      <trkpt lat="43.10376" lon="-7.12227">
        <ele>947.2</ele>
        <time>2016-07-12T06:47:04Z</time>
      </trkpt>
      <trkpt lat="43.10369" lon="-7.12235">
        <ele>946.8</ele>
        <time>2016-07-12T06:47:12Z</time>
      </trkpt>
      <trkpt lat="43.10362" lon="-7.12245">
        <ele>946.9</ele>
        <time>2016-07-12T06:47:21Z</time>
      </trkpt>
      <trkpt lat="43.10354" lon="-7.12253">
        <ele>946.6</ele>
        <time>2016-07-12T06:47:32Z</time>
      </trkpt>
      <trkpt lat="43.10348" lon="-7.12262">
        <ele>946.4</ele>
        <time>2016-07-12T06:47:41Z</time>
      </trkpt>
      <trkpt lat="43.10342" lon="-7.12273">
        <ele>946.3</ele>
        <time>2016-07-12T06:47:50Z</time>
      </trkpt>
      <trkpt lat="43.10335" lon="-7.12283">
        <ele>946.3</ele>
        <time>2016-07-12T06:47:57Z</time>
      </trkpt>
      <trkpt lat="43.10328" lon="-7.12292">
        <ele>946.3</ele>
        <time>2016-07-12T06:48:04Z</time>
      </trkpt>
      <trkpt lat="43.10322" lon="-7.12302">
        <ele>945.6</ele>
        <time>2016-07-12T06:48:12Z</time>
      </trkpt>
      <trkpt lat="43.10315" lon="-7.12309">
        <ele>945.3</ele>
        <time>2016-07-12T06:48:21Z</time>
      </trkpt>
      <trkpt lat="43.10308" lon="-7.12319">
        <ele>944.9</ele>
        <time>2016-07-12T06:48:30Z</time>
      </trkpt>
      <trkpt lat="43.10301" lon="-7.1233">
        <ele>944.6</ele>
        <time>2016-07-12T06:48:40Z</time>
      </trkpt>
      <trkpt lat="43.10296" lon="-7.12342">
        <ele>944.2</ele>
        <time>2016-07-12T06:48:48Z</time>
      </trkpt>
      <trkpt lat="43.10293" lon="-7.12353">
        <ele>943.9</ele>
        <time>2016-07-12T06:48:56Z</time>
      </trkpt>
      <trkpt lat="43.10288" lon="-7.12364">
        <ele>943.4</ele>
        <time>2016-07-12T06:49:05Z</time>
      </trkpt>
      <trkpt lat="43.10281" lon="-7.12373">
        <ele>943.1</ele>
        <time>2016-07-12T06:49:13Z</time>
      </trkpt>
      <trkpt lat="43.10278" lon="-7.12385">
        <ele>942.8</ele>
        <time>2016-07-12T06:49:22Z</time>
      </trkpt>
      <trkpt lat="43.10273" lon="-7.12396">
        <ele>942.8</ele>
        <time>2016-07-12T06:49:30Z</time>
      </trkpt>
      <trkpt lat="43.10269" lon="-7.12407">
        <ele>943</ele>
        <time>2016-07-12T06:49:38Z</time>
      </trkpt>
      <trkpt lat="43.10266" lon="-7.12419">
        <ele>943.1</ele>
        <time>2016-07-12T06:49:46Z</time>
      </trkpt>
      <trkpt lat="43.10264" lon="-7.12431">
        <ele>943.8</ele>
        <time>2016-07-12T06:49:56Z</time>
      </trkpt>
      <trkpt lat="43.10259" lon="-7.12442">
        <ele>945.2</ele>
        <time>2016-07-12T06:50:06Z</time>
      </trkpt>
      <trkpt lat="43.10255" lon="-7.12454">
        <ele>946.3</ele>
        <time>2016-07-12T06:50:16Z</time>
      </trkpt>
      <trkpt lat="43.10251" lon="-7.12467">
        <ele>947.6</ele>
        <time>2016-07-12T06:50:26Z</time>
      </trkpt>
      <trkpt lat="43.10249" lon="-7.1248">
        <ele>949.2</ele>
        <time>2016-07-12T06:50:36Z</time>
      </trkpt>
      <trkpt lat="43.10246" lon="-7.12492">
        <ele>950.6</ele>
        <time>2016-07-12T06:50:46Z</time>
      </trkpt>
      <trkpt lat="43.10244" lon="-7.12505">
        <ele>952.3</ele>
        <time>2016-07-12T06:50:57Z</time>
      </trkpt>
      <trkpt lat="43.10243" lon="-7.12517">
        <ele>954</ele>
        <time>2016-07-12T06:51:08Z</time>
      </trkpt>
      <trkpt lat="43.10238" lon="-7.12527">
        <ele>956.2</ele>
        <time>2016-07-12T06:51:23Z</time>
      </trkpt>
      <trkpt lat="43.1023" lon="-7.12535">
        <ele>959.3</ele>
        <time>2016-07-12T06:52:24Z</time>
      </trkpt>
      <trkpt lat="43.10225" lon="-7.12546">
        <ele>959.3</ele>
        <time>2016-07-12T06:52:34Z</time>
      </trkpt>
      <trkpt lat="43.10219" lon="-7.12556">
        <ele>960.1</ele>
        <time>2016-07-12T06:52:44Z</time>
      </trkpt>
      <trkpt lat="43.10212" lon="-7.12564">
        <ele>961.1</ele>
        <time>2016-07-12T06:52:54Z</time>
      </trkpt>
      <trkpt lat="43.10205" lon="-7.12573">
        <ele>962.1</ele>
        <time>2016-07-12T06:53:04Z</time>
      </trkpt>
      <trkpt lat="43.10199" lon="-7.12583">
        <ele>962.9</ele>
        <time>2016-07-12T06:53:14Z</time>
      </trkpt>
      <trkpt lat="43.10191" lon="-7.1259">
        <ele>964.4</ele>
        <time>2016-07-12T06:53:23Z</time>
      </trkpt>
      <trkpt lat="43.10183" lon="-7.12598">
        <ele>965.3</ele>
        <time>2016-07-12T06:53:32Z</time>
      </trkpt>
      <trkpt lat="43.10174" lon="-7.12603">
        <ele>965.1</ele>
        <time>2016-07-12T06:53:45Z</time>
      </trkpt>
      <trkpt lat="43.10165" lon="-7.12605">
        <ele>964.8</ele>
        <time>2016-07-12T06:53:54Z</time>
      </trkpt>
      <trkpt lat="43.10155" lon="-7.12606">
        <ele>964</ele>
        <time>2016-07-12T06:54:03Z</time>
      </trkpt>
      <trkpt lat="43.10146" lon="-7.12607">
        <ele>963</ele>
        <time>2016-07-12T06:54:11Z</time>
      </trkpt>
      <trkpt lat="43.10137" lon="-7.12604">
        <ele>961.6</ele>
        <time>2016-07-12T06:54:20Z</time>
      </trkpt>
      <trkpt lat="43.10128" lon="-7.12597">
        <ele>959.7</ele>
        <time>2016-07-12T06:54:29Z</time>
      </trkpt>
      <trkpt lat="43.1012" lon="-7.12588">
        <ele>958</ele>
        <time>2016-07-12T06:54:37Z</time>
      </trkpt>
      <trkpt lat="43.10112" lon="-7.12582">
        <ele>956.6</ele>
        <time>2016-07-12T06:54:45Z</time>
      </trkpt>
      <trkpt lat="43.10103" lon="-7.12579">
        <ele>955.8</ele>
        <time>2016-07-12T06:54:52Z</time>
      </trkpt>
      <trkpt lat="43.10093" lon="-7.12578">
        <ele>955</ele>
        <time>2016-07-12T06:55:00Z</time>
      </trkpt>
      <trkpt lat="43.10084" lon="-7.12575">
        <ele>953.9</ele>
        <time>2016-07-12T06:55:08Z</time>
      </trkpt>
      <trkpt lat="43.10075" lon="-7.12571">
        <ele>952.6</ele>
        <time>2016-07-12T06:55:16Z</time>
      </trkpt>
      <trkpt lat="43.10066" lon="-7.12571">
        <ele>951.4</ele>
        <time>2016-07-12T06:55:23Z</time>
      </trkpt>
      <trkpt lat="43.10057" lon="-7.12574">
        <ele>950.1</ele>
        <time>2016-07-12T06:55:30Z</time>
      </trkpt>
      <trkpt lat="43.10048" lon="-7.1258">
        <ele>949.2</ele>
        <time>2016-07-12T06:55:38Z</time>
      </trkpt>
      <trkpt lat="43.1004" lon="-7.12588">
        <ele>948.2</ele>
        <time>2016-07-12T06:55:46Z</time>
      </trkpt>
      <trkpt lat="43.10035" lon="-7.12599">
        <ele>947.5</ele>
        <time>2016-07-12T06:55:54Z</time>
      </trkpt>
      <trkpt lat="43.10037" lon="-7.12611">
        <ele>947.3</ele>
        <time>2016-07-12T06:56:03Z</time>
      </trkpt>
      <trkpt lat="43.1004" lon="-7.12623">
        <ele>947.2</ele>
        <time>2016-07-12T06:56:12Z</time>
      </trkpt>
      <trkpt lat="43.10044" lon="-7.12635">
        <ele>947.4</ele>
        <time>2016-07-12T06:56:21Z</time>
      </trkpt>
      <trkpt lat="43.10049" lon="-7.12646">
        <ele>947.5</ele>
        <time>2016-07-12T06:56:29Z</time>
      </trkpt>
      <trkpt lat="43.10055" lon="-7.12656">
        <ele>947.6</ele>
        <time>2016-07-12T06:56:37Z</time>
      </trkpt>
      <trkpt lat="43.10061" lon="-7.12667">
        <ele>947.6</ele>
        <time>2016-07-12T06:56:45Z</time>
      </trkpt>
      <trkpt lat="43.10067" lon="-7.12677">
        <ele>947.9</ele>
        <time>2016-07-12T06:56:53Z</time>
      </trkpt>
      <trkpt lat="43.10075" lon="-7.12685">
        <ele>947.8</ele>
        <time>2016-07-12T06:57:02Z</time>
      </trkpt>
      <trkpt lat="43.10082" lon="-7.12693">
        <ele>947.8</ele>
        <time>2016-07-12T06:57:10Z</time>
      </trkpt>
      <trkpt lat="43.10089" lon="-7.12701">
        <ele>947.9</ele>
        <time>2016-07-12T06:57:20Z</time>
      </trkpt>
      <trkpt lat="43.10096" lon="-7.1271">
        <ele>948.1</ele>
        <time>2016-07-12T06:57:30Z</time>
      </trkpt>
      <trkpt lat="43.10102" lon="-7.1272">
        <ele>948.3</ele>
        <time>2016-07-12T06:57:39Z</time>
      </trkpt>
      <trkpt lat="43.10109" lon="-7.12729">
        <ele>948.5</ele>
        <time>2016-07-12T06:57:47Z</time>
      </trkpt>
      <trkpt lat="43.10117" lon="-7.12738">
        <ele>948.6</ele>
        <time>2016-07-12T06:57:56Z</time>
      </trkpt>
      <trkpt lat="43.10124" lon="-7.12747">
        <ele>948.7</ele>
        <time>2016-07-12T06:58:05Z</time>
      </trkpt>
      <trkpt lat="43.10131" lon="-7.12757">
        <ele>948.5</ele>
        <time>2016-07-12T06:58:13Z</time>
      </trkpt>
      <trkpt lat="43.10139" lon="-7.12765">
        <ele>948.1</ele>
        <time>2016-07-12T06:58:20Z</time>
      </trkpt>
      <trkpt lat="43.10147" lon="-7.12772">
        <ele>947.9</ele>
        <time>2016-07-12T06:58:28Z</time>
      </trkpt>
      <trkpt lat="43.10155" lon="-7.12778">
        <ele>947.9</ele>
        <time>2016-07-12T06:58:37Z</time>
      </trkpt>
      <trkpt lat="43.10162" lon="-7.12785">
        <ele>947.8</ele>
        <time>2016-07-12T06:58:45Z</time>
      </trkpt>
      <trkpt lat="43.10169" lon="-7.12795">
        <ele>947.6</ele>
        <time>2016-07-12T06:58:53Z</time>
      </trkpt>
      <trkpt lat="43.10175" lon="-7.12804">
        <ele>947.2</ele>
        <time>2016-07-12T06:59:00Z</time>
      </trkpt>
      <trkpt lat="43.10182" lon="-7.12814">
        <ele>947</ele>
        <time>2016-07-12T06:59:07Z</time>
      </trkpt>
      <trkpt lat="43.10187" lon="-7.12826">
        <ele>947</ele>
        <time>2016-07-12T06:59:15Z</time>
      </trkpt>
      <trkpt lat="43.1019" lon="-7.12839">
        <ele>947</ele>
        <time>2016-07-12T06:59:23Z</time>
      </trkpt>
      <trkpt lat="43.10192" lon="-7.12851">
        <ele>947.5</ele>
        <time>2016-07-12T06:59:35Z</time>
      </trkpt>
      <trkpt lat="43.10196" lon="-7.12863">
        <ele>947.6</ele>
        <time>2016-07-12T06:59:45Z</time>
      </trkpt>
      <trkpt lat="43.10201" lon="-7.12873">
        <ele>947.7</ele>
        <time>2016-07-12T06:59:55Z</time>
      </trkpt>
      <trkpt lat="43.10205" lon="-7.12885">
        <ele>947.9</ele>
        <time>2016-07-12T07:00:06Z</time>
      </trkpt>
      <trkpt lat="43.10201" lon="-7.12897">
        <ele>948.7</ele>
        <time>2016-07-12T07:00:38Z</time>
      </trkpt>
      <trkpt lat="43.10202" lon="-7.1291">
        <ele>949.2</ele>
        <time>2016-07-12T07:01:03Z</time>
      </trkpt>
      <trkpt lat="43.10205" lon="-7.12921">
        <ele>949.5</ele>
        <time>2016-07-12T07:01:13Z</time>
      </trkpt>
      <trkpt lat="43.10208" lon="-7.12933">
        <ele>950.3</ele>
        <time>2016-07-12T07:01:24Z</time>
      </trkpt>
      <trkpt lat="43.10208" lon="-7.12946">
        <ele>951.4</ele>
        <time>2016-07-12T07:01:39Z</time>
      </trkpt>
      <trkpt lat="43.10208" lon="-7.12959">
        <ele>952.3</ele>
        <time>2016-07-12T07:01:51Z</time>
      </trkpt>
      <trkpt lat="43.102" lon="-7.12965">
        <ele>954</ele>
        <time>2016-07-12T07:02:03Z</time>
      </trkpt>
      <trkpt lat="43.10191" lon="-7.1296">
        <ele>955.8</ele>
        <time>2016-07-12T07:02:16Z</time>
      </trkpt>
      <trkpt lat="43.10183" lon="-7.12952">
        <ele>957.1</ele>
        <time>2016-07-12T07:02:25Z</time>
      </trkpt>
      <trkpt lat="43.10175" lon="-7.12946">
        <ele>958.9</ele>
        <time>2016-07-12T07:02:35Z</time>
      </trkpt>
      <trkpt lat="43.10166" lon="-7.1294">
        <ele>959.9</ele>
        <time>2016-07-12T07:02:45Z</time>
      </trkpt>
      <trkpt lat="43.10158" lon="-7.12934">
        <ele>961.1</ele>
        <time>2016-07-12T07:03:01Z</time>
      </trkpt>
      <trkpt lat="43.1015" lon="-7.12928">
        <ele>961.5</ele>
        <time>2016-07-12T07:03:11Z</time>
      </trkpt>
      <trkpt lat="43.10141" lon="-7.12925">
        <ele>962.3</ele>
        <time>2016-07-12T07:03:21Z</time>
      </trkpt>
      <trkpt lat="43.10131" lon="-7.12927">
        <ele>962.7</ele>
        <time>2016-07-12T07:03:31Z</time>
      </trkpt>
      <trkpt lat="43.10122" lon="-7.12929">
        <ele>963.1</ele>
        <time>2016-07-12T07:03:39Z</time>
      </trkpt>
      <trkpt lat="43.10113" lon="-7.12931">
        <ele>963.6</ele>
        <time>2016-07-12T07:03:50Z</time>
      </trkpt>
      <trkpt lat="43.10105" lon="-7.12937">
        <ele>964</ele>
        <time>2016-07-12T07:03:59Z</time>
      </trkpt>
      <trkpt lat="43.10097" lon="-7.12943">
        <ele>964.2</ele>
        <time>2016-07-12T07:04:08Z</time>
      </trkpt>
      <trkpt lat="43.10087" lon="-7.12945">
        <ele>964.3</ele>
        <time>2016-07-12T07:04:17Z</time>
      </trkpt>
      <trkpt lat="43.10078" lon="-7.12948">
        <ele>964.6</ele>
        <time>2016-07-12T07:04:27Z</time>
      </trkpt>
      <trkpt lat="43.10069" lon="-7.12951">
        <ele>965</ele>
        <time>2016-07-12T07:04:37Z</time>
      </trkpt>
      <trkpt lat="43.1006" lon="-7.12955">
        <ele>964.8</ele>
        <time>2016-07-12T07:04:46Z</time>
      </trkpt>
      <trkpt lat="43.10051" lon="-7.12959">
        <ele>964.8</ele>
        <time>2016-07-12T07:04:55Z</time>
      </trkpt>
      <trkpt lat="43.10042" lon="-7.12964">
        <ele>964.9</ele>
        <time>2016-07-12T07:05:03Z</time>
      </trkpt>
      <trkpt lat="43.10034" lon="-7.1297">
        <ele>965.1</ele>
        <time>2016-07-12T07:05:11Z</time>
      </trkpt>
      <trkpt lat="43.10026" lon="-7.12978">
        <ele>965.4</ele>
        <time>2016-07-12T07:05:21Z</time>
      </trkpt>
      <trkpt lat="43.10019" lon="-7.12986">
        <ele>966.4</ele>
        <time>2016-07-12T07:05:31Z</time>
      </trkpt>
      <trkpt lat="43.10012" lon="-7.12995">
        <ele>966.8</ele>
        <time>2016-07-12T07:05:42Z</time>
      </trkpt>
      <trkpt lat="43.10004" lon="-7.13001">
        <ele>967.3</ele>
        <time>2016-07-12T07:05:51Z</time>
      </trkpt>
      <trkpt lat="43.09996" lon="-7.13008">
        <ele>967.5</ele>
        <time>2016-07-12T07:05:59Z</time>
      </trkpt>
      <trkpt lat="43.09989" lon="-7.13016">
        <ele>967.8</ele>
        <time>2016-07-12T07:06:07Z</time>
      </trkpt>
      <trkpt lat="43.09982" lon="-7.13024">
        <ele>968.2</ele>
        <time>2016-07-12T07:06:16Z</time>
      </trkpt>
      <trkpt lat="43.09975" lon="-7.13033">
        <ele>968.8</ele>
        <time>2016-07-12T07:06:24Z</time>
      </trkpt>
      <trkpt lat="43.09966" lon="-7.13038">
        <ele>969.1</ele>
        <time>2016-07-12T07:06:32Z</time>
      </trkpt>
      <trkpt lat="43.09959" lon="-7.13048">
        <ele>969.6</ele>
        <time>2016-07-12T07:06:42Z</time>
      </trkpt>
      <trkpt lat="43.09951" lon="-7.13057">
        <ele>970.3</ele>
        <time>2016-07-12T07:06:51Z</time>
      </trkpt>
      <trkpt lat="43.09943" lon="-7.13064">
        <ele>970.5</ele>
        <time>2016-07-12T07:06:59Z</time>
      </trkpt>
      <trkpt lat="43.09936" lon="-7.13071">
        <ele>970.8</ele>
        <time>2016-07-12T07:07:07Z</time>
      </trkpt>
      <trkpt lat="43.09927" lon="-7.13077">
        <ele>971.1</ele>
        <time>2016-07-12T07:07:16Z</time>
      </trkpt>
      <trkpt lat="43.0992" lon="-7.13084">
        <ele>971.5</ele>
        <time>2016-07-12T07:07:25Z</time>
      </trkpt>
      <trkpt lat="43.09912" lon="-7.13092">
        <ele>971.9</ele>
        <time>2016-07-12T07:07:34Z</time>
      </trkpt>
      <trkpt lat="43.09906" lon="-7.13101">
        <ele>972.1</ele>
        <time>2016-07-12T07:07:42Z</time>
      </trkpt>
      <trkpt lat="43.099" lon="-7.13113">
        <ele>972.2</ele>
        <time>2016-07-12T07:07:51Z</time>
      </trkpt>
      <trkpt lat="43.09894" lon="-7.13123">
        <ele>972.4</ele>
        <time>2016-07-12T07:08:00Z</time>
      </trkpt>
      <trkpt lat="43.09889" lon="-7.13134">
        <ele>973.5</ele>
        <time>2016-07-12T07:08:09Z</time>
      </trkpt>
      <trkpt lat="43.09884" lon="-7.13145">
        <ele>974.2</ele>
        <time>2016-07-12T07:08:18Z</time>
      </trkpt>
      <trkpt lat="43.0988" lon="-7.13156">
        <ele>975</ele>
        <time>2016-07-12T07:08:27Z</time>
      </trkpt>
      <trkpt lat="43.09873" lon="-7.13165">
        <ele>975.8</ele>
        <time>2016-07-12T07:08:36Z</time>
      </trkpt>
      <trkpt lat="43.09867" lon="-7.13176">
        <ele>976.2</ele>
        <time>2016-07-12T07:08:46Z</time>
      </trkpt>
      <trkpt lat="43.0986" lon="-7.13185">
        <ele>977.1</ele>
        <time>2016-07-12T07:09:01Z</time>
      </trkpt>
      <trkpt lat="43.09855" lon="-7.13196">
        <ele>977.6</ele>
        <time>2016-07-12T07:09:11Z</time>
      </trkpt>
      <trkpt lat="43.09853" lon="-7.13208">
        <ele>978</ele>
        <time>2016-07-12T07:09:20Z</time>
      </trkpt>
      <trkpt lat="43.0985" lon="-7.1322">
        <ele>978.8</ele>
        <time>2016-07-12T07:09:29Z</time>
      </trkpt>
      <trkpt lat="43.09845" lon="-7.13232">
        <ele>979.4</ele>
        <time>2016-07-12T07:09:39Z</time>
      </trkpt>
      <trkpt lat="43.0984" lon="-7.13243">
        <ele>980.4</ele>
        <time>2016-07-12T07:09:50Z</time>
      </trkpt>
      <trkpt lat="43.09836" lon="-7.13254">
        <ele>981</ele>
        <time>2016-07-12T07:09:58Z</time>
      </trkpt>
      <trkpt lat="43.09833" lon="-7.13266">
        <ele>981.9</ele>
        <time>2016-07-12T07:10:09Z</time>
      </trkpt>
      <trkpt lat="43.09831" lon="-7.13279">
        <ele>983.1</ele>
        <time>2016-07-12T07:10:19Z</time>
      </trkpt>
      <trkpt lat="43.09826" lon="-7.1329">
        <ele>983.8</ele>
        <time>2016-07-12T07:10:29Z</time>
      </trkpt>
      <trkpt lat="43.0982" lon="-7.133">
        <ele>984.5</ele>
        <time>2016-07-12T07:10:37Z</time>
      </trkpt>
      <trkpt lat="43.09814" lon="-7.13309">
        <ele>985.4</ele>
        <time>2016-07-12T07:10:45Z</time>
      </trkpt>
      <trkpt lat="43.09808" lon="-7.13319">
        <ele>986</ele>
        <time>2016-07-12T07:10:53Z</time>
      </trkpt>
      <trkpt lat="43.09801" lon="-7.13328">
        <ele>986.7</ele>
        <time>2016-07-12T07:11:01Z</time>
      </trkpt>
      <trkpt lat="43.09793" lon="-7.13337">
        <ele>987.2</ele>
        <time>2016-07-12T07:11:09Z</time>
      </trkpt>
      <trkpt lat="43.09785" lon="-7.13345">
        <ele>987.7</ele>
        <time>2016-07-12T07:11:17Z</time>
      </trkpt>
      <trkpt lat="43.09776" lon="-7.13351">
        <ele>987.5</ele>
        <time>2016-07-12T07:11:25Z</time>
      </trkpt>
      <trkpt lat="43.09768" lon="-7.13358">
        <ele>987.4</ele>
        <time>2016-07-12T07:11:33Z</time>
      </trkpt>
      <trkpt lat="43.09762" lon="-7.13367">
        <ele>986.2</ele>
        <time>2016-07-12T07:11:42Z</time>
      </trkpt>
      <trkpt lat="43.09756" lon="-7.13377">
        <ele>984.8</ele>
        <time>2016-07-12T07:11:50Z</time>
      </trkpt>
      <trkpt lat="43.0975" lon="-7.13388">
        <ele>983.4</ele>
        <time>2016-07-12T07:11:58Z</time>
      </trkpt>
      <trkpt lat="43.09745" lon="-7.13398">
        <ele>983.1</ele>
        <time>2016-07-12T07:12:05Z</time>
      </trkpt>
      <trkpt lat="43.0974" lon="-7.1341">
        <ele>982.8</ele>
        <time>2016-07-12T07:12:13Z</time>
      </trkpt>
      <trkpt lat="43.09737" lon="-7.13422">
        <ele>982.5</ele>
        <time>2016-07-12T07:12:20Z</time>
      </trkpt>
      <trkpt lat="43.09734" lon="-7.13434">
        <ele>982.2</ele>
        <time>2016-07-12T07:12:28Z</time>
      </trkpt>
      <trkpt lat="43.0973" lon="-7.13446">
        <ele>981.8</ele>
        <time>2016-07-12T07:12:37Z</time>
      </trkpt>
      <trkpt lat="43.09729" lon="-7.13459">
        <ele>981.3</ele>
        <time>2016-07-12T07:12:47Z</time>
      </trkpt>
      <trkpt lat="43.09729" lon="-7.13472">
        <ele>981</ele>
        <time>2016-07-12T07:12:55Z</time>
      </trkpt>
      <trkpt lat="43.0973" lon="-7.13486">
        <ele>981</ele>
        <time>2016-07-12T07:13:03Z</time>
      </trkpt>
      <trkpt lat="43.09733" lon="-7.13498">
        <ele>980.8</ele>
        <time>2016-07-12T07:13:11Z</time>
      </trkpt>
      <trkpt lat="43.09738" lon="-7.1351">
        <ele>980.8</ele>
        <time>2016-07-12T07:13:19Z</time>
      </trkpt>
      <trkpt lat="43.09744" lon="-7.1352">
        <ele>980.9</ele>
        <time>2016-07-12T07:13:28Z</time>
      </trkpt>
      <trkpt lat="43.09752" lon="-7.13527">
        <ele>981.3</ele>
        <time>2016-07-12T07:13:37Z</time>
      </trkpt>
      <trkpt lat="43.09759" lon="-7.13536">
        <ele>981.7</ele>
        <time>2016-07-12T07:13:46Z</time>
      </trkpt>
      <trkpt lat="43.09766" lon="-7.13545">
        <ele>982</ele>
        <time>2016-07-12T07:13:55Z</time>
      </trkpt>
      <trkpt lat="43.09771" lon="-7.13555">
        <ele>982.2</ele>
        <time>2016-07-12T07:14:03Z</time>
      </trkpt>
      <trkpt lat="43.09777" lon="-7.13566">
        <ele>982.1</ele>
        <time>2016-07-12T07:14:10Z</time>
      </trkpt>
      <trkpt lat="43.09782" lon="-7.13576">
        <ele>982.1</ele>
        <time>2016-07-12T07:14:18Z</time>
      </trkpt>
      <trkpt lat="43.09787" lon="-7.13587">
        <ele>982.3</ele>
        <time>2016-07-12T07:14:27Z</time>
      </trkpt>
      <trkpt lat="43.09792" lon="-7.13598">
        <ele>981.8</ele>
        <time>2016-07-12T07:14:36Z</time>
      </trkpt>
      <trkpt lat="43.09784" lon="-7.13606">
        <ele>981.9</ele>
        <time>2016-07-12T07:14:45Z</time>
      </trkpt>
      <trkpt lat="43.09775" lon="-7.13606">
        <ele>982.1</ele>
        <time>2016-07-12T07:14:52Z</time>
      </trkpt>
      <trkpt lat="43.09765" lon="-7.13605">
        <ele>982.3</ele>
        <time>2016-07-12T07:14:59Z</time>
      </trkpt>
      <trkpt lat="43.09756" lon="-7.13605">
        <ele>982.5</ele>
        <time>2016-07-12T07:15:06Z</time>
      </trkpt>
      <trkpt lat="43.09746" lon="-7.13605">
        <ele>982.7</ele>
        <time>2016-07-12T07:15:14Z</time>
      </trkpt>
      <trkpt lat="43.09737" lon="-7.13606">
        <ele>983.5</ele>
        <time>2016-07-12T07:15:24Z</time>
      </trkpt>
      <trkpt lat="43.09728" lon="-7.13606">
        <ele>984.1</ele>
        <time>2016-07-12T07:15:33Z</time>
      </trkpt>
      <trkpt lat="43.09719" lon="-7.13605">
        <ele>984.6</ele>
        <time>2016-07-12T07:15:41Z</time>
      </trkpt>
      <trkpt lat="43.09709" lon="-7.13605">
        <ele>985.4</ele>
        <time>2016-07-12T07:15:49Z</time>
      </trkpt>
      <trkpt lat="43.09699" lon="-7.13608">
        <ele>986.1</ele>
        <time>2016-07-12T07:15:57Z</time>
      </trkpt>
      <trkpt lat="43.09691" lon="-7.13612">
        <ele>986.4</ele>
        <time>2016-07-12T07:16:06Z</time>
      </trkpt>
      <trkpt lat="43.09683" lon="-7.13619">
        <ele>986.8</ele>
        <time>2016-07-12T07:16:15Z</time>
      </trkpt>
      <trkpt lat="43.09679" lon="-7.1363">
        <ele>988.1</ele>
        <time>2016-07-12T07:16:25Z</time>
      </trkpt>
      <trkpt lat="43.09679" lon="-7.13642">
        <ele>990.3</ele>
        <time>2016-07-12T07:16:36Z</time>
      </trkpt>
      <trkpt lat="43.09676" lon="-7.13654">
        <ele>991.3</ele>
        <time>2016-07-12T07:16:44Z</time>
      </trkpt>
      <trkpt lat="43.09675" lon="-7.13667">
        <ele>993.1</ele>
        <time>2016-07-12T07:17:30Z</time>
      </trkpt>
      <trkpt lat="43.09673" lon="-7.13679">
        <ele>993</ele>
        <time>2016-07-12T07:17:38Z</time>
      </trkpt>
      <trkpt lat="43.09674" lon="-7.13692">
        <ele>992.8</ele>
        <time>2016-07-12T07:17:46Z</time>
      </trkpt>
      <trkpt lat="43.09674" lon="-7.13705">
        <ele>992.7</ele>
        <time>2016-07-12T07:17:55Z</time>
      </trkpt>
      <trkpt lat="43.09677" lon="-7.13718">
        <ele>992.7</ele>
        <time>2016-07-12T07:18:04Z</time>
      </trkpt>
      <trkpt lat="43.09679" lon="-7.1373">
        <ele>992.7</ele>
        <time>2016-07-12T07:18:12Z</time>
      </trkpt>
      <trkpt lat="43.09679" lon="-7.13743">
        <ele>992.7</ele>
        <time>2016-07-12T07:18:20Z</time>
      </trkpt>
      <trkpt lat="43.09681" lon="-7.13756">
        <ele>992.7</ele>
        <time>2016-07-12T07:18:28Z</time>
      </trkpt>
      <trkpt lat="43.09682" lon="-7.13769">
        <ele>992.8</ele>
        <time>2016-07-12T07:18:36Z</time>
      </trkpt>
      <trkpt lat="43.09683" lon="-7.13782">
        <ele>993</ele>
        <time>2016-07-12T07:18:44Z</time>
      </trkpt>
      <trkpt lat="43.09683" lon="-7.13794">
        <ele>993.3</ele>
        <time>2016-07-12T07:18:52Z</time>
      </trkpt>
      <trkpt lat="43.0968" lon="-7.13806">
        <ele>993.5</ele>
        <time>2016-07-12T07:19:00Z</time>
      </trkpt>
      <trkpt lat="43.09677" lon="-7.13819">
        <ele>993.7</ele>
        <time>2016-07-12T07:19:08Z</time>
      </trkpt>
      <trkpt lat="43.09676" lon="-7.13831">
        <ele>993.7</ele>
        <time>2016-07-12T07:19:15Z</time>
      </trkpt>
      <trkpt lat="43.09677" lon="-7.13844">
        <ele>993.3</ele>
        <time>2016-07-12T07:19:23Z</time>
      </trkpt>
      <trkpt lat="43.09676" lon="-7.13857">
        <ele>993.1</ele>
        <time>2016-07-12T07:19:32Z</time>
      </trkpt>
      <trkpt lat="43.09673" lon="-7.13869">
        <ele>993.1</ele>
        <time>2016-07-12T07:19:40Z</time>
      </trkpt>
      <trkpt lat="43.0967" lon="-7.13881">
        <ele>993.2</ele>
        <time>2016-07-12T07:19:47Z</time>
      </trkpt>
      <trkpt lat="43.09667" lon="-7.13894">
        <ele>993.2</ele>
        <time>2016-07-12T07:19:55Z</time>
      </trkpt>
      <trkpt lat="43.09663" lon="-7.13906">
        <ele>993</ele>
        <time>2016-07-12T07:20:02Z</time>
      </trkpt>
      <trkpt lat="43.09661" lon="-7.13919">
        <ele>992.9</ele>
        <time>2016-07-12T07:20:10Z</time>
      </trkpt>
      <trkpt lat="43.09658" lon="-7.13931">
        <ele>993.3</ele>
        <time>2016-07-12T07:20:18Z</time>
      </trkpt>
      <trkpt lat="43.09656" lon="-7.13944">
        <ele>993.6</ele>
        <time>2016-07-12T07:20:26Z</time>
      </trkpt>
      <trkpt lat="43.09655" lon="-7.13956">
        <ele>993.9</ele>
        <time>2016-07-12T07:20:35Z</time>
      </trkpt>
      <trkpt lat="43.09652" lon="-7.13968">
        <ele>994.3</ele>
        <time>2016-07-12T07:20:49Z</time>
      </trkpt>
      <trkpt lat="43.0965" lon="-7.13981">
        <ele>994.4</ele>
        <time>2016-07-12T07:20:59Z</time>
      </trkpt>
      <trkpt lat="43.09644" lon="-7.13992">
        <ele>994.6</ele>
        <time>2016-07-12T07:21:08Z</time>
      </trkpt>
      <trkpt lat="43.09641" lon="-7.14004">
        <ele>994.8</ele>
        <time>2016-07-12T07:21:17Z</time>
      </trkpt>
      <trkpt lat="43.09638" lon="-7.14016">
        <ele>995.1</ele>
        <time>2016-07-12T07:21:25Z</time>
      </trkpt>
      <trkpt lat="43.09635" lon="-7.14028">
        <ele>995.2</ele>
        <time>2016-07-12T07:21:32Z</time>
      </trkpt>
      <trkpt lat="43.09632" lon="-7.14041">
        <ele>995.4</ele>
        <time>2016-07-12T07:21:40Z</time>
      </trkpt>
      <trkpt lat="43.09628" lon="-7.14053">
        <ele>995.6</ele>
        <time>2016-07-12T07:21:49Z</time>
      </trkpt>
      <trkpt lat="43.09625" lon="-7.14065">
        <ele>996.1</ele>
        <time>2016-07-12T07:21:58Z</time>
      </trkpt>
      <trkpt lat="43.09623" lon="-7.14077">
        <ele>997.1</ele>
        <time>2016-07-12T07:22:07Z</time>
      </trkpt>
      <trkpt lat="43.0962" lon="-7.14089">
        <ele>998</ele>
        <time>2016-07-12T07:22:16Z</time>
      </trkpt>
      <trkpt lat="43.09617" lon="-7.14102">
        <ele>999.1</ele>
        <time>2016-07-12T07:22:26Z</time>
      </trkpt>
      <trkpt lat="43.09614" lon="-7.14114">
        <ele>999.6</ele>
        <time>2016-07-12T07:22:35Z</time>
      </trkpt>
      <trkpt lat="43.09609" lon="-7.14125">
        <ele>1000.2</ele>
        <time>2016-07-12T07:22:44Z</time>
      </trkpt>
      <trkpt lat="43.09603" lon="-7.14135">
        <ele>1000.7</ele>
        <time>2016-07-12T07:22:53Z</time>
      </trkpt>
      <trkpt lat="43.09595" lon="-7.14142">
        <ele>1001.6</ele>
        <time>2016-07-12T07:23:03Z</time>
      </trkpt>
      <trkpt lat="43.09591" lon="-7.14153">
        <ele>1002.8</ele>
        <time>2016-07-12T07:23:13Z</time>
      </trkpt>
      <trkpt lat="43.09586" lon="-7.14164">
        <ele>1003.5</ele>
        <time>2016-07-12T07:23:22Z</time>
      </trkpt>
      <trkpt lat="43.09581" lon="-7.14175">
        <ele>1005.2</ele>
        <time>2016-07-12T07:23:36Z</time>
      </trkpt>
      <trkpt lat="43.09578" lon="-7.14187">
        <ele>1006</ele>
        <time>2016-07-12T07:23:47Z</time>
      </trkpt>
      <trkpt lat="43.09575" lon="-7.14199">
        <ele>1006.3</ele>
        <time>2016-07-12T07:23:57Z</time>
      </trkpt>
      <trkpt lat="43.09571" lon="-7.14211">
        <ele>1006.6</ele>
        <time>2016-07-12T07:24:06Z</time>
      </trkpt>
      <trkpt lat="43.09569" lon="-7.14224">
        <ele>1007.2</ele>
        <time>2016-07-12T07:24:15Z</time>
      </trkpt>
      <trkpt lat="43.09566" lon="-7.14236">
        <ele>1007.7</ele>
        <time>2016-07-12T07:24:24Z</time>
      </trkpt>
      <trkpt lat="43.09563" lon="-7.14248">
        <ele>1008.5</ele>
        <time>2016-07-12T07:24:36Z</time>
      </trkpt>
      <trkpt lat="43.09557" lon="-7.14259">
        <ele>1009.9</ele>
        <time>2016-07-12T07:24:48Z</time>
      </trkpt>
      <trkpt lat="43.0955" lon="-7.14267">
        <ele>1011.6</ele>
        <time>2016-07-12T07:25:00Z</time>
      </trkpt>
      <trkpt lat="43.09542" lon="-7.14275">
        <ele>1013</ele>
        <time>2016-07-12T07:25:12Z</time>
      </trkpt>
      <trkpt lat="43.09533" lon="-7.1428">
        <ele>1014.4</ele>
        <time>2016-07-12T07:25:23Z</time>
      </trkpt>
      <trkpt lat="43.09525" lon="-7.14285">
        <ele>1016.4</ele>
        <time>2016-07-12T07:25:37Z</time>
      </trkpt>
      <trkpt lat="43.09515" lon="-7.14283">
        <ele>1017.4</ele>
        <time>2016-07-12T07:25:48Z</time>
      </trkpt>
      <trkpt lat="43.09507" lon="-7.14279">
        <ele>1019</ele>
        <time>2016-07-12T07:25:59Z</time>
      </trkpt>
      <trkpt lat="43.09498" lon="-7.14274">
        <ele>1020.3</ele>
        <time>2016-07-12T07:26:11Z</time>
      </trkpt>
      <trkpt lat="43.0949" lon="-7.14267">
        <ele>1021.4</ele>
        <time>2016-07-12T07:26:22Z</time>
      </trkpt>
      <trkpt lat="43.09482" lon="-7.1426">
        <ele>1023.2</ele>
        <time>2016-07-12T07:26:42Z</time>
      </trkpt>
      <trkpt lat="43.09473" lon="-7.14263">
        <ele>1024</ele>
        <time>2016-07-12T07:26:54Z</time>
      </trkpt>
      <trkpt lat="43.09473" lon="-7.14276">
        <ele>1025.2</ele>
        <time>2016-07-12T07:27:05Z</time>
      </trkpt>
      <trkpt lat="43.09473" lon="-7.14289">
        <ele>1026.3</ele>
        <time>2016-07-12T07:27:13Z</time>
      </trkpt>
      <trkpt lat="43.09475" lon="-7.14302">
        <ele>1027.7</ele>
        <time>2016-07-12T07:27:22Z</time>
      </trkpt>
      <trkpt lat="43.09478" lon="-7.14315">
        <ele>1028.5</ele>
        <time>2016-07-12T07:27:31Z</time>
      </trkpt>
      <trkpt lat="43.0948" lon="-7.14328">
        <ele>1029.5</ele>
        <time>2016-07-12T07:27:40Z</time>
      </trkpt>
      <trkpt lat="43.09482" lon="-7.14341">
        <ele>1030.3</ele>
        <time>2016-07-12T07:27:49Z</time>
      </trkpt>
      <trkpt lat="43.09482" lon="-7.14355">
        <ele>1030.5</ele>
        <time>2016-07-12T07:27:58Z</time>
      </trkpt>
      <trkpt lat="43.09486" lon="-7.14366">
        <ele>1030.7</ele>
        <time>2016-07-12T07:28:07Z</time>
      </trkpt>
      <trkpt lat="43.09495" lon="-7.14371">
        <ele>1030.7</ele>
        <time>2016-07-12T07:28:20Z</time>
      </trkpt>
      <trkpt lat="43.09488" lon="-7.14379">
        <ele>1030.8</ele>
        <time>2016-07-12T07:29:45Z</time>
      </trkpt>
      <trkpt lat="43.09484" lon="-7.14392">
        <ele>1030.9</ele>
        <time>2016-07-12T07:29:55Z</time>
      </trkpt>
      <trkpt lat="43.0948" lon="-7.14404">
        <ele>1031</ele>
        <time>2016-07-12T07:30:03Z</time>
      </trkpt>
      <trkpt lat="43.09474" lon="-7.14415">
        <ele>1030.9</ele>
        <time>2016-07-12T07:30:11Z</time>
      </trkpt>
      <trkpt lat="43.09468" lon="-7.14425">
        <ele>1030.9</ele>
        <time>2016-07-12T07:30:19Z</time>
      </trkpt>
      <trkpt lat="43.0946" lon="-7.14434">
        <ele>1030.8</ele>
        <time>2016-07-12T07:30:27Z</time>
      </trkpt>
      <trkpt lat="43.09452" lon="-7.14442">
        <ele>1030.5</ele>
        <time>2016-07-12T07:30:35Z</time>
      </trkpt>
      <trkpt lat="43.09445" lon="-7.14451">
        <ele>1029.4</ele>
        <time>2016-07-12T07:31:24Z</time>
      </trkpt>
      <trkpt lat="43.09437" lon="-7.14458">
        <ele>1028.8</ele>
        <time>2016-07-12T07:31:34Z</time>
      </trkpt>
      <trkpt lat="43.09428" lon="-7.14462">
        <ele>1028.1</ele>
        <time>2016-07-12T07:31:47Z</time>
      </trkpt>
      <trkpt lat="43.09419" lon="-7.14463">
        <ele>1027.5</ele>
        <time>2016-07-12T07:31:56Z</time>
      </trkpt>
      <trkpt lat="43.09409" lon="-7.14463">
        <ele>1026.9</ele>
        <time>2016-07-12T07:32:05Z</time>
      </trkpt>
      <trkpt lat="43.094" lon="-7.14463">
        <ele>1026.2</ele>
        <time>2016-07-12T07:32:14Z</time>
      </trkpt>
      <trkpt lat="43.0939" lon="-7.14467">
        <ele>1024.5</ele>
        <time>2016-07-12T07:32:29Z</time>
      </trkpt>
      <trkpt lat="43.09381" lon="-7.14473">
        <ele>1023.8</ele>
        <time>2016-07-12T07:32:37Z</time>
      </trkpt>
      <trkpt lat="43.09372" lon="-7.14478">
        <ele>1023.4</ele>
        <time>2016-07-12T07:32:44Z</time>
      </trkpt>
      <trkpt lat="43.09362" lon="-7.14484">
        <ele>1022.8</ele>
        <time>2016-07-12T07:32:52Z</time>
      </trkpt>
      <trkpt lat="43.09353" lon="-7.14486">
        <ele>1022.2</ele>
        <time>2016-07-12T07:33:00Z</time>
      </trkpt>
      <trkpt lat="43.09343" lon="-7.14487">
        <ele>1021.2</ele>
        <time>2016-07-12T07:33:08Z</time>
      </trkpt>
      <trkpt lat="43.09334" lon="-7.14487">
        <ele>1020.6</ele>
        <time>2016-07-12T07:33:15Z</time>
      </trkpt>
      <trkpt lat="43.09324" lon="-7.14486">
        <ele>1019.8</ele>
        <time>2016-07-12T07:33:22Z</time>
      </trkpt>
      <trkpt lat="43.09315" lon="-7.14489">
        <ele>1019.3</ele>
        <time>2016-07-12T07:33:29Z</time>
      </trkpt>
      <trkpt lat="43.09306" lon="-7.1449">
        <ele>1018.7</ele>
        <time>2016-07-12T07:33:39Z</time>
      </trkpt>
      <trkpt lat="43.09297" lon="-7.14491">
        <ele>1018.4</ele>
        <time>2016-07-12T07:33:47Z</time>
      </trkpt>
      <trkpt lat="43.09288" lon="-7.14493">
        <ele>1017.2</ele>
        <time>2016-07-12T07:33:56Z</time>
      </trkpt>
      <trkpt lat="43.09278" lon="-7.14495">
        <ele>1016.2</ele>
        <time>2016-07-12T07:34:05Z</time>
      </trkpt>
      <trkpt lat="43.09269" lon="-7.14497">
        <ele>1015.9</ele>
        <time>2016-07-12T07:34:12Z</time>
      </trkpt>
      <trkpt lat="43.0926" lon="-7.14501">
        <ele>1015.4</ele>
        <time>2016-07-12T07:34:20Z</time>
      </trkpt>
      <trkpt lat="43.09251" lon="-7.14503">
        <ele>1014.8</ele>
        <time>2016-07-12T07:34:28Z</time>
      </trkpt>
      <trkpt lat="43.09241" lon="-7.14503">
        <ele>1014</ele>
        <time>2016-07-12T07:34:36Z</time>
      </trkpt>
      <trkpt lat="43.09231" lon="-7.14502">
        <ele>1013.4</ele>
        <time>2016-07-12T07:34:46Z</time>
      </trkpt>
      <trkpt lat="43.09222" lon="-7.14503">
        <ele>1012.7</ele>
        <time>2016-07-12T07:34:54Z</time>
      </trkpt>
      <trkpt lat="43.09213" lon="-7.14501">
        <ele>1012.1</ele>
        <time>2016-07-12T07:35:01Z</time>
      </trkpt>
      <trkpt lat="43.09204" lon="-7.14504">
        <ele>1011.7</ele>
        <time>2016-07-12T07:35:10Z</time>
      </trkpt>
      <trkpt lat="43.09194" lon="-7.14506">
        <ele>1011.3</ele>
        <time>2016-07-12T07:35:18Z</time>
      </trkpt>
      <trkpt lat="43.09185" lon="-7.14506">
        <ele>1010.9</ele>
        <time>2016-07-12T07:35:26Z</time>
      </trkpt>
      <trkpt lat="43.09176" lon="-7.14507">
        <ele>1010.4</ele>
        <time>2016-07-12T07:35:35Z</time>
      </trkpt>
      <trkpt lat="43.09166" lon="-7.14509">
        <ele>1009.5</ele>
        <time>2016-07-12T07:35:50Z</time>
      </trkpt>
      <trkpt lat="43.09156" lon="-7.1451">
        <ele>1008.9</ele>
        <time>2016-07-12T07:35:58Z</time>
      </trkpt>
      <trkpt lat="43.09147" lon="-7.1451">
        <ele>1008.2</ele>
        <time>2016-07-12T07:36:06Z</time>
      </trkpt>
      <trkpt lat="43.09137" lon="-7.1451">
        <ele>1007.7</ele>
        <time>2016-07-12T07:36:14Z</time>
      </trkpt>
      <trkpt lat="43.09128" lon="-7.14512">
        <ele>1006.9</ele>
        <time>2016-07-12T07:36:22Z</time>
      </trkpt>
      <trkpt lat="43.09118" lon="-7.14515">
        <ele>1006.1</ele>
        <time>2016-07-12T07:36:30Z</time>
      </trkpt>
      <trkpt lat="43.09109" lon="-7.14517">
        <ele>1005.8</ele>
        <time>2016-07-12T07:36:37Z</time>
      </trkpt>
      <trkpt lat="43.091" lon="-7.14519">
        <ele>1005.2</ele>
        <time>2016-07-12T07:36:45Z</time>
      </trkpt>
      <trkpt lat="43.0909" lon="-7.14519">
        <ele>1004.5</ele>
        <time>2016-07-12T07:36:53Z</time>
      </trkpt>
      <trkpt lat="43.09081" lon="-7.14521">
        <ele>1003.5</ele>
        <time>2016-07-12T07:37:02Z</time>
      </trkpt>
      <trkpt lat="43.09072" lon="-7.14523">
        <ele>1002.9</ele>
        <time>2016-07-12T07:37:10Z</time>
      </trkpt>
      <trkpt lat="43.09062" lon="-7.14525">
        <ele>1001.4</ele>
        <time>2016-07-12T07:37:21Z</time>
      </trkpt>
      <trkpt lat="43.09053" lon="-7.14527">
        <ele>1000.8</ele>
        <time>2016-07-12T07:37:32Z</time>
      </trkpt>
      <trkpt lat="43.09043" lon="-7.14525">
        <ele>1000.6</ele>
        <time>2016-07-12T07:37:41Z</time>
      </trkpt>
      <trkpt lat="43.09034" lon="-7.14524">
        <ele>999.7</ele>
        <time>2016-07-12T07:37:49Z</time>
      </trkpt>
      <trkpt lat="43.09025" lon="-7.14521">
        <ele>998.9</ele>
        <time>2016-07-12T07:37:57Z</time>
      </trkpt>
      <trkpt lat="43.09016" lon="-7.1452">
        <ele>997.7</ele>
        <time>2016-07-12T07:38:06Z</time>
      </trkpt>
      <trkpt lat="43.09006" lon="-7.14517">
        <ele>997</ele>
        <time>2016-07-12T07:38:15Z</time>
      </trkpt>
      <trkpt lat="43.08997" lon="-7.14516">
        <ele>996</ele>
        <time>2016-07-12T07:38:24Z</time>
      </trkpt>
      <trkpt lat="43.08987" lon="-7.1452">
        <ele>994.6</ele>
        <time>2016-07-12T07:38:36Z</time>
      </trkpt>
      <trkpt lat="43.08978" lon="-7.14522">
        <ele>993.4</ele>
        <time>2016-07-12T07:38:46Z</time>
      </trkpt>
      <trkpt lat="43.08968" lon="-7.14525">
        <ele>992.2</ele>
        <time>2016-07-12T07:38:57Z</time>
      </trkpt>
      <trkpt lat="43.08959" lon="-7.14525">
        <ele>991.5</ele>
        <time>2016-07-12T07:39:05Z</time>
      </trkpt>
      <trkpt lat="43.0895" lon="-7.14525">
        <ele>990.6</ele>
        <time>2016-07-12T07:39:13Z</time>
      </trkpt>
      <trkpt lat="43.08939" lon="-7.14526">
        <ele>989.8</ele>
        <time>2016-07-12T07:39:21Z</time>
      </trkpt>
      <trkpt lat="43.0893" lon="-7.14526">
        <ele>988.6</ele>
        <time>2016-07-12T07:39:29Z</time>
      </trkpt>
      <trkpt lat="43.0892" lon="-7.14526">
        <ele>987.7</ele>
        <time>2016-07-12T07:39:37Z</time>
      </trkpt>
      <trkpt lat="43.0891" lon="-7.14528">
        <ele>986.4</ele>
        <time>2016-07-12T07:39:45Z</time>
      </trkpt>
      <trkpt lat="43.08901" lon="-7.1453">
        <ele>985.5</ele>
        <time>2016-07-12T07:39:53Z</time>
      </trkpt>
      <trkpt lat="43.08892" lon="-7.14534">
        <ele>984.6</ele>
        <time>2016-07-12T07:40:01Z</time>
      </trkpt>
      <trkpt lat="43.08883" lon="-7.14541">
        <ele>983.4</ele>
        <time>2016-07-12T07:40:09Z</time>
      </trkpt>
      <trkpt lat="43.08875" lon="-7.14549">
        <ele>982.4</ele>
        <time>2016-07-12T07:40:17Z</time>
      </trkpt>
      <trkpt lat="43.08867" lon="-7.14557">
        <ele>981.3</ele>
        <time>2016-07-12T07:40:25Z</time>
      </trkpt>
      <trkpt lat="43.08859" lon="-7.14566">
        <ele>979.6</ele>
        <time>2016-07-12T07:40:33Z</time>
      </trkpt>
      <trkpt lat="43.08851" lon="-7.14574">
        <ele>978.6</ele>
        <time>2016-07-12T07:40:40Z</time>
      </trkpt>
      <trkpt lat="43.08843" lon="-7.1458">
        <ele>977.4</ele>
        <time>2016-07-12T07:40:48Z</time>
      </trkpt>
      <trkpt lat="43.08835" lon="-7.14588">
        <ele>976</ele>
        <time>2016-07-12T07:40:59Z</time>
      </trkpt>
      <trkpt lat="43.08827" lon="-7.14596">
        <ele>975.2</ele>
        <time>2016-07-12T07:41:09Z</time>
      </trkpt>
      <trkpt lat="43.0882" lon="-7.14603">
        <ele>973.8</ele>
        <time>2016-07-12T07:41:17Z</time>
      </trkpt>
      <trkpt lat="43.08813" lon="-7.14614">
        <ele>973</ele>
        <time>2016-07-12T07:41:25Z</time>
      </trkpt>
      <trkpt lat="43.08805" lon="-7.14622">
        <ele>972.4</ele>
        <time>2016-07-12T07:41:34Z</time>
      </trkpt>
      <trkpt lat="43.08798" lon="-7.1463">
        <ele>971</ele>
        <time>2016-07-12T07:41:42Z</time>
      </trkpt>
      <trkpt lat="43.08792" lon="-7.1464">
        <ele>969.8</ele>
        <time>2016-07-12T07:41:50Z</time>
      </trkpt>
      <trkpt lat="43.08785" lon="-7.14649">
        <ele>968.7</ele>
        <time>2016-07-12T07:41:59Z</time>
      </trkpt>
      <trkpt lat="43.08778" lon="-7.14657">
        <ele>968</ele>
        <time>2016-07-12T07:42:08Z</time>
      </trkpt>
      <trkpt lat="43.0877" lon="-7.14664">
        <ele>967</ele>
        <time>2016-07-12T07:42:17Z</time>
      </trkpt>
      <trkpt lat="43.08762" lon="-7.14672">
        <ele>966.1</ele>
        <time>2016-07-12T07:42:25Z</time>
      </trkpt>
      <trkpt lat="43.08754" lon="-7.1468">
        <ele>965.7</ele>
        <time>2016-07-12T07:42:32Z</time>
      </trkpt>
      <trkpt lat="43.08746" lon="-7.14687">
        <ele>964.8</ele>
        <time>2016-07-12T07:42:40Z</time>
      </trkpt>
      <trkpt lat="43.08738" lon="-7.14694">
        <ele>963.4</ele>
        <time>2016-07-12T07:42:47Z</time>
      </trkpt>
      <trkpt lat="43.0873" lon="-7.14702">
        <ele>961.9</ele>
        <time>2016-07-12T07:42:55Z</time>
      </trkpt>
      <trkpt lat="43.08723" lon="-7.14709">
        <ele>960.3</ele>
        <time>2016-07-12T07:43:04Z</time>
      </trkpt>
      <trkpt lat="43.08715" lon="-7.14717">
        <ele>959.4</ele>
        <time>2016-07-12T07:43:12Z</time>
      </trkpt>
      <trkpt lat="43.08707" lon="-7.14724">
        <ele>958.2</ele>
        <time>2016-07-12T07:43:18Z</time>
      </trkpt>
      <trkpt lat="43.08699" lon="-7.14731">
        <ele>956.9</ele>
        <time>2016-07-12T07:43:26Z</time>
      </trkpt>
      <trkpt lat="43.0869" lon="-7.14736">
        <ele>956.3</ele>
        <time>2016-07-12T07:43:34Z</time>
      </trkpt>
      <trkpt lat="43.08682" lon="-7.14744">
        <ele>955.5</ele>
        <time>2016-07-12T07:43:42Z</time>
      </trkpt>
      <trkpt lat="43.08674" lon="-7.1475">
        <ele>954.5</ele>
        <time>2016-07-12T07:43:50Z</time>
      </trkpt>
      <trkpt lat="43.08666" lon="-7.14757">
        <ele>953.8</ele>
        <time>2016-07-12T07:43:59Z</time>
      </trkpt>
      <trkpt lat="43.08659" lon="-7.14766">
        <ele>952.9</ele>
        <time>2016-07-12T07:44:07Z</time>
      </trkpt>
      <trkpt lat="43.08651" lon="-7.14775">
        <ele>951.6</ele>
        <time>2016-07-12T07:44:16Z</time>
      </trkpt>
      <trkpt lat="43.08645" lon="-7.14785">
        <ele>950.8</ele>
        <time>2016-07-12T07:44:25Z</time>
      </trkpt>
      <trkpt lat="43.0864" lon="-7.14795">
        <ele>949.8</ele>
        <time>2016-07-12T07:44:34Z</time>
      </trkpt>
      <trkpt lat="43.08636" lon="-7.14807">
        <ele>948.6</ele>
        <time>2016-07-12T07:44:42Z</time>
      </trkpt>
      <trkpt lat="43.08633" lon="-7.14818">
        <ele>947.1</ele>
        <time>2016-07-12T07:44:50Z</time>
      </trkpt>
      <trkpt lat="43.08629" lon="-7.1483">
        <ele>945.7</ele>
        <time>2016-07-12T07:44:58Z</time>
      </trkpt>
      <trkpt lat="43.08626" lon="-7.14843">
        <ele>944.8</ele>
        <time>2016-07-12T07:45:06Z</time>
      </trkpt>
      <trkpt lat="43.08622" lon="-7.14856">
        <ele>944.1</ele>
        <time>2016-07-12T07:45:15Z</time>
      </trkpt>
      <trkpt lat="43.0862" lon="-7.14868">
        <ele>942.9</ele>
        <time>2016-07-12T07:45:25Z</time>
      </trkpt>
      <trkpt lat="43.08617" lon="-7.14881">
        <ele>942.1</ele>
        <time>2016-07-12T07:45:35Z</time>
      </trkpt>
      <trkpt lat="43.08615" lon="-7.14894">
        <ele>941</ele>
        <time>2016-07-12T07:45:44Z</time>
      </trkpt>
      <trkpt lat="43.08612" lon="-7.14906">
        <ele>940.8</ele>
        <time>2016-07-12T07:45:52Z</time>
      </trkpt>
      <trkpt lat="43.08608" lon="-7.14917">
        <ele>940.4</ele>
        <time>2016-07-12T07:46:00Z</time>
      </trkpt>
      <trkpt lat="43.08605" lon="-7.14931">
        <ele>939.4</ele>
        <time>2016-07-12T07:46:09Z</time>
      </trkpt>
      <trkpt lat="43.08601" lon="-7.14942">
        <ele>938.4</ele>
        <time>2016-07-12T07:46:17Z</time>
      </trkpt>
      <trkpt lat="43.08596" lon="-7.14953">
        <ele>937.4</ele>
        <time>2016-07-12T07:46:26Z</time>
      </trkpt>
      <trkpt lat="43.08592" lon="-7.14966">
        <ele>936.8</ele>
        <time>2016-07-12T07:46:34Z</time>
      </trkpt>
      <trkpt lat="43.08587" lon="-7.14976">
        <ele>936.1</ele>
        <time>2016-07-12T07:46:42Z</time>
      </trkpt>
      <trkpt lat="43.08581" lon="-7.14986">
        <ele>934.7</ele>
        <time>2016-07-12T07:46:51Z</time>
      </trkpt>
      <trkpt lat="43.08577" lon="-7.14999">
        <ele>933.3</ele>
        <time>2016-07-12T07:46:59Z</time>
      </trkpt>
      <trkpt lat="43.08572" lon="-7.1501">
        <ele>931.8</ele>
        <time>2016-07-12T07:47:08Z</time>
      </trkpt>
      <trkpt lat="43.08568" lon="-7.15022">
        <ele>930.9</ele>
        <time>2016-07-12T07:47:17Z</time>
      </trkpt>
      <trkpt lat="43.08564" lon="-7.15033">
        <ele>930.2</ele>
        <time>2016-07-12T07:47:24Z</time>
      </trkpt>
      <trkpt lat="43.0856" lon="-7.15044">
        <ele>929.2</ele>
        <time>2016-07-12T07:47:31Z</time>
      </trkpt>
      <trkpt lat="43.08556" lon="-7.15057">
        <ele>928</ele>
        <time>2016-07-12T07:47:40Z</time>
      </trkpt>
      <trkpt lat="43.08554" lon="-7.15068">
        <ele>927.1</ele>
        <time>2016-07-12T07:47:48Z</time>
      </trkpt>
      <trkpt lat="43.08554" lon="-7.15081">
        <ele>926.2</ele>
        <time>2016-07-12T07:47:57Z</time>
      </trkpt>
      <trkpt lat="43.08554" lon="-7.15094">
        <ele>925.6</ele>
        <time>2016-07-12T07:48:05Z</time>
      </trkpt>
      <trkpt lat="43.08555" lon="-7.15108">
        <ele>924.4</ele>
        <time>2016-07-12T07:48:14Z</time>
      </trkpt>
      <trkpt lat="43.08556" lon="-7.1512">
        <ele>923.5</ele>
        <time>2016-07-12T07:48:22Z</time>
      </trkpt>
      <trkpt lat="43.08556" lon="-7.15134">
        <ele>922.5</ele>
        <time>2016-07-12T07:48:31Z</time>
      </trkpt>
      <trkpt lat="43.08555" lon="-7.15147">
        <ele>921.8</ele>
        <time>2016-07-12T07:48:40Z</time>
      </trkpt>
      <trkpt lat="43.08553" lon="-7.15159">
        <ele>921.2</ele>
        <time>2016-07-12T07:48:48Z</time>
      </trkpt>
      <trkpt lat="43.08549" lon="-7.1517">
        <ele>919.6</ele>
        <time>2016-07-12T07:48:58Z</time>
      </trkpt>
      <trkpt lat="43.08545" lon="-7.15182">
        <ele>919.2</ele>
        <time>2016-07-12T07:49:06Z</time>
      </trkpt>
      <trkpt lat="43.0854" lon="-7.15194">
        <ele>918.1</ele>
        <time>2016-07-12T07:49:14Z</time>
      </trkpt>
      <trkpt lat="43.08548" lon="-7.15201">
        <ele>916.1</ele>
        <time>2016-07-12T07:51:09Z</time>
      </trkpt>
      <trkpt lat="43.08539" lon="-7.15201">
        <ele>915.6</ele>
        <time>2016-07-12T07:52:35Z</time>
      </trkpt>
      <trkpt lat="43.08536" lon="-7.15213">
        <ele>916.4</ele>
        <time>2016-07-12T07:54:56Z</time>
      </trkpt>
      <trkpt lat="43.08529" lon="-7.15222">
        <ele>915.7</ele>
        <time>2016-07-12T07:55:05Z</time>
      </trkpt>
      <trkpt lat="43.08522" lon="-7.1523">
        <ele>914</ele>
        <time>2016-07-12T07:55:15Z</time>
      </trkpt>
      <trkpt lat="43.08515" lon="-7.15239">
        <ele>912.8</ele>
        <time>2016-07-12T07:55:24Z</time>
      </trkpt>
      <trkpt lat="43.08508" lon="-7.15248">
        <ele>912.1</ele>
        <time>2016-07-12T07:55:31Z</time>
      </trkpt>
      <trkpt lat="43.08501" lon="-7.15258">
        <ele>911.4</ele>
        <time>2016-07-12T07:55:39Z</time>
      </trkpt>
      <trkpt lat="43.08495" lon="-7.15268">
        <ele>910.6</ele>
        <time>2016-07-12T07:55:46Z</time>
      </trkpt>
      <trkpt lat="43.08489" lon="-7.15278">
        <ele>909.7</ele>
        <time>2016-07-12T07:55:53Z</time>
      </trkpt>
      <trkpt lat="43.08483" lon="-7.15289">
        <ele>908.6</ele>
        <time>2016-07-12T07:56:00Z</time>
      </trkpt>
      <trkpt lat="43.08476" lon="-7.15298">
        <ele>907.7</ele>
        <time>2016-07-12T07:56:07Z</time>
      </trkpt>
      <trkpt lat="43.08468" lon="-7.15308">
        <ele>906.9</ele>
        <time>2016-07-12T07:56:14Z</time>
      </trkpt>
      <trkpt lat="43.08462" lon="-7.15318">
        <ele>905.8</ele>
        <time>2016-07-12T07:56:21Z</time>
      </trkpt>
      <trkpt lat="43.08455" lon="-7.15328">
        <ele>904.5</ele>
        <time>2016-07-12T07:56:29Z</time>
      </trkpt>
      <trkpt lat="43.08448" lon="-7.15337">
        <ele>903.3</ele>
        <time>2016-07-12T07:56:37Z</time>
      </trkpt>
      <trkpt lat="43.08442" lon="-7.15347">
        <ele>902.1</ele>
        <time>2016-07-12T07:56:45Z</time>
      </trkpt>
      <trkpt lat="43.08435" lon="-7.15357">
        <ele>900.8</ele>
        <time>2016-07-12T07:56:53Z</time>
      </trkpt>
      <trkpt lat="43.08429" lon="-7.15367">
        <ele>899.3</ele>
        <time>2016-07-12T07:57:01Z</time>
      </trkpt>
      <trkpt lat="43.08422" lon="-7.15376">
        <ele>898.9</ele>
        <time>2016-07-12T07:57:07Z</time>
      </trkpt>
      <trkpt lat="43.08416" lon="-7.15387">
        <ele>898.3</ele>
        <time>2016-07-12T07:57:14Z</time>
      </trkpt>
      <trkpt lat="43.0841" lon="-7.15397">
        <ele>897.2</ele>
        <time>2016-07-12T07:57:22Z</time>
      </trkpt>
      <trkpt lat="43.08406" lon="-7.15409">
        <ele>896.1</ele>
        <time>2016-07-12T07:57:31Z</time>
      </trkpt>
      <trkpt lat="43.08403" lon="-7.15421">
        <ele>895</ele>
        <time>2016-07-12T07:57:40Z</time>
      </trkpt>
      <trkpt lat="43.08404" lon="-7.15434">
        <ele>894.6</ele>
        <time>2016-07-12T07:57:49Z</time>
      </trkpt>
      <trkpt lat="43.08406" lon="-7.15447">
        <ele>893.7</ele>
        <time>2016-07-12T07:57:58Z</time>
      </trkpt>
      <trkpt lat="43.08407" lon="-7.1546">
        <ele>892.8</ele>
        <time>2016-07-12T07:58:07Z</time>
      </trkpt>
      <trkpt lat="43.08412" lon="-7.1547">
        <ele>890.5</ele>
        <time>2016-07-12T07:58:29Z</time>
      </trkpt>
      <trkpt lat="43.08416" lon="-7.15481">
        <ele>889.9</ele>
        <time>2016-07-12T07:58:43Z</time>
      </trkpt>
      <trkpt lat="43.08417" lon="-7.15493">
        <ele>889.4</ele>
        <time>2016-07-12T07:58:53Z</time>
      </trkpt>
      <trkpt lat="43.08418" lon="-7.15507">
        <ele>888.7</ele>
        <time>2016-07-12T07:59:03Z</time>
      </trkpt>
      <trkpt lat="43.08418" lon="-7.15519">
        <ele>887.8</ele>
        <time>2016-07-12T07:59:12Z</time>
      </trkpt>
      <trkpt lat="43.08419" lon="-7.15533">
        <ele>886.3</ele>
        <time>2016-07-12T07:59:20Z</time>
      </trkpt>
      <trkpt lat="43.08418" lon="-7.15545">
        <ele>885.5</ele>
        <time>2016-07-12T07:59:29Z</time>
      </trkpt>
      <trkpt lat="43.08416" lon="-7.15557">
        <ele>885</ele>
        <time>2016-07-12T07:59:37Z</time>
      </trkpt>
      <trkpt lat="43.08415" lon="-7.1557">
        <ele>884.3</ele>
        <time>2016-07-12T07:59:45Z</time>
      </trkpt>
      <trkpt lat="43.08412" lon="-7.15582">
        <ele>883.4</ele>
        <time>2016-07-12T07:59:52Z</time>
      </trkpt>
      <trkpt lat="43.08408" lon="-7.15595">
        <ele>882</ele>
        <time>2016-07-12T08:00:01Z</time>
      </trkpt>
      <trkpt lat="43.08404" lon="-7.15607">
        <ele>880.7</ele>
        <time>2016-07-12T08:00:09Z</time>
      </trkpt>
      <trkpt lat="43.084" lon="-7.15619">
        <ele>880.1</ele>
        <time>2016-07-12T08:00:17Z</time>
      </trkpt>
      <trkpt lat="43.08394" lon="-7.1563">
        <ele>879.6</ele>
        <time>2016-07-12T08:00:25Z</time>
      </trkpt>
      <trkpt lat="43.0839" lon="-7.15642">
        <ele>878.7</ele>
        <time>2016-07-12T08:00:33Z</time>
      </trkpt>
      <trkpt lat="43.08388" lon="-7.15654">
        <ele>878</ele>
        <time>2016-07-12T08:00:41Z</time>
      </trkpt>
      <trkpt lat="43.08382" lon="-7.15665">
        <ele>877</ele>
        <time>2016-07-12T08:00:50Z</time>
      </trkpt>
      <trkpt lat="43.08377" lon="-7.15676">
        <ele>876.1</ele>
        <time>2016-07-12T08:00:59Z</time>
      </trkpt>
      <trkpt lat="43.08372" lon="-7.15687">
        <ele>874.6</ele>
        <time>2016-07-12T08:01:07Z</time>
      </trkpt>
      <trkpt lat="43.08368" lon="-7.15698">
        <ele>873.8</ele>
        <time>2016-07-12T08:01:14Z</time>
      </trkpt>
      <trkpt lat="43.08363" lon="-7.15709">
        <ele>872.8</ele>
        <time>2016-07-12T08:01:21Z</time>
      </trkpt>
      <trkpt lat="43.08358" lon="-7.15719">
        <ele>872.1</ele>
        <time>2016-07-12T08:01:28Z</time>
      </trkpt>
      <trkpt lat="43.08352" lon="-7.15729">
        <ele>871.4</ele>
        <time>2016-07-12T08:01:36Z</time>
      </trkpt>
      <trkpt lat="43.08346" lon="-7.15739">
        <ele>870.5</ele>
        <time>2016-07-12T08:01:43Z</time>
      </trkpt>
      <trkpt lat="43.08338" lon="-7.15748">
        <ele>869.7</ele>
        <time>2016-07-12T08:01:51Z</time>
      </trkpt>
      <trkpt lat="43.08331" lon="-7.15756">
        <ele>869</ele>
        <time>2016-07-12T08:01:58Z</time>
      </trkpt>
      <trkpt lat="43.08323" lon="-7.15766">
        <ele>868</ele>
        <time>2016-07-12T08:02:06Z</time>
      </trkpt>
      <trkpt lat="43.08317" lon="-7.15775">
        <ele>867.5</ele>
        <time>2016-07-12T08:02:13Z</time>
      </trkpt>
      <trkpt lat="43.08311" lon="-7.15785">
        <ele>867</ele>
        <time>2016-07-12T08:02:19Z</time>
      </trkpt>
      <trkpt lat="43.08306" lon="-7.15797">
        <ele>866.4</ele>
        <time>2016-07-12T08:02:26Z</time>
      </trkpt>
      <trkpt lat="43.08301" lon="-7.15808">
        <ele>865.7</ele>
        <time>2016-07-12T08:02:34Z</time>
      </trkpt>
      <trkpt lat="43.08298" lon="-7.15821">
        <ele>865.4</ele>
        <time>2016-07-12T08:02:42Z</time>
      </trkpt>
      <trkpt lat="43.08295" lon="-7.15835">
        <ele>864.8</ele>
        <time>2016-07-12T08:02:51Z</time>
      </trkpt>
      <trkpt lat="43.08293" lon="-7.15848">
        <ele>864.5</ele>
        <time>2016-07-12T08:02:59Z</time>
      </trkpt>
      <trkpt lat="43.08292" lon="-7.15861">
        <ele>864.3</ele>
        <time>2016-07-12T08:03:08Z</time>
      </trkpt>
      <trkpt lat="43.0829" lon="-7.15873">
        <ele>863.6</ele>
        <time>2016-07-12T08:03:16Z</time>
      </trkpt>
      <trkpt lat="43.08288" lon="-7.15885">
        <ele>862.4</ele>
        <time>2016-07-12T08:03:24Z</time>
      </trkpt>
      <trkpt lat="43.08287" lon="-7.15898">
        <ele>861.4</ele>
        <time>2016-07-12T08:03:33Z</time>
      </trkpt>
      <trkpt lat="43.08285" lon="-7.15911">
        <ele>860.4</ele>
        <time>2016-07-12T08:03:42Z</time>
      </trkpt>
      <trkpt lat="43.08285" lon="-7.15924">
        <ele>859.9</ele>
        <time>2016-07-12T08:03:51Z</time>
      </trkpt>
      <trkpt lat="43.08288" lon="-7.15937">
        <ele>859.5</ele>
        <time>2016-07-12T08:04:00Z</time>
      </trkpt>
      <trkpt lat="43.08291" lon="-7.15949">
        <ele>859.1</ele>
        <time>2016-07-12T08:04:08Z</time>
      </trkpt>
      <trkpt lat="43.08294" lon="-7.15962">
        <ele>858.8</ele>
        <time>2016-07-12T08:04:16Z</time>
      </trkpt>
      <trkpt lat="43.08295" lon="-7.15974">
        <ele>858.6</ele>
        <time>2016-07-12T08:04:22Z</time>
      </trkpt>
      <trkpt lat="43.08299" lon="-7.15987">
        <ele>858</ele>
        <time>2016-07-12T08:04:29Z</time>
      </trkpt>
      <trkpt lat="43.08302" lon="-7.16">
        <ele>857.7</ele>
        <time>2016-07-12T08:04:37Z</time>
      </trkpt>
      <trkpt lat="43.08304" lon="-7.16012">
        <ele>857.6</ele>
        <time>2016-07-12T08:04:45Z</time>
      </trkpt>
      <trkpt lat="43.08306" lon="-7.16025">
        <ele>857.3</ele>
        <time>2016-07-12T08:04:53Z</time>
      </trkpt>
      <trkpt lat="43.08308" lon="-7.16038">
        <ele>856.6</ele>
        <time>2016-07-12T08:05:00Z</time>
      </trkpt>
      <trkpt lat="43.08311" lon="-7.1605">
        <ele>855.9</ele>
        <time>2016-07-12T08:05:08Z</time>
      </trkpt>
      <trkpt lat="43.08313" lon="-7.16063">
        <ele>855.3</ele>
        <time>2016-07-12T08:05:16Z</time>
      </trkpt>
      <trkpt lat="43.08316" lon="-7.16076">
        <ele>854.8</ele>
        <time>2016-07-12T08:05:23Z</time>
      </trkpt>
      <trkpt lat="43.08319" lon="-7.16088">
        <ele>854.5</ele>
        <time>2016-07-12T08:05:29Z</time>
      </trkpt>
      <trkpt lat="43.08323" lon="-7.161">
        <ele>854.2</ele>
        <time>2016-07-12T08:05:37Z</time>
      </trkpt>
      <trkpt lat="43.0833" lon="-7.16109">
        <ele>853.2</ele>
        <time>2016-07-12T08:05:52Z</time>
      </trkpt>
      <trkpt lat="43.08334" lon="-7.16121">
        <ele>850.8</ele>
        <time>2016-07-12T08:06:06Z</time>
      </trkpt>
      <trkpt lat="43.08339" lon="-7.16132">
        <ele>848</ele>
        <time>2016-07-12T08:06:20Z</time>
      </trkpt>
      <trkpt lat="43.08344" lon="-7.16144">
        <ele>846</ele>
        <time>2016-07-12T08:06:31Z</time>
      </trkpt>
      <trkpt lat="43.08348" lon="-7.16154">
        <ele>844.5</ele>
        <time>2016-07-12T08:06:40Z</time>
      </trkpt>
      <trkpt lat="43.08354" lon="-7.16166">
        <ele>843.3</ele>
        <time>2016-07-12T08:06:50Z</time>
      </trkpt>
      <trkpt lat="43.0836" lon="-7.16176">
        <ele>842</ele>
        <time>2016-07-12T08:06:59Z</time>
      </trkpt>
      <trkpt lat="43.08366" lon="-7.16185">
        <ele>840.6</ele>
        <time>2016-07-12T08:07:07Z</time>
      </trkpt>
      <trkpt lat="43.08374" lon="-7.16195">
        <ele>839.2</ele>
        <time>2016-07-12T08:07:16Z</time>
      </trkpt>
      <trkpt lat="43.08382" lon="-7.16202">
        <ele>837.9</ele>
        <time>2016-07-12T08:07:23Z</time>
      </trkpt>
      <trkpt lat="43.08388" lon="-7.16211">
        <ele>836.2</ele>
        <time>2016-07-12T08:07:31Z</time>
      </trkpt>
      <trkpt lat="43.08393" lon="-7.16222">
        <ele>834</ele>
        <time>2016-07-12T08:07:45Z</time>
      </trkpt>
      <trkpt lat="43.08396" lon="-7.16234">
        <ele>832.3</ele>
        <time>2016-07-12T08:07:58Z</time>
      </trkpt>
      <trkpt lat="43.08399" lon="-7.16246">
        <ele>830.7</ele>
        <time>2016-07-12T08:08:08Z</time>
      </trkpt>
      <trkpt lat="43.08398" lon="-7.16259">
        <ele>828.9</ele>
        <time>2016-07-12T08:08:18Z</time>
      </trkpt>
      <trkpt lat="43.08395" lon="-7.16271">
        <ele>827.2</ele>
        <time>2016-07-12T08:08:28Z</time>
      </trkpt>
      <trkpt lat="43.08395" lon="-7.16285">
        <ele>825.2</ele>
        <time>2016-07-12T08:08:40Z</time>
      </trkpt>
      <trkpt lat="43.08391" lon="-7.16297">
        <ele>822.8</ele>
        <time>2016-07-12T08:08:52Z</time>
      </trkpt>
      <trkpt lat="43.08387" lon="-7.16309">
        <ele>821.6</ele>
        <time>2016-07-12T08:09:00Z</time>
      </trkpt>
      <trkpt lat="43.08382" lon="-7.1632">
        <ele>820.2</ele>
        <time>2016-07-12T08:09:09Z</time>
      </trkpt>
      <trkpt lat="43.08378" lon="-7.16331">
        <ele>818.2</ele>
        <time>2016-07-12T08:09:22Z</time>
      </trkpt>
      <trkpt lat="43.08373" lon="-7.16342">
        <ele>816.9</ele>
        <time>2016-07-12T08:09:32Z</time>
      </trkpt>
      <trkpt lat="43.08366" lon="-7.16352">
        <ele>815.4</ele>
        <time>2016-07-12T08:09:42Z</time>
      </trkpt>
      <trkpt lat="43.08361" lon="-7.16363">
        <ele>813.7</ele>
        <time>2016-07-12T08:09:53Z</time>
      </trkpt>
      <trkpt lat="43.08357" lon="-7.16375">
        <ele>811.5</ele>
        <time>2016-07-12T08:10:05Z</time>
      </trkpt>
      <trkpt lat="43.08352" lon="-7.16387">
        <ele>809.8</ele>
        <time>2016-07-12T08:10:16Z</time>
      </trkpt>
      <trkpt lat="43.08347" lon="-7.16398">
        <ele>808.3</ele>
        <time>2016-07-12T08:10:27Z</time>
      </trkpt>
      <trkpt lat="43.08342" lon="-7.16409">
        <ele>806.9</ele>
        <time>2016-07-12T08:10:37Z</time>
      </trkpt>
      <trkpt lat="43.08336" lon="-7.16419">
        <ele>804.6</ele>
        <time>2016-07-12T08:10:54Z</time>
      </trkpt>
      <trkpt lat="43.0833" lon="-7.16429">
        <ele>803.6</ele>
        <time>2016-07-12T08:11:04Z</time>
      </trkpt>
      <trkpt lat="43.08324" lon="-7.1644">
        <ele>802.3</ele>
        <time>2016-07-12T08:11:15Z</time>
      </trkpt>
      <trkpt lat="43.08319" lon="-7.16451">
        <ele>800.7</ele>
        <time>2016-07-12T08:11:25Z</time>
      </trkpt>
      <trkpt lat="43.08316" lon="-7.16463">
        <ele>799.1</ele>
        <time>2016-07-12T08:11:37Z</time>
      </trkpt>
      <trkpt lat="43.08314" lon="-7.16476">
        <ele>798</ele>
        <time>2016-07-12T08:11:46Z</time>
      </trkpt>
      <trkpt lat="43.0831" lon="-7.16487">
        <ele>796.8</ele>
        <time>2016-07-12T08:11:55Z</time>
      </trkpt>
      <trkpt lat="43.08305" lon="-7.16498">
        <ele>794.9</ele>
        <time>2016-07-12T08:12:06Z</time>
      </trkpt>
      <trkpt lat="43.08301" lon="-7.1651">
        <ele>793.4</ele>
        <time>2016-07-12T08:12:16Z</time>
      </trkpt>
      <trkpt lat="43.08297" lon="-7.16521">
        <ele>792</ele>
        <time>2016-07-12T08:12:26Z</time>
      </trkpt>
      <trkpt lat="43.08296" lon="-7.16534">
        <ele>790.8</ele>
        <time>2016-07-12T08:12:36Z</time>
      </trkpt>
      <trkpt lat="43.08293" lon="-7.16546">
        <ele>789.6</ele>
        <time>2016-07-12T08:12:48Z</time>
      </trkpt>
      <trkpt lat="43.08289" lon="-7.16557">
        <ele>788.3</ele>
        <time>2016-07-12T08:12:57Z</time>
      </trkpt>
      <trkpt lat="43.08285" lon="-7.16569">
        <ele>786.8</ele>
        <time>2016-07-12T08:13:07Z</time>
      </trkpt>
      <trkpt lat="43.08281" lon="-7.16581">
        <ele>785</ele>
        <time>2016-07-12T08:13:18Z</time>
      </trkpt>
      <trkpt lat="43.08278" lon="-7.16593">
        <ele>783.6</ele>
        <time>2016-07-12T08:13:28Z</time>
      </trkpt>
      <trkpt lat="43.08276" lon="-7.16606">
        <ele>782.5</ele>
        <time>2016-07-12T08:13:37Z</time>
      </trkpt>
      <trkpt lat="43.08272" lon="-7.16618">
        <ele>780.9</ele>
        <time>2016-07-12T08:13:47Z</time>
      </trkpt>
      <trkpt lat="43.0827" lon="-7.16631">
        <ele>778.7</ele>
        <time>2016-07-12T08:13:58Z</time>
      </trkpt>
      <trkpt lat="43.08266" lon="-7.16642">
        <ele>776.3</ele>
        <time>2016-07-12T08:14:09Z</time>
      </trkpt>
      <trkpt lat="43.08261" lon="-7.16653">
        <ele>774.6</ele>
        <time>2016-07-12T08:14:19Z</time>
      </trkpt>
      <trkpt lat="43.08259" lon="-7.16665">
        <ele>772.6</ele>
        <time>2016-07-12T08:14:28Z</time>
      </trkpt>
      <trkpt lat="43.0826" lon="-7.16678">
        <ele>770.9</ele>
        <time>2016-07-12T08:14:38Z</time>
      </trkpt>
      <trkpt lat="43.08257" lon="-7.16691">
        <ele>769.4</ele>
        <time>2016-07-12T08:14:48Z</time>
      </trkpt>
      <trkpt lat="43.08252" lon="-7.16703">
        <ele>768.3</ele>
        <time>2016-07-12T08:14:58Z</time>
      </trkpt>
      <trkpt lat="43.08249" lon="-7.16715">
        <ele>767</ele>
        <time>2016-07-12T08:15:07Z</time>
      </trkpt>
      <trkpt lat="43.08246" lon="-7.16727">
        <ele>765.9</ele>
        <time>2016-07-12T08:15:15Z</time>
      </trkpt>
      <trkpt lat="43.08246" lon="-7.16739">
        <ele>764.8</ele>
        <time>2016-07-12T08:15:23Z</time>
      </trkpt>
      <trkpt lat="43.08247" lon="-7.16753">
        <ele>763.8</ele>
        <time>2016-07-12T08:15:32Z</time>
      </trkpt>
      <trkpt lat="43.08246" lon="-7.16766">
        <ele>762.7</ele>
        <time>2016-07-12T08:15:41Z</time>
      </trkpt>
      <trkpt lat="43.08247" lon="-7.16779">
        <ele>761.3</ele>
        <time>2016-07-12T08:15:51Z</time>
      </trkpt>
      <trkpt lat="43.08247" lon="-7.16792">
        <ele>760.1</ele>
        <time>2016-07-12T08:16:01Z</time>
      </trkpt>
      <trkpt lat="43.08248" lon="-7.16806">
        <ele>758.6</ele>
        <time>2016-07-12T08:16:11Z</time>
      </trkpt>
      <trkpt lat="43.08247" lon="-7.16819">
        <ele>757.1</ele>
        <time>2016-07-12T08:16:20Z</time>
      </trkpt>
      <trkpt lat="43.08245" lon="-7.16831">
        <ele>755.6</ele>
        <time>2016-07-12T08:16:29Z</time>
      </trkpt>
      <trkpt lat="43.08245" lon="-7.16844">
        <ele>754.6</ele>
        <time>2016-07-12T08:16:38Z</time>
      </trkpt>
      <trkpt lat="43.08244" lon="-7.16857">
        <ele>753.5</ele>
        <time>2016-07-12T08:16:46Z</time>
      </trkpt>
      <trkpt lat="43.0824" lon="-7.16869">
        <ele>751.8</ele>
        <time>2016-07-12T08:16:55Z</time>
      </trkpt>
      <trkpt lat="43.08236" lon="-7.1688">
        <ele>750.8</ele>
        <time>2016-07-12T08:17:03Z</time>
      </trkpt>
      <trkpt lat="43.08232" lon="-7.16891">
        <ele>749.5</ele>
        <time>2016-07-12T08:17:11Z</time>
      </trkpt>
      <trkpt lat="43.08227" lon="-7.16902">
        <ele>747.6</ele>
        <time>2016-07-12T08:17:22Z</time>
      </trkpt>
      <trkpt lat="43.08221" lon="-7.16913">
        <ele>746.5</ele>
        <time>2016-07-12T08:17:32Z</time>
      </trkpt>
      <trkpt lat="43.08215" lon="-7.16924">
        <ele>745</ele>
        <time>2016-07-12T08:17:41Z</time>
      </trkpt>
      <trkpt lat="43.08209" lon="-7.16934">
        <ele>743.8</ele>
        <time>2016-07-12T08:17:51Z</time>
      </trkpt>
      <trkpt lat="43.08202" lon="-7.16944">
        <ele>742.7</ele>
        <time>2016-07-12T08:18:02Z</time>
      </trkpt>
      <trkpt lat="43.08198" lon="-7.16955">
        <ele>741.5</ele>
        <time>2016-07-12T08:18:11Z</time>
      </trkpt>
      <trkpt lat="43.08192" lon="-7.16965">
        <ele>740.3</ele>
        <time>2016-07-12T08:18:21Z</time>
      </trkpt>
      <trkpt lat="43.08187" lon="-7.16976">
        <ele>739.2</ele>
        <time>2016-07-12T08:18:32Z</time>
      </trkpt>
      <trkpt lat="43.08181" lon="-7.16986">
        <ele>738.4</ele>
        <time>2016-07-12T08:18:43Z</time>
      </trkpt>
      <trkpt lat="43.08173" lon="-7.16992">
        <ele>736.9</ele>
        <time>2016-07-12T08:18:54Z</time>
      </trkpt>
      <trkpt lat="43.08164" lon="-7.16997">
        <ele>734.9</ele>
        <time>2016-07-12T08:19:05Z</time>
      </trkpt>
      <trkpt lat="43.08155" lon="-7.17002">
        <ele>733</ele>
        <time>2016-07-12T08:19:16Z</time>
      </trkpt>
      <trkpt lat="43.08148" lon="-7.17009">
        <ele>731.6</ele>
        <time>2016-07-12T08:19:26Z</time>
      </trkpt>
      <trkpt lat="43.08141" lon="-7.17018">
        <ele>730.7</ele>
        <time>2016-07-12T08:19:34Z</time>
      </trkpt>
      <trkpt lat="43.08134" lon="-7.17028">
        <ele>729.7</ele>
        <time>2016-07-12T08:19:44Z</time>
      </trkpt>
      <trkpt lat="43.08125" lon="-7.17033">
        <ele>728.5</ele>
        <time>2016-07-12T08:19:51Z</time>
      </trkpt>
      <trkpt lat="43.08118" lon="-7.17041">
        <ele>726.6</ele>
        <time>2016-07-12T08:20:03Z</time>
      </trkpt>
      <trkpt lat="43.0811" lon="-7.17048">
        <ele>725.2</ele>
        <time>2016-07-12T08:20:13Z</time>
      </trkpt>
      <trkpt lat="43.08101" lon="-7.17054">
        <ele>723.4</ele>
        <time>2016-07-12T08:20:25Z</time>
      </trkpt>
      <trkpt lat="43.08094" lon="-7.1706">
        <ele>722.1</ele>
        <time>2016-07-12T08:20:37Z</time>
      </trkpt>
      <trkpt lat="43.08086" lon="-7.17068">
        <ele>720.8</ele>
        <time>2016-07-12T08:20:47Z</time>
      </trkpt>
      <trkpt lat="43.08079" lon="-7.17075">
        <ele>719.8</ele>
        <time>2016-07-12T08:20:58Z</time>
      </trkpt>
      <trkpt lat="43.0807" lon="-7.17082">
        <ele>719.1</ele>
        <time>2016-07-12T08:21:07Z</time>
      </trkpt>
      <trkpt lat="43.08062" lon="-7.17089">
        <ele>718.1</ele>
        <time>2016-07-12T08:21:16Z</time>
      </trkpt>
      <trkpt lat="43.08054" lon="-7.17096">
        <ele>717.3</ele>
        <time>2016-07-12T08:21:24Z</time>
      </trkpt>
      <trkpt lat="43.08047" lon="-7.17105">
        <ele>716.5</ele>
        <time>2016-07-12T08:21:33Z</time>
      </trkpt>
      <trkpt lat="43.0804" lon="-7.17114">
        <ele>716.1</ele>
        <time>2016-07-12T08:21:41Z</time>
      </trkpt>
      <trkpt lat="43.08032" lon="-7.17122">
        <ele>715.3</ele>
        <time>2016-07-12T08:21:52Z</time>
      </trkpt>
      <trkpt lat="43.08023" lon="-7.17129">
        <ele>715</ele>
        <time>2016-07-12T08:22:00Z</time>
      </trkpt>
      <trkpt lat="43.08015" lon="-7.17136">
        <ele>714.7</ele>
        <time>2016-07-12T08:22:09Z</time>
      </trkpt>
      <trkpt lat="43.08006" lon="-7.17143">
        <ele>714.3</ele>
        <time>2016-07-12T08:22:18Z</time>
      </trkpt>
      <trkpt lat="43.07998" lon="-7.17149">
        <ele>714</ele>
        <time>2016-07-12T08:22:26Z</time>
      </trkpt>
      <trkpt lat="43.0799" lon="-7.17155">
        <ele>713.3</ele>
        <time>2016-07-12T08:22:34Z</time>
      </trkpt>
      <trkpt lat="43.07981" lon="-7.17159">
        <ele>711.7</ele>
        <time>2016-07-12T08:22:49Z</time>
      </trkpt>
      <trkpt lat="43.07972" lon="-7.17161">
        <ele>711.4</ele>
        <time>2016-07-12T08:23:11Z</time>
      </trkpt>
      <trkpt lat="43.07963" lon="-7.17165">
        <ele>710.1</ele>
        <time>2016-07-12T08:24:08Z</time>
      </trkpt>
      <trkpt lat="43.07955" lon="-7.17169">
        <ele>710.4</ele>
        <time>2016-07-12T08:24:20Z</time>
      </trkpt>
      <trkpt lat="43.07947" lon="-7.17176">
        <ele>710.7</ele>
        <time>2016-07-12T08:24:30Z</time>
      </trkpt>
      <trkpt lat="43.07939" lon="-7.17185">
        <ele>709.8</ele>
        <time>2016-07-12T08:24:41Z</time>
      </trkpt>
      <trkpt lat="43.07932" lon="-7.17192">
        <ele>709</ele>
        <time>2016-07-12T08:24:49Z</time>
      </trkpt>
      <trkpt lat="43.07924" lon="-7.17199">
        <ele>708.1</ele>
        <time>2016-07-12T08:24:58Z</time>
      </trkpt>
      <trkpt lat="43.07916" lon="-7.17205">
        <ele>707</ele>
        <time>2016-07-12T08:25:06Z</time>
      </trkpt>
      <trkpt lat="43.0791" lon="-7.17214">
        <ele>706</ele>
        <time>2016-07-12T08:25:13Z</time>
      </trkpt>
      <trkpt lat="43.07903" lon="-7.17224">
        <ele>704.8</ele>
        <time>2016-07-12T08:25:21Z</time>
      </trkpt>
      <trkpt lat="43.07896" lon="-7.17232">
        <ele>704.1</ele>
        <time>2016-07-12T08:25:29Z</time>
      </trkpt>
      <trkpt lat="43.0789" lon="-7.17241">
        <ele>703.7</ele>
        <time>2016-07-12T08:25:36Z</time>
      </trkpt>
      <trkpt lat="43.07884" lon="-7.1725">
        <ele>703.2</ele>
        <time>2016-07-12T08:25:46Z</time>
      </trkpt>
      <trkpt lat="43.07878" lon="-7.17261">
        <ele>702.4</ele>
        <time>2016-07-12T08:25:56Z</time>
      </trkpt>
      <trkpt lat="43.0787" lon="-7.1727">
        <ele>701.9</ele>
        <time>2016-07-12T08:26:05Z</time>
      </trkpt>
      <trkpt lat="43.07862" lon="-7.17278">
        <ele>701.5</ele>
        <time>2016-07-12T08:26:14Z</time>
      </trkpt>
      <trkpt lat="43.07855" lon="-7.17287">
        <ele>700.8</ele>
        <time>2016-07-12T08:26:23Z</time>
      </trkpt>
      <trkpt lat="43.07849" lon="-7.17297">
        <ele>700.4</ele>
        <time>2016-07-12T08:26:32Z</time>
      </trkpt>
      <trkpt lat="43.07841" lon="-7.17305">
        <ele>700.2</ele>
        <time>2016-07-12T08:26:40Z</time>
      </trkpt>
      <trkpt lat="43.07834" lon="-7.17313">
        <ele>699.7</ele>
        <time>2016-07-12T08:26:48Z</time>
      </trkpt>
      <trkpt lat="43.07827" lon="-7.17322">
        <ele>699.4</ele>
        <time>2016-07-12T08:26:56Z</time>
      </trkpt>
      <trkpt lat="43.0782" lon="-7.1733">
        <ele>699.1</ele>
        <time>2016-07-12T08:27:04Z</time>
      </trkpt>
      <trkpt lat="43.07812" lon="-7.17339">
        <ele>698.5</ele>
        <time>2016-07-12T08:27:13Z</time>
      </trkpt>
      <trkpt lat="43.07805" lon="-7.17348">
        <ele>698.2</ele>
        <time>2016-07-12T08:27:21Z</time>
      </trkpt>
      <trkpt lat="43.07797" lon="-7.17356">
        <ele>698.2</ele>
        <time>2016-07-12T08:27:29Z</time>
      </trkpt>
      <trkpt lat="43.07789" lon="-7.17364">
        <ele>697.8</ele>
        <time>2016-07-12T08:27:37Z</time>
      </trkpt>
      <trkpt lat="43.07782" lon="-7.17371">
        <ele>697.4</ele>
        <time>2016-07-12T08:27:45Z</time>
      </trkpt>
      <trkpt lat="43.07775" lon="-7.17379">
        <ele>696.9</ele>
        <time>2016-07-12T08:27:54Z</time>
      </trkpt>
      <trkpt lat="43.07769" lon="-7.17388">
        <ele>696.3</ele>
        <time>2016-07-12T08:28:09Z</time>
      </trkpt>
      <trkpt lat="43.07763" lon="-7.17398">
        <ele>696.2</ele>
        <time>2016-07-12T08:28:17Z</time>
      </trkpt>
      <trkpt lat="43.07758" lon="-7.1741">
        <ele>695.6</ele>
        <time>2016-07-12T08:28:25Z</time>
      </trkpt>
      <trkpt lat="43.07756" lon="-7.17423">
        <ele>695.3</ele>
        <time>2016-07-12T08:28:34Z</time>
      </trkpt>
      <trkpt lat="43.07756" lon="-7.17436">
        <ele>694.8</ele>
        <time>2016-07-12T08:28:41Z</time>
      </trkpt>
      <trkpt lat="43.07759" lon="-7.17447">
        <ele>694.5</ele>
        <time>2016-07-12T08:28:50Z</time>
      </trkpt>
      <trkpt lat="43.07763" lon="-7.17459">
        <ele>694.4</ele>
        <time>2016-07-12T08:28:58Z</time>
      </trkpt>
      <trkpt lat="43.07767" lon="-7.17471">
        <ele>694.1</ele>
        <time>2016-07-12T08:29:06Z</time>
      </trkpt>
      <trkpt lat="43.07769" lon="-7.17484">
        <ele>694.2</ele>
        <time>2016-07-12T08:29:15Z</time>
      </trkpt>
      <trkpt lat="43.07772" lon="-7.17497">
        <ele>693.6</ele>
        <time>2016-07-12T08:29:24Z</time>
      </trkpt>
      <trkpt lat="43.07776" lon="-7.17509">
        <ele>693.4</ele>
        <time>2016-07-12T08:29:34Z</time>
      </trkpt>
      <trkpt lat="43.07779" lon="-7.17521">
        <ele>693.3</ele>
        <time>2016-07-12T08:29:43Z</time>
      </trkpt>
      <trkpt lat="43.07782" lon="-7.17533">
        <ele>693.2</ele>
        <time>2016-07-12T08:29:52Z</time>
      </trkpt>
      <trkpt lat="43.07786" lon="-7.17546">
        <ele>692.6</ele>
        <time>2016-07-12T08:30:02Z</time>
      </trkpt>
      <trkpt lat="43.0779" lon="-7.17558">
        <ele>692.4</ele>
        <time>2016-07-12T08:30:21Z</time>
      </trkpt>
      <trkpt lat="43.07783" lon="-7.17567">
        <ele>692.5</ele>
        <time>2016-07-12T08:31:18Z</time>
      </trkpt>
      <trkpt lat="43.07786" lon="-7.17579">
        <ele>692.3</ele>
        <time>2016-07-12T08:31:25Z</time>
      </trkpt>
      <trkpt lat="43.07788" lon="-7.17592">
        <ele>691.8</ele>
        <time>2016-07-12T08:31:32Z</time>
      </trkpt>
      <trkpt lat="43.07787" lon="-7.17605">
        <ele>691.7</ele>
        <time>2016-07-12T08:31:45Z</time>
      </trkpt>
      <trkpt lat="43.07785" lon="-7.17617">
        <ele>691.4</ele>
        <time>2016-07-12T08:31:52Z</time>
      </trkpt>
      <trkpt lat="43.07782" lon="-7.17629">
        <ele>691.3</ele>
        <time>2016-07-12T08:32:00Z</time>
      </trkpt>
      <trkpt lat="43.07779" lon="-7.17642">
        <ele>691.3</ele>
        <time>2016-07-12T08:32:09Z</time>
      </trkpt>
      <trkpt lat="43.07777" lon="-7.17655">
        <ele>691.3</ele>
        <time>2016-07-12T08:32:17Z</time>
      </trkpt>
      <trkpt lat="43.07777" lon="-7.17667">
        <ele>691.5</ele>
        <time>2016-07-12T08:32:30Z</time>
      </trkpt>
      <trkpt lat="43.07775" lon="-7.1768">
        <ele>693</ele>
        <time>2016-07-12T08:32:45Z</time>
      </trkpt>
      <trkpt lat="43.07774" lon="-7.17693">
        <ele>694.1</ele>
        <time>2016-07-12T08:32:55Z</time>
      </trkpt>
      <trkpt lat="43.07775" lon="-7.17705">
        <ele>695.1</ele>
        <time>2016-07-12T08:33:06Z</time>
      </trkpt>
      <trkpt lat="43.07775" lon="-7.17717">
        <ele>696.1</ele>
        <time>2016-07-12T08:33:17Z</time>
      </trkpt>
      <trkpt lat="43.07768" lon="-7.17725">
        <ele>697</ele>
        <time>2016-07-12T08:33:28Z</time>
      </trkpt>
      <trkpt lat="43.07763" lon="-7.17736">
        <ele>697.8</ele>
        <time>2016-07-12T08:33:36Z</time>
      </trkpt>
      <trkpt lat="43.07759" lon="-7.17748">
        <ele>698.3</ele>
        <time>2016-07-12T08:33:45Z</time>
      </trkpt>
      <trkpt lat="43.0775" lon="-7.17755">
        <ele>699.3</ele>
        <time>2016-07-12T08:33:54Z</time>
      </trkpt>
      <trkpt lat="43.07742" lon="-7.17762">
        <ele>699.8</ele>
        <time>2016-07-12T08:34:04Z</time>
      </trkpt>
      <trkpt lat="43.07737" lon="-7.17773">
        <ele>700.8</ele>
        <time>2016-07-12T08:34:12Z</time>
      </trkpt>
      <trkpt lat="43.07733" lon="-7.17784">
        <ele>701.5</ele>
        <time>2016-07-12T08:34:20Z</time>
      </trkpt>
      <trkpt lat="43.07727" lon="-7.17794">
        <ele>702.2</ele>
        <time>2016-07-12T08:34:29Z</time>
      </trkpt>
      <trkpt lat="43.0772" lon="-7.17802">
        <ele>704.5</ele>
        <time>2016-07-12T08:34:44Z</time>
      </trkpt>
      <trkpt lat="43.07711" lon="-7.17803">
        <ele>705.6</ele>
        <time>2016-07-12T08:34:55Z</time>
      </trkpt>
      <trkpt lat="43.07701" lon="-7.17806">
        <ele>706.3</ele>
        <time>2016-07-12T08:35:06Z</time>
      </trkpt>
      <trkpt lat="43.07693" lon="-7.17812">
        <ele>706.9</ele>
        <time>2016-07-12T08:35:18Z</time>
      </trkpt>
      <trkpt lat="43.07685" lon="-7.17817">
        <ele>706.9</ele>
        <time>2016-07-12T08:35:29Z</time>
      </trkpt>
      <trkpt lat="43.07676" lon="-7.17815">
        <ele>706.2</ele>
        <time>2016-07-12T08:35:49Z</time>
      </trkpt>
      <trkpt lat="43.07672" lon="-7.17804">
        <ele>706.5</ele>
        <time>2016-07-12T08:36:04Z</time>
      </trkpt>
      <trkpt lat="43.07672" lon="-7.1779">
        <ele>706.9</ele>
        <time>2016-07-12T08:36:18Z</time>
      </trkpt>
      <trkpt lat="43.07671" lon="-7.17778">
        <ele>707.1</ele>
        <time>2016-07-12T08:36:29Z</time>
      </trkpt>
      <trkpt lat="43.07668" lon="-7.17766">
        <ele>707.7</ele>
        <time>2016-07-12T08:36:40Z</time>
      </trkpt>
      <trkpt lat="43.07663" lon="-7.17755">
        <ele>708.3</ele>
        <time>2016-07-12T08:36:50Z</time>
      </trkpt>
      <trkpt lat="43.07657" lon="-7.17744">
        <ele>708.7</ele>
        <time>2016-07-12T08:37:00Z</time>
      </trkpt>
      <trkpt lat="43.07653" lon="-7.17733">
        <ele>709</ele>
        <time>2016-07-12T08:37:10Z</time>
      </trkpt>
      <trkpt lat="43.07647" lon="-7.17722">
        <ele>709.9</ele>
        <time>2016-07-12T08:37:20Z</time>
      </trkpt>
      <trkpt lat="43.07641" lon="-7.17712">
        <ele>710.7</ele>
        <time>2016-07-12T08:37:32Z</time>
      </trkpt>
      <trkpt lat="43.07636" lon="-7.17701">
        <ele>711.8</ele>
        <time>2016-07-12T08:37:43Z</time>
      </trkpt>
      <trkpt lat="43.0763" lon="-7.17692">
        <ele>712.5</ele>
        <time>2016-07-12T08:37:55Z</time>
      </trkpt>
      <trkpt lat="43.07622" lon="-7.17685">
        <ele>713.3</ele>
        <time>2016-07-12T08:38:07Z</time>
      </trkpt>
      <trkpt lat="43.07613" lon="-7.17679">
        <ele>714.2</ele>
        <time>2016-07-12T08:38:18Z</time>
      </trkpt>
      <trkpt lat="43.07604" lon="-7.17674">
        <ele>715.3</ele>
        <time>2016-07-12T08:38:26Z</time>
      </trkpt>
      <trkpt lat="43.07596" lon="-7.1767">
        <ele>716.1</ele>
        <time>2016-07-12T08:38:36Z</time>
      </trkpt>
      <trkpt lat="43.07587" lon="-7.17666">
        <ele>716.5</ele>
        <time>2016-07-12T08:38:45Z</time>
      </trkpt>
      <trkpt lat="43.07579" lon="-7.17659">
        <ele>717.6</ele>
        <time>2016-07-12T08:38:54Z</time>
      </trkpt>
      <trkpt lat="43.07571" lon="-7.17654">
        <ele>718.1</ele>
        <time>2016-07-12T08:39:02Z</time>
      </trkpt>
      <trkpt lat="43.07562" lon="-7.1765">
        <ele>718.3</ele>
        <time>2016-07-12T08:39:11Z</time>
      </trkpt>
      <trkpt lat="43.07554" lon="-7.17645">
        <ele>718.5</ele>
        <time>2016-07-12T08:39:21Z</time>
      </trkpt>
      <trkpt lat="43.07545" lon="-7.1764">
        <ele>719</ele>
        <time>2016-07-12T08:39:31Z</time>
      </trkpt>
      <trkpt lat="43.07536" lon="-7.17634">
        <ele>720.3</ele>
        <time>2016-07-12T08:39:44Z</time>
      </trkpt>
      <trkpt lat="43.07528" lon="-7.17629">
        <ele>721.4</ele>
        <time>2016-07-12T08:39:57Z</time>
      </trkpt>
      <trkpt lat="43.07518" lon="-7.17626">
        <ele>722.3</ele>
        <time>2016-07-12T08:40:08Z</time>
      </trkpt>
      <trkpt lat="43.07509" lon="-7.17623">
        <ele>723.3</ele>
        <time>2016-07-12T08:40:17Z</time>
      </trkpt>
      <trkpt lat="43.075" lon="-7.1762">
        <ele>723</ele>
        <time>2016-07-12T08:40:26Z</time>
      </trkpt>
      <trkpt lat="43.07491" lon="-7.17616">
        <ele>723.5</ele>
        <time>2016-07-12T08:40:33Z</time>
      </trkpt>
      <trkpt lat="43.07482" lon="-7.17615">
        <ele>724.2</ele>
        <time>2016-07-12T08:40:42Z</time>
      </trkpt>
      <trkpt lat="43.07472" lon="-7.17615">
        <ele>724.6</ele>
        <time>2016-07-12T08:40:53Z</time>
      </trkpt>
      <trkpt lat="43.07463" lon="-7.17615">
        <ele>725.6</ele>
        <time>2016-07-12T08:41:04Z</time>
      </trkpt>
      <trkpt lat="43.07454" lon="-7.17618">
        <ele>726.8</ele>
        <time>2016-07-12T08:41:18Z</time>
      </trkpt>
      <trkpt lat="43.07445" lon="-7.17621">
        <ele>727.7</ele>
        <time>2016-07-12T08:41:28Z</time>
      </trkpt>
      <trkpt lat="43.07436" lon="-7.17626">
        <ele>728.1</ele>
        <time>2016-07-12T08:41:37Z</time>
      </trkpt>
      <trkpt lat="43.07428" lon="-7.17631">
        <ele>728.9</ele>
        <time>2016-07-12T08:41:46Z</time>
      </trkpt>
      <trkpt lat="43.07419" lon="-7.17635">
        <ele>729.8</ele>
        <time>2016-07-12T08:41:58Z</time>
      </trkpt>
      <trkpt lat="43.07411" lon="-7.17643">
        <ele>730.5</ele>
        <time>2016-07-12T08:42:09Z</time>
      </trkpt>
      <trkpt lat="43.07404" lon="-7.17652">
        <ele>730.6</ele>
        <time>2016-07-12T08:42:18Z</time>
      </trkpt>
      <trkpt lat="43.07398" lon="-7.17661">
        <ele>730.7</ele>
        <time>2016-07-12T08:42:27Z</time>
      </trkpt>
      <trkpt lat="43.07392" lon="-7.17671">
        <ele>730.6</ele>
        <time>2016-07-12T08:42:36Z</time>
      </trkpt>
      <trkpt lat="43.07385" lon="-7.1768">
        <ele>730.6</ele>
        <time>2016-07-12T08:42:45Z</time>
      </trkpt>
      <trkpt lat="43.07379" lon="-7.17689">
        <ele>730.9</ele>
        <time>2016-07-12T08:42:54Z</time>
      </trkpt>
      <trkpt lat="43.07372" lon="-7.17698">
        <ele>731.3</ele>
        <time>2016-07-12T08:43:04Z</time>
      </trkpt>
      <trkpt lat="43.07365" lon="-7.17706">
        <ele>732.2</ele>
        <time>2016-07-12T08:43:14Z</time>
      </trkpt>
      <trkpt lat="43.07358" lon="-7.17716">
        <ele>732.5</ele>
        <time>2016-07-12T08:43:23Z</time>
      </trkpt>
      <trkpt lat="43.07354" lon="-7.17727">
        <ele>732.7</ele>
        <time>2016-07-12T08:43:32Z</time>
      </trkpt>
      <trkpt lat="43.0735" lon="-7.17739">
        <ele>733.2</ele>
        <time>2016-07-12T08:43:42Z</time>
      </trkpt>
      <trkpt lat="43.07346" lon="-7.17751">
        <ele>733.8</ele>
        <time>2016-07-12T08:43:52Z</time>
      </trkpt>
      <trkpt lat="43.07342" lon="-7.17763">
        <ele>734.2</ele>
        <time>2016-07-12T08:44:02Z</time>
      </trkpt>
      <trkpt lat="43.07338" lon="-7.17775">
        <ele>734.9</ele>
        <time>2016-07-12T08:44:15Z</time>
      </trkpt>
      <trkpt lat="43.07332" lon="-7.17784">
        <ele>735.5</ele>
        <time>2016-07-12T08:44:29Z</time>
      </trkpt>
      <trkpt lat="43.07325" lon="-7.17793">
        <ele>736.2</ele>
        <time>2016-07-12T08:44:39Z</time>
      </trkpt>
      <trkpt lat="43.07318" lon="-7.17802">
        <ele>736.6</ele>
        <time>2016-07-12T08:44:48Z</time>
      </trkpt>
      <trkpt lat="43.07313" lon="-7.17813">
        <ele>736.6</ele>
        <time>2016-07-12T08:44:56Z</time>
      </trkpt>
      <trkpt lat="43.07308" lon="-7.17823">
        <ele>736.6</ele>
        <time>2016-07-12T08:45:03Z</time>
      </trkpt>
      <trkpt lat="43.07301" lon="-7.17832">
        <ele>736.7</ele>
        <time>2016-07-12T08:45:12Z</time>
      </trkpt>
      <trkpt lat="43.07294" lon="-7.17839">
        <ele>737.5</ele>
        <time>2016-07-12T08:45:22Z</time>
      </trkpt>
      <trkpt lat="43.07286" lon="-7.17847">
        <ele>737.7</ele>
        <time>2016-07-12T08:45:33Z</time>
      </trkpt>
      <trkpt lat="43.0728" lon="-7.17856">
        <ele>737.7</ele>
        <time>2016-07-12T08:45:43Z</time>
      </trkpt>
      <trkpt lat="43.07274" lon="-7.17866">
        <ele>737.8</ele>
        <time>2016-07-12T08:45:56Z</time>
      </trkpt>
      <trkpt lat="43.07268" lon="-7.17876">
        <ele>737.8</ele>
        <time>2016-07-12T08:46:05Z</time>
      </trkpt>
      <trkpt lat="43.07262" lon="-7.17886">
        <ele>738.9</ele>
        <time>2016-07-12T08:46:18Z</time>
      </trkpt>
      <trkpt lat="43.07258" lon="-7.17898">
        <ele>740.8</ele>
        <time>2016-07-12T08:46:36Z</time>
      </trkpt>
      <trkpt lat="43.07251" lon="-7.17907">
        <ele>743</ele>
        <time>2016-07-12T08:46:57Z</time>
      </trkpt>
      <trkpt lat="43.07244" lon="-7.17915">
        <ele>745.5</ele>
        <time>2016-07-12T08:48:02Z</time>
      </trkpt>
      <trkpt lat="43.07243" lon="-7.17902">
        <ele>745.6</ele>
        <time>2016-07-12T08:48:34Z</time>
      </trkpt>
      <trkpt lat="43.07242" lon="-7.17889">
        <ele>745.7</ele>
        <time>2016-07-12T08:48:42Z</time>
      </trkpt>
      <trkpt lat="43.07237" lon="-7.17878">
        <ele>745.6</ele>
        <time>2016-07-12T08:48:52Z</time>
      </trkpt>
      <trkpt lat="43.07237" lon="-7.17864">
        <ele>745.8</ele>
        <time>2016-07-12T08:49:00Z</time>
      </trkpt>
      <trkpt lat="43.07235" lon="-7.17851">
        <ele>745.6</ele>
        <time>2016-07-12T08:49:07Z</time>
      </trkpt>
      <trkpt lat="43.07227" lon="-7.17843">
        <ele>745.4</ele>
        <time>2016-07-12T08:49:15Z</time>
      </trkpt>
      <trkpt lat="43.07221" lon="-7.17834">
        <ele>745.9</ele>
        <time>2016-07-12T08:49:26Z</time>
      </trkpt>
      <trkpt lat="43.07217" lon="-7.17821">
        <ele>746.7</ele>
        <time>2016-07-12T08:49:35Z</time>
      </trkpt>
      <trkpt lat="43.07211" lon="-7.17812">
        <ele>747.1</ele>
        <time>2016-07-12T08:49:43Z</time>
      </trkpt>
      <trkpt lat="43.07204" lon="-7.17803">
        <ele>747.8</ele>
        <time>2016-07-12T08:49:56Z</time>
      </trkpt>
      <trkpt lat="43.07198" lon="-7.17794">
        <ele>748.8</ele>
        <time>2016-07-12T08:50:05Z</time>
      </trkpt>
      <trkpt lat="43.07193" lon="-7.17783">
        <ele>749.7</ele>
        <time>2016-07-12T08:50:14Z</time>
      </trkpt>
      <trkpt lat="43.07188" lon="-7.17772">
        <ele>750.7</ele>
        <time>2016-07-12T08:50:24Z</time>
      </trkpt>
      <trkpt lat="43.07182" lon="-7.1776">
        <ele>752.2</ele>
        <time>2016-07-12T08:50:34Z</time>
      </trkpt>
      <trkpt lat="43.07178" lon="-7.17749">
        <ele>753.1</ele>
        <time>2016-07-12T08:50:44Z</time>
      </trkpt>
      <trkpt lat="43.07174" lon="-7.17737">
        <ele>753.6</ele>
        <time>2016-07-12T08:50:53Z</time>
      </trkpt>
      <trkpt lat="43.07174" lon="-7.17724">
        <ele>754</ele>
        <time>2016-07-12T08:51:04Z</time>
      </trkpt>
      <trkpt lat="43.07174" lon="-7.17712">
        <ele>752.5</ele>
        <time>2016-07-12T08:51:14Z</time>
      </trkpt>
      <trkpt lat="43.07172" lon="-7.177">
        <ele>751.2</ele>
        <time>2016-07-12T08:51:26Z</time>
      </trkpt>
      <trkpt lat="43.07168" lon="-7.17689">
        <ele>749.6</ele>
        <time>2016-07-12T08:51:36Z</time>
      </trkpt>
      <trkpt lat="43.0716" lon="-7.17682">
        <ele>748.2</ele>
        <time>2016-07-12T08:51:48Z</time>
      </trkpt>
      <trkpt lat="43.07153" lon="-7.17674">
        <ele>748</ele>
        <time>2016-07-12T08:51:58Z</time>
      </trkpt>
      <trkpt lat="43.07144" lon="-7.17667">
        <ele>747.8</ele>
        <time>2016-07-12T08:52:10Z</time>
      </trkpt>
      <trkpt lat="43.07136" lon="-7.1766">
        <ele>747.8</ele>
        <time>2016-07-12T08:52:19Z</time>
      </trkpt>
      <trkpt lat="43.07127" lon="-7.17654">
        <ele>748.2</ele>
        <time>2016-07-12T08:52:29Z</time>
      </trkpt>
      <trkpt lat="43.07119" lon="-7.1765">
        <ele>749</ele>
        <time>2016-07-12T08:52:38Z</time>
      </trkpt>
      <trkpt lat="43.07111" lon="-7.17643">
        <ele>749.4</ele>
        <time>2016-07-12T08:52:47Z</time>
      </trkpt>
      <trkpt lat="43.07102" lon="-7.17638">
        <ele>749.8</ele>
        <time>2016-07-12T08:52:58Z</time>
      </trkpt>
      <trkpt lat="43.07094" lon="-7.17635">
        <ele>750.2</ele>
        <time>2016-07-12T08:53:07Z</time>
      </trkpt>
      <trkpt lat="43.07084" lon="-7.17633">
        <ele>750.7</ele>
        <time>2016-07-12T08:53:18Z</time>
      </trkpt>
      <trkpt lat="43.07074" lon="-7.17633">
        <ele>751</ele>
        <time>2016-07-12T08:53:28Z</time>
      </trkpt>
      <trkpt lat="43.07064" lon="-7.17632">
        <ele>751.5</ele>
        <time>2016-07-12T08:53:38Z</time>
      </trkpt>
      <trkpt lat="43.07054" lon="-7.17633">
        <ele>751.6</ele>
        <time>2016-07-12T08:53:51Z</time>
      </trkpt>
      <trkpt lat="43.07044" lon="-7.17635">
        <ele>752</ele>
        <time>2016-07-12T08:54:01Z</time>
      </trkpt>
      <trkpt lat="43.07035" lon="-7.17637">
        <ele>752.3</ele>
        <time>2016-07-12T08:54:11Z</time>
      </trkpt>
      <trkpt lat="43.07026" lon="-7.17643">
        <ele>752.5</ele>
        <time>2016-07-12T08:54:21Z</time>
      </trkpt>
      <trkpt lat="43.07018" lon="-7.17647">
        <ele>753.1</ele>
        <time>2016-07-12T08:54:30Z</time>
      </trkpt>
      <trkpt lat="43.07008" lon="-7.17652">
        <ele>753.7</ele>
        <time>2016-07-12T08:54:39Z</time>
      </trkpt>
      <trkpt lat="43.06999" lon="-7.17651">
        <ele>754.4</ele>
        <time>2016-07-12T08:54:55Z</time>
      </trkpt>
      <trkpt lat="43.0699" lon="-7.17653">
        <ele>754.8</ele>
        <time>2016-07-12T08:55:04Z</time>
      </trkpt>
      <trkpt lat="43.06981" lon="-7.17648">
        <ele>754.9</ele>
        <time>2016-07-12T08:55:19Z</time>
      </trkpt>
      <trkpt lat="43.06975" lon="-7.17638">
        <ele>754.9</ele>
        <time>2016-07-12T08:55:29Z</time>
      </trkpt>
      <trkpt lat="43.06968" lon="-7.1763">
        <ele>755.1</ele>
        <time>2016-07-12T08:55:39Z</time>
      </trkpt>
      <trkpt lat="43.06961" lon="-7.17622">
        <ele>755.3</ele>
        <time>2016-07-12T08:55:49Z</time>
      </trkpt>
      <trkpt lat="43.06956" lon="-7.17611">
        <ele>755.4</ele>
        <time>2016-07-12T08:55:59Z</time>
      </trkpt>
      <trkpt lat="43.06953" lon="-7.17599">
        <ele>754.8</ele>
        <time>2016-07-12T08:56:08Z</time>
      </trkpt>
      <trkpt lat="43.06949" lon="-7.17587">
        <ele>753</ele>
        <time>2016-07-12T08:56:18Z</time>
      </trkpt>
      <trkpt lat="43.06944" lon="-7.17576">
        <ele>752</ele>
        <time>2016-07-12T08:56:28Z</time>
      </trkpt>
      <trkpt lat="43.06939" lon="-7.17564">
        <ele>750.2</ele>
        <time>2016-07-12T08:56:38Z</time>
      </trkpt>
      <trkpt lat="43.06934" lon="-7.17552">
        <ele>748.4</ele>
        <time>2016-07-12T08:56:50Z</time>
      </trkpt>
      <trkpt lat="43.06932" lon="-7.1754">
        <ele>746.5</ele>
        <time>2016-07-12T08:56:58Z</time>
      </trkpt>
      <trkpt lat="43.06933" lon="-7.17526">
        <ele>744</ele>
        <time>2016-07-12T08:57:07Z</time>
      </trkpt>
      <trkpt lat="43.06931" lon="-7.17514">
        <ele>742.5</ele>
        <time>2016-07-12T08:57:15Z</time>
      </trkpt>
      <trkpt lat="43.06936" lon="-7.17502">
        <ele>739.7</ele>
        <time>2016-07-12T08:57:34Z</time>
      </trkpt>
      <trkpt lat="43.06931" lon="-7.1749">
        <ele>739.3</ele>
        <time>2016-07-12T08:57:43Z</time>
      </trkpt>
      <trkpt lat="43.06928" lon="-7.17478">
        <ele>738.9</ele>
        <time>2016-07-12T08:57:52Z</time>
      </trkpt>
      <trkpt lat="43.06924" lon="-7.17465">
        <ele>738.2</ele>
        <time>2016-07-12T08:58:04Z</time>
      </trkpt>
      <trkpt lat="43.06919" lon="-7.17455">
        <ele>736.8</ele>
        <time>2016-07-12T08:58:17Z</time>
      </trkpt>
      <trkpt lat="43.06913" lon="-7.17446">
        <ele>734.9</ele>
        <time>2016-07-12T08:58:29Z</time>
      </trkpt>
      <trkpt lat="43.06907" lon="-7.17436">
        <ele>733.1</ele>
        <time>2016-07-12T08:58:38Z</time>
      </trkpt>
      <trkpt lat="43.069" lon="-7.17427">
        <ele>731.3</ele>
        <time>2016-07-12T08:58:47Z</time>
      </trkpt>
      <trkpt lat="43.06895" lon="-7.17416">
        <ele>729.3</ele>
        <time>2016-07-12T08:58:56Z</time>
      </trkpt>
      <trkpt lat="43.06889" lon="-7.17405">
        <ele>727.5</ele>
        <time>2016-07-12T08:59:05Z</time>
      </trkpt>
      <trkpt lat="43.06883" lon="-7.17395">
        <ele>725.8</ele>
        <time>2016-07-12T08:59:14Z</time>
      </trkpt>
      <trkpt lat="43.06877" lon="-7.17384">
        <ele>723.8</ele>
        <time>2016-07-12T08:59:24Z</time>
      </trkpt>
      <trkpt lat="43.06874" lon="-7.17373">
        <ele>721.7</ele>
        <time>2016-07-12T08:59:34Z</time>
      </trkpt>
      <trkpt lat="43.06873" lon="-7.17359">
        <ele>719.9</ele>
        <time>2016-07-12T08:59:43Z</time>
      </trkpt>
      <trkpt lat="43.06871" lon="-7.17347">
        <ele>717.9</ele>
        <time>2016-07-12T08:59:51Z</time>
      </trkpt>
      <trkpt lat="43.06861" lon="-7.17346">
        <ele>715.8</ele>
        <time>2016-07-12T09:00:00Z</time>
      </trkpt>
      <trkpt lat="43.06853" lon="-7.17353">
        <ele>714.5</ele>
        <time>2016-07-12T09:00:09Z</time>
      </trkpt>
      <trkpt lat="43.06846" lon="-7.17361">
        <ele>713.8</ele>
        <time>2016-07-12T09:00:17Z</time>
      </trkpt>
      <trkpt lat="43.06838" lon="-7.1737">
        <ele>712.3</ele>
        <time>2016-07-12T09:00:26Z</time>
      </trkpt>
      <trkpt lat="43.06831" lon="-7.17378">
        <ele>711.1</ele>
        <time>2016-07-12T09:00:35Z</time>
      </trkpt>
      <trkpt lat="43.06823" lon="-7.17387">
        <ele>710.4</ele>
        <time>2016-07-12T09:00:44Z</time>
      </trkpt>
      <trkpt lat="43.06816" lon="-7.17395">
        <ele>709.9</ele>
        <time>2016-07-12T09:00:52Z</time>
      </trkpt>
      <trkpt lat="43.06808" lon="-7.17403">
        <ele>709.6</ele>
        <time>2016-07-12T09:01:00Z</time>
      </trkpt>
      <trkpt lat="43.06802" lon="-7.17411">
        <ele>709.5</ele>
        <time>2016-07-12T09:01:08Z</time>
      </trkpt>
      <trkpt lat="43.06794" lon="-7.17418">
        <ele>709.6</ele>
        <time>2016-07-12T09:01:17Z</time>
      </trkpt>
      <trkpt lat="43.06787" lon="-7.17425">
        <ele>709.2</ele>
        <time>2016-07-12T09:01:25Z</time>
      </trkpt>
      <trkpt lat="43.06779" lon="-7.17432">
        <ele>708.8</ele>
        <time>2016-07-12T09:01:33Z</time>
      </trkpt>
      <trkpt lat="43.06771" lon="-7.17439">
        <ele>708.7</ele>
        <time>2016-07-12T09:01:41Z</time>
      </trkpt>
      <trkpt lat="43.06762" lon="-7.17444">
        <ele>708.8</ele>
        <time>2016-07-12T09:01:50Z</time>
      </trkpt>
      <trkpt lat="43.06754" lon="-7.17453">
        <ele>708.9</ele>
        <time>2016-07-12T09:01:59Z</time>
      </trkpt>
      <trkpt lat="43.06746" lon="-7.17461">
        <ele>709.3</ele>
        <time>2016-07-12T09:02:09Z</time>
      </trkpt>
      <trkpt lat="43.06738" lon="-7.17469">
        <ele>709.8</ele>
        <time>2016-07-12T09:02:19Z</time>
      </trkpt>
      <trkpt lat="43.06729" lon="-7.17474">
        <ele>710.5</ele>
        <time>2016-07-12T09:02:28Z</time>
      </trkpt>
      <trkpt lat="43.0672" lon="-7.17474">
        <ele>710.5</ele>
        <time>2016-07-12T09:02:40Z</time>
      </trkpt>
      <trkpt lat="43.06713" lon="-7.17465">
        <ele>710.7</ele>
        <time>2016-07-12T09:02:50Z</time>
      </trkpt>
      <trkpt lat="43.0671" lon="-7.17452">
        <ele>711</ele>
        <time>2016-07-12T09:03:01Z</time>
      </trkpt>
      <trkpt lat="43.06711" lon="-7.17439">
        <ele>711.8</ele>
        <time>2016-07-12T09:03:10Z</time>
      </trkpt>
      <trkpt lat="43.06713" lon="-7.17426">
        <ele>712.4</ele>
        <time>2016-07-12T09:03:19Z</time>
      </trkpt>
      <trkpt lat="43.06714" lon="-7.17413">
        <ele>712.7</ele>
        <time>2016-07-12T09:03:28Z</time>
      </trkpt>
      <trkpt lat="43.06712" lon="-7.174">
        <ele>713.5</ele>
        <time>2016-07-12T09:03:38Z</time>
      </trkpt>
      <trkpt lat="43.06709" lon="-7.17388">
        <ele>713.9</ele>
        <time>2016-07-12T09:03:48Z</time>
      </trkpt>
      <trkpt lat="43.06704" lon="-7.17378">
        <ele>714.1</ele>
        <time>2016-07-12T09:03:57Z</time>
      </trkpt>
      <trkpt lat="43.06698" lon="-7.17366">
        <ele>714.2</ele>
        <time>2016-07-12T09:04:06Z</time>
      </trkpt>
      <trkpt lat="43.06693" lon="-7.17356">
        <ele>714.4</ele>
        <time>2016-07-12T09:04:15Z</time>
      </trkpt>
      <trkpt lat="43.06688" lon="-7.17345">
        <ele>714.6</ele>
        <time>2016-07-12T09:04:24Z</time>
      </trkpt>
      <trkpt lat="43.06682" lon="-7.17335">
        <ele>714.9</ele>
        <time>2016-07-12T09:04:32Z</time>
      </trkpt>
      <trkpt lat="43.06676" lon="-7.17326">
        <ele>715.9</ele>
        <time>2016-07-12T09:04:41Z</time>
      </trkpt>
      <trkpt lat="43.0667" lon="-7.17315">
        <ele>716.5</ele>
        <time>2016-07-12T09:04:52Z</time>
      </trkpt>
      <trkpt lat="43.06663" lon="-7.17307">
        <ele>717.3</ele>
        <time>2016-07-12T09:05:00Z</time>
      </trkpt>
      <trkpt lat="43.06656" lon="-7.17298">
        <ele>717.8</ele>
        <time>2016-07-12T09:05:08Z</time>
      </trkpt>
      <trkpt lat="43.06648" lon="-7.17291">
        <ele>718.1</ele>
        <time>2016-07-12T09:05:17Z</time>
      </trkpt>
      <trkpt lat="43.06639" lon="-7.17285">
        <ele>718.1</ele>
        <time>2016-07-12T09:05:26Z</time>
      </trkpt>
      <trkpt lat="43.06631" lon="-7.17278">
        <ele>718.4</ele>
        <time>2016-07-12T09:05:35Z</time>
      </trkpt>
      <trkpt lat="43.06625" lon="-7.17269">
        <ele>719</ele>
        <time>2016-07-12T09:05:44Z</time>
      </trkpt>
      <trkpt lat="43.0662" lon="-7.17258">
        <ele>719.9</ele>
        <time>2016-07-12T09:05:53Z</time>
      </trkpt>
      <trkpt lat="43.06611" lon="-7.17258">
        <ele>720.2</ele>
        <time>2016-07-12T09:06:08Z</time>
      </trkpt>
      <trkpt lat="43.06607" lon="-7.17271">
        <ele>721.2</ele>
        <time>2016-07-12T09:06:32Z</time>
      </trkpt>
      <trkpt lat="43.06606" lon="-7.17283">
        <ele>721.6</ele>
        <time>2016-07-12T09:06:43Z</time>
      </trkpt>
      <trkpt lat="43.06602" lon="-7.17295">
        <ele>722.3</ele>
        <time>2016-07-12T09:06:57Z</time>
      </trkpt>
      <trkpt lat="43.06597" lon="-7.17305">
        <ele>722.3</ele>
        <time>2016-07-12T09:07:14Z</time>
      </trkpt>
      <trkpt lat="43.06591" lon="-7.17315">
        <ele>723.2</ele>
        <time>2016-07-12T09:07:25Z</time>
      </trkpt>
      <trkpt lat="43.06585" lon="-7.17324">
        <ele>724</ele>
        <time>2016-07-12T09:07:37Z</time>
      </trkpt>
      <trkpt lat="43.06577" lon="-7.17332">
        <ele>725.3</ele>
        <time>2016-07-12T09:07:47Z</time>
      </trkpt>
      <trkpt lat="43.06569" lon="-7.1734">
        <ele>726.5</ele>
        <time>2016-07-12T09:08:00Z</time>
      </trkpt>
      <trkpt lat="43.06563" lon="-7.17349">
        <ele>727.7</ele>
        <time>2016-07-12T09:08:11Z</time>
      </trkpt>
      <trkpt lat="43.06556" lon="-7.17357">
        <ele>728.7</ele>
        <time>2016-07-12T09:08:21Z</time>
      </trkpt>
      <trkpt lat="43.06548" lon="-7.17363">
        <ele>729.5</ele>
        <time>2016-07-12T09:08:35Z</time>
      </trkpt>
      <trkpt lat="43.0654" lon="-7.17371">
        <ele>729.5</ele>
        <time>2016-07-12T09:08:46Z</time>
      </trkpt>
      <trkpt lat="43.06533" lon="-7.17379">
        <ele>728.5</ele>
        <time>2016-07-12T09:08:58Z</time>
      </trkpt>
      <trkpt lat="43.06526" lon="-7.17388">
        <ele>727</ele>
        <time>2016-07-12T09:09:10Z</time>
      </trkpt>
      <trkpt lat="43.06521" lon="-7.17399">
        <ele>724.6</ele>
        <time>2016-07-12T09:09:23Z</time>
      </trkpt>
      <trkpt lat="43.06518" lon="-7.1741">
        <ele>722.4</ele>
        <time>2016-07-12T09:09:37Z</time>
      </trkpt>
      <trkpt lat="43.06513" lon="-7.17421">
        <ele>721.6</ele>
        <time>2016-07-12T09:09:46Z</time>
      </trkpt>
      <trkpt lat="43.06506" lon="-7.1743">
        <ele>721</ele>
        <time>2016-07-12T09:09:54Z</time>
      </trkpt>
      <trkpt lat="43.06497" lon="-7.17436">
        <ele>720.5</ele>
        <time>2016-07-12T09:10:02Z</time>
      </trkpt>
      <trkpt lat="43.06489" lon="-7.17442">
        <ele>720.1</ele>
        <time>2016-07-12T09:10:11Z</time>
      </trkpt>
      <trkpt lat="43.0648" lon="-7.17449">
        <ele>719</ele>
        <time>2016-07-12T09:10:23Z</time>
      </trkpt>
      <trkpt lat="43.06472" lon="-7.17452">
        <ele>718.8</ele>
        <time>2016-07-12T09:10:31Z</time>
      </trkpt>
      <trkpt lat="43.06462" lon="-7.17457">
        <ele>718.1</ele>
        <time>2016-07-12T09:10:40Z</time>
      </trkpt>
      <trkpt lat="43.06453" lon="-7.17461">
        <ele>717.1</ele>
        <time>2016-07-12T09:10:49Z</time>
      </trkpt>
      <trkpt lat="43.06444" lon="-7.17465">
        <ele>716.1</ele>
        <time>2016-07-12T09:10:57Z</time>
      </trkpt>
      <trkpt lat="43.06434" lon="-7.17465">
        <ele>714.8</ele>
        <time>2016-07-12T09:11:08Z</time>
      </trkpt>
      <trkpt lat="43.06425" lon="-7.17462">
        <ele>713.8</ele>
        <time>2016-07-12T09:11:17Z</time>
      </trkpt>
      <trkpt lat="43.06416" lon="-7.17458">
        <ele>712.6</ele>
        <time>2016-07-12T09:11:29Z</time>
      </trkpt>
      <trkpt lat="43.06407" lon="-7.17457">
        <ele>711.1</ele>
        <time>2016-07-12T09:11:40Z</time>
      </trkpt>
      <trkpt lat="43.06398" lon="-7.17457">
        <ele>709.3</ele>
        <time>2016-07-12T09:11:51Z</time>
      </trkpt>
      <trkpt lat="43.06388" lon="-7.17459">
        <ele>707.9</ele>
        <time>2016-07-12T09:12:01Z</time>
      </trkpt>
      <trkpt lat="43.0638" lon="-7.17463">
        <ele>706.9</ele>
        <time>2016-07-12T09:12:12Z</time>
      </trkpt>
      <trkpt lat="43.06372" lon="-7.1747">
        <ele>706</ele>
        <time>2016-07-12T09:12:21Z</time>
      </trkpt>
      <trkpt lat="43.06363" lon="-7.17477">
        <ele>705.5</ele>
        <time>2016-07-12T09:12:30Z</time>
      </trkpt>
      <trkpt lat="43.06356" lon="-7.17486">
        <ele>704.6</ele>
        <time>2016-07-12T09:12:46Z</time>
      </trkpt>
      <trkpt lat="43.06348" lon="-7.17493">
        <ele>703.7</ele>
        <time>2016-07-12T09:12:57Z</time>
      </trkpt>
      <trkpt lat="43.0634" lon="-7.175">
        <ele>703.1</ele>
        <time>2016-07-12T09:13:07Z</time>
      </trkpt>
      <trkpt lat="43.06332" lon="-7.17507">
        <ele>702.4</ele>
        <time>2016-07-12T09:13:15Z</time>
      </trkpt>
      <trkpt lat="43.06323" lon="-7.17513">
        <ele>702.1</ele>
        <time>2016-07-12T09:13:23Z</time>
      </trkpt>
      <trkpt lat="43.06314" lon="-7.17518">
        <ele>702</ele>
        <time>2016-07-12T09:13:32Z</time>
      </trkpt>
      <trkpt lat="43.06304" lon="-7.17518">
        <ele>702.6</ele>
        <time>2016-07-12T09:13:41Z</time>
      </trkpt>
      <trkpt lat="43.06295" lon="-7.17516">
        <ele>702.8</ele>
        <time>2016-07-12T09:13:51Z</time>
      </trkpt>
      <trkpt lat="43.06286" lon="-7.17514">
        <ele>702.4</ele>
        <time>2016-07-12T09:14:00Z</time>
      </trkpt>
      <trkpt lat="43.06276" lon="-7.17512">
        <ele>701.8</ele>
        <time>2016-07-12T09:14:09Z</time>
      </trkpt>
      <trkpt lat="43.06267" lon="-7.17513">
        <ele>699.6</ele>
        <time>2016-07-12T09:14:21Z</time>
      </trkpt>
      <trkpt lat="43.06257" lon="-7.17516">
        <ele>698.7</ele>
        <time>2016-07-12T09:14:32Z</time>
      </trkpt>
      <trkpt lat="43.06248" lon="-7.17519">
        <ele>697</ele>
        <time>2016-07-12T09:14:42Z</time>
      </trkpt>
      <trkpt lat="43.0624" lon="-7.17523">
        <ele>694.9</ele>
        <time>2016-07-12T09:14:55Z</time>
      </trkpt>
      <trkpt lat="43.06231" lon="-7.1753">
        <ele>692.9</ele>
        <time>2016-07-12T09:15:08Z</time>
      </trkpt>
      <trkpt lat="43.06224" lon="-7.17536">
        <ele>690.7</ele>
        <time>2016-07-12T09:15:22Z</time>
      </trkpt>
      <trkpt lat="43.06218" lon="-7.17546">
        <ele>687.5</ele>
        <time>2016-07-12T09:15:48Z</time>
      </trkpt>
      <trkpt lat="43.06211" lon="-7.17555">
        <ele>685</ele>
        <time>2016-07-12T09:16:02Z</time>
      </trkpt>
      <trkpt lat="43.06204" lon="-7.17564">
        <ele>683</ele>
        <time>2016-07-12T09:16:14Z</time>
      </trkpt>
      <trkpt lat="43.06198" lon="-7.17574">
        <ele>681.3</ele>
        <time>2016-07-12T09:16:24Z</time>
      </trkpt>
      <trkpt lat="43.06194" lon="-7.17586">
        <ele>679</ele>
        <time>2016-07-12T09:16:35Z</time>
      </trkpt>
      <trkpt lat="43.0619" lon="-7.17598">
        <ele>677.6</ele>
        <time>2016-07-12T09:16:44Z</time>
      </trkpt>
      <trkpt lat="43.06187" lon="-7.1761">
        <ele>675.8</ele>
        <time>2016-07-12T09:16:54Z</time>
      </trkpt>
      <trkpt lat="43.06182" lon="-7.17622">
        <ele>674</ele>
        <time>2016-07-12T09:17:05Z</time>
      </trkpt>
      <trkpt lat="43.06177" lon="-7.17632">
        <ele>671.7</ele>
        <time>2016-07-12T09:17:19Z</time>
      </trkpt>
      <trkpt lat="43.06169" lon="-7.17626">
        <ele>669.3</ele>
        <time>2016-07-12T09:17:47Z</time>
      </trkpt>
      <trkpt lat="43.06161" lon="-7.17619">
        <ele>669.4</ele>
        <time>2016-07-12T09:17:59Z</time>
      </trkpt>
      <trkpt lat="43.06152" lon="-7.17612">
        <ele>670.1</ele>
        <time>2016-07-12T09:18:10Z</time>
      </trkpt>
      <trkpt lat="43.06144" lon="-7.17604">
        <ele>670.9</ele>
        <time>2016-07-12T09:18:20Z</time>
      </trkpt>
      <trkpt lat="43.06137" lon="-7.17596">
        <ele>671.7</ele>
        <time>2016-07-12T09:18:30Z</time>
      </trkpt>
      <trkpt lat="43.06131" lon="-7.17587">
        <ele>672.2</ele>
        <time>2016-07-12T09:18:38Z</time>
      </trkpt>
      <trkpt lat="43.06125" lon="-7.17577">
        <ele>672.4</ele>
        <time>2016-07-12T09:18:47Z</time>
      </trkpt>
      <trkpt lat="43.06119" lon="-7.17568">
        <ele>672.6</ele>
        <time>2016-07-12T09:18:56Z</time>
      </trkpt>
      <trkpt lat="43.06114" lon="-7.17556">
        <ele>672.8</ele>
        <time>2016-07-12T09:19:05Z</time>
      </trkpt>
      <trkpt lat="43.06108" lon="-7.17545">
        <ele>673.4</ele>
        <time>2016-07-12T09:19:16Z</time>
      </trkpt>
      <trkpt lat="43.06103" lon="-7.17535">
        <ele>674.9</ele>
        <time>2016-07-12T09:19:28Z</time>
      </trkpt>
      <trkpt lat="43.06099" lon="-7.17523">
        <ele>675.6</ele>
        <time>2016-07-12T09:19:39Z</time>
      </trkpt>
      <trkpt lat="43.06096" lon="-7.17511">
        <ele>676.2</ele>
        <time>2016-07-12T09:19:50Z</time>
      </trkpt>
      <trkpt lat="43.06093" lon="-7.17499">
        <ele>677.4</ele>
        <time>2016-07-12T09:20:01Z</time>
      </trkpt>
      <trkpt lat="43.06091" lon="-7.17487">
        <ele>678.9</ele>
        <time>2016-07-12T09:20:13Z</time>
      </trkpt>
      <trkpt lat="43.06091" lon="-7.17474">
        <ele>680.6</ele>
        <time>2016-07-12T09:20:26Z</time>
      </trkpt>
      <trkpt lat="43.06087" lon="-7.17461">
        <ele>682.7</ele>
        <time>2016-07-12T09:20:41Z</time>
      </trkpt>
      <trkpt lat="43.06085" lon="-7.17449">
        <ele>684</ele>
        <time>2016-07-12T09:20:53Z</time>
      </trkpt>
      <trkpt lat="43.06081" lon="-7.17437">
        <ele>685</ele>
        <time>2016-07-12T09:21:04Z</time>
      </trkpt>
      <trkpt lat="43.06079" lon="-7.17425">
        <ele>686.5</ele>
        <time>2016-07-12T09:21:21Z</time>
      </trkpt>
      <trkpt lat="43.06074" lon="-7.17414">
        <ele>686.9</ele>
        <time>2016-07-12T09:21:34Z</time>
      </trkpt>
      <trkpt lat="43.06069" lon="-7.17403">
        <ele>687.2</ele>
        <time>2016-07-12T09:21:45Z</time>
      </trkpt>
      <trkpt lat="43.06066" lon="-7.17391">
        <ele>687.1</ele>
        <time>2016-07-12T09:21:54Z</time>
      </trkpt>
      <trkpt lat="43.06061" lon="-7.17379">
        <ele>686.8</ele>
        <time>2016-07-12T09:22:03Z</time>
      </trkpt>
      <trkpt lat="43.06057" lon="-7.17367">
        <ele>686.8</ele>
        <time>2016-07-12T09:22:13Z</time>
      </trkpt>
      <trkpt lat="43.06052" lon="-7.17355">
        <ele>686.8</ele>
        <time>2016-07-12T09:22:22Z</time>
      </trkpt>
      <trkpt lat="43.06047" lon="-7.17344">
        <ele>686.7</ele>
        <time>2016-07-12T09:22:32Z</time>
      </trkpt>
      <trkpt lat="43.06044" lon="-7.17331">
        <ele>686.7</ele>
        <time>2016-07-12T09:22:40Z</time>
      </trkpt>
      <trkpt lat="43.0604" lon="-7.1732">
        <ele>686.5</ele>
        <time>2016-07-12T09:22:49Z</time>
      </trkpt>
      <trkpt lat="43.06034" lon="-7.1731">
        <ele>686.7</ele>
        <time>2016-07-12T09:22:57Z</time>
      </trkpt>
      <trkpt lat="43.06028" lon="-7.17301">
        <ele>686.6</ele>
        <time>2016-07-12T09:23:06Z</time>
      </trkpt>
      <trkpt lat="43.06021" lon="-7.17292">
        <ele>686.9</ele>
        <time>2016-07-12T09:23:16Z</time>
      </trkpt>
      <trkpt lat="43.06012" lon="-7.17286">
        <ele>687.2</ele>
        <time>2016-07-12T09:23:30Z</time>
      </trkpt>
      <trkpt lat="43.06004" lon="-7.1728">
        <ele>687.1</ele>
        <time>2016-07-12T09:23:39Z</time>
      </trkpt>
      <trkpt lat="43.05995" lon="-7.17276">
        <ele>686.9</ele>
        <time>2016-07-12T09:23:49Z</time>
      </trkpt>
      <trkpt lat="43.05985" lon="-7.17275">
        <ele>686.8</ele>
        <time>2016-07-12T09:23:59Z</time>
      </trkpt>
      <trkpt lat="43.05976" lon="-7.17275">
        <ele>686.6</ele>
        <time>2016-07-12T09:24:08Z</time>
      </trkpt>
      <trkpt lat="43.05967" lon="-7.17278">
        <ele>686.2</ele>
        <time>2016-07-12T09:24:20Z</time>
      </trkpt>
      <trkpt lat="43.05959" lon="-7.17284">
        <ele>685.9</ele>
        <time>2016-07-12T09:24:31Z</time>
      </trkpt>
      <trkpt lat="43.05951" lon="-7.17289">
        <ele>685.3</ele>
        <time>2016-07-12T09:24:43Z</time>
      </trkpt>
      <trkpt lat="43.05941" lon="-7.17293">
        <ele>685.2</ele>
        <time>2016-07-12T09:24:53Z</time>
      </trkpt>
      <trkpt lat="43.05932" lon="-7.17292">
        <ele>685</ele>
        <time>2016-07-12T09:25:00Z</time>
      </trkpt>
      <trkpt lat="43.05922" lon="-7.17291">
        <ele>684.9</ele>
        <time>2016-07-12T09:25:09Z</time>
      </trkpt>
      <trkpt lat="43.05912" lon="-7.1729">
        <ele>684.6</ele>
        <time>2016-07-12T09:25:18Z</time>
      </trkpt>
      <trkpt lat="43.05902" lon="-7.17289">
        <ele>684.5</ele>
        <time>2016-07-12T09:25:26Z</time>
      </trkpt>
      <trkpt lat="43.05893" lon="-7.17288">
        <ele>684.4</ele>
        <time>2016-07-12T09:25:34Z</time>
      </trkpt>
      <trkpt lat="43.05884" lon="-7.17285">
        <ele>684.2</ele>
        <time>2016-07-12T09:25:51Z</time>
      </trkpt>
      <trkpt lat="43.05874" lon="-7.17285">
        <ele>684.2</ele>
        <time>2016-07-12T09:26:02Z</time>
      </trkpt>
      <trkpt lat="43.05865" lon="-7.17286">
        <ele>684</ele>
        <time>2016-07-12T09:26:11Z</time>
      </trkpt>
      <trkpt lat="43.05855" lon="-7.17288">
        <ele>684.1</ele>
        <time>2016-07-12T09:26:21Z</time>
      </trkpt>
      <trkpt lat="43.05845" lon="-7.17289">
        <ele>684.4</ele>
        <time>2016-07-12T09:26:32Z</time>
      </trkpt>
      <trkpt lat="43.05836" lon="-7.1729">
        <ele>684.1</ele>
        <time>2016-07-12T09:26:41Z</time>
      </trkpt>
      <trkpt lat="43.05827" lon="-7.1729">
        <ele>683.2</ele>
        <time>2016-07-12T09:26:50Z</time>
      </trkpt>
      <trkpt lat="43.05817" lon="-7.17292">
        <ele>681.6</ele>
        <time>2016-07-12T09:27:04Z</time>
      </trkpt>
      <trkpt lat="43.05808" lon="-7.17293">
        <ele>679.8</ele>
        <time>2016-07-12T09:27:16Z</time>
      </trkpt>
      <trkpt lat="43.05799" lon="-7.17289">
        <ele>677.4</ele>
        <time>2016-07-12T09:27:26Z</time>
      </trkpt>
      <trkpt lat="43.0579" lon="-7.17284">
        <ele>675.7</ele>
        <time>2016-07-12T09:27:35Z</time>
      </trkpt>
      <trkpt lat="43.05783" lon="-7.17277">
        <ele>673.6</ele>
        <time>2016-07-12T09:27:50Z</time>
      </trkpt>
      <trkpt lat="43.05777" lon="-7.17267">
        <ele>672.2</ele>
        <time>2016-07-12T09:28:12Z</time>
      </trkpt>
      <trkpt lat="43.05768" lon="-7.1727">
        <ele>670.6</ele>
        <time>2016-07-12T09:28:53Z</time>
      </trkpt>
      <trkpt lat="43.05766" lon="-7.17284">
        <ele>670</ele>
        <time>2016-07-12T09:29:02Z</time>
      </trkpt>
      <trkpt lat="43.05765" lon="-7.17297">
        <ele>670</ele>
        <time>2016-07-12T09:29:11Z</time>
      </trkpt>
      <trkpt lat="43.0576" lon="-7.17309">
        <ele>670.2</ele>
        <time>2016-07-12T09:29:21Z</time>
      </trkpt>
      <trkpt lat="43.05753" lon="-7.17318">
        <ele>670.9</ele>
        <time>2016-07-12T09:29:32Z</time>
      </trkpt>
      <trkpt lat="43.05743" lon="-7.17319">
        <ele>671.3</ele>
        <time>2016-07-12T09:29:42Z</time>
      </trkpt>
      <trkpt lat="43.05735" lon="-7.17313">
        <ele>671.5</ele>
        <time>2016-07-12T09:29:51Z</time>
      </trkpt>
      <trkpt lat="43.05728" lon="-7.17305">
        <ele>671.5</ele>
        <time>2016-07-12T09:30:01Z</time>
      </trkpt>
      <trkpt lat="43.0572" lon="-7.17297">
        <ele>671.9</ele>
        <time>2016-07-12T09:30:10Z</time>
      </trkpt>
      <trkpt lat="43.05714" lon="-7.17288">
        <ele>671.9</ele>
        <time>2016-07-12T09:30:19Z</time>
      </trkpt>
      <trkpt lat="43.05706" lon="-7.1728">
        <ele>671.7</ele>
        <time>2016-07-12T09:30:29Z</time>
      </trkpt>
      <trkpt lat="43.05699" lon="-7.17272">
        <ele>671.5</ele>
        <time>2016-07-12T09:30:38Z</time>
      </trkpt>
      <trkpt lat="43.05692" lon="-7.17265">
        <ele>672</ele>
        <time>2016-07-12T09:30:48Z</time>
      </trkpt>
      <trkpt lat="43.05687" lon="-7.17255">
        <ele>672.4</ele>
        <time>2016-07-12T09:31:03Z</time>
      </trkpt>
      <trkpt lat="43.05679" lon="-7.17247">
        <ele>672.2</ele>
        <time>2016-07-12T09:34:47Z</time>
      </trkpt>
      <trkpt lat="43.0567" lon="-7.17243">
        <ele>672.8</ele>
        <time>2016-07-12T09:35:03Z</time>
      </trkpt>
      <trkpt lat="43.05662" lon="-7.17236">
        <ele>674.5</ele>
        <time>2016-07-12T09:35:18Z</time>
      </trkpt>
      <trkpt lat="43.05653" lon="-7.17236">
        <ele>676.1</ele>
        <time>2016-07-12T09:35:35Z</time>
      </trkpt>
      <trkpt lat="43.05644" lon="-7.17242">
        <ele>678.1</ele>
        <time>2016-07-12T09:35:51Z</time>
      </trkpt>
      <trkpt lat="43.05635" lon="-7.17245">
        <ele>679.5</ele>
        <time>2016-07-12T09:36:03Z</time>
      </trkpt>
      <trkpt lat="43.05626" lon="-7.17249">
        <ele>680.9</ele>
        <time>2016-07-12T09:36:18Z</time>
      </trkpt>
      <trkpt lat="43.05619" lon="-7.17258">
        <ele>682</ele>
        <time>2016-07-12T09:36:30Z</time>
      </trkpt>
      <trkpt lat="43.05611" lon="-7.17266">
        <ele>683.5</ele>
        <time>2016-07-12T09:36:43Z</time>
      </trkpt>
      <trkpt lat="43.05604" lon="-7.17274">
        <ele>684.3</ele>
        <time>2016-07-12T09:36:55Z</time>
      </trkpt>
      <trkpt lat="43.05597" lon="-7.17283">
        <ele>685.8</ele>
        <time>2016-07-12T09:37:06Z</time>
      </trkpt>
      <trkpt lat="43.05592" lon="-7.17293">
        <ele>687</ele>
        <time>2016-07-12T09:37:17Z</time>
      </trkpt>
      <trkpt lat="43.05584" lon="-7.173">
        <ele>688.1</ele>
        <time>2016-07-12T09:37:30Z</time>
      </trkpt>
      <trkpt lat="43.05577" lon="-7.17308">
        <ele>689</ele>
        <time>2016-07-12T09:37:44Z</time>
      </trkpt>
      <trkpt lat="43.05569" lon="-7.17317">
        <ele>690.8</ele>
        <time>2016-07-12T09:37:57Z</time>
      </trkpt>
      <trkpt lat="43.05562" lon="-7.17326">
        <ele>692.9</ele>
        <time>2016-07-12T09:38:10Z</time>
      </trkpt>
      <trkpt lat="43.05555" lon="-7.17335">
        <ele>694.4</ele>
        <time>2016-07-12T09:38:23Z</time>
      </trkpt>
      <trkpt lat="43.05549" lon="-7.17344">
        <ele>695.9</ele>
        <time>2016-07-12T09:38:38Z</time>
      </trkpt>
      <trkpt lat="43.05542" lon="-7.17353">
        <ele>698.4</ele>
        <time>2016-07-12T09:38:57Z</time>
      </trkpt>
      <trkpt lat="43.05539" lon="-7.17365">
        <ele>700.7</ele>
        <time>2016-07-12T09:39:14Z</time>
      </trkpt>
      <trkpt lat="43.05534" lon="-7.17376">
        <ele>702.3</ele>
        <time>2016-07-12T09:39:31Z</time>
      </trkpt>
      <trkpt lat="43.05527" lon="-7.17385">
        <ele>704.3</ele>
        <time>2016-07-12T09:39:46Z</time>
      </trkpt>
      <trkpt lat="43.05522" lon="-7.17396">
        <ele>705.5</ele>
        <time>2016-07-12T09:40:02Z</time>
      </trkpt>
      <trkpt lat="43.05522" lon="-7.17408">
        <ele>707.2</ele>
        <time>2016-07-12T09:40:16Z</time>
      </trkpt>
      <trkpt lat="43.05523" lon="-7.17421">
        <ele>708.7</ele>
        <time>2016-07-12T09:40:28Z</time>
      </trkpt>
      <trkpt lat="43.05525" lon="-7.17433">
        <ele>709.6</ele>
        <time>2016-07-12T09:40:42Z</time>
      </trkpt>
      <trkpt lat="43.05527" lon="-7.17447">
        <ele>710.9</ele>
        <time>2016-07-12T09:40:58Z</time>
      </trkpt>
      <trkpt lat="43.0553" lon="-7.17459">
        <ele>712.5</ele>
        <time>2016-07-12T09:41:12Z</time>
      </trkpt>
      <trkpt lat="43.05532" lon="-7.17471">
        <ele>714.4</ele>
        <time>2016-07-12T09:41:26Z</time>
      </trkpt>
      <trkpt lat="43.05532" lon="-7.17484">
        <ele>716.3</ele>
        <time>2016-07-12T09:41:45Z</time>
      </trkpt>
      <trkpt lat="43.05526" lon="-7.17493">
        <ele>719.5</ele>
        <time>2016-07-12T09:42:06Z</time>
      </trkpt>
      <trkpt lat="43.05521" lon="-7.17504">
        <ele>721.1</ele>
        <time>2016-07-12T09:42:49Z</time>
      </trkpt>
      <trkpt lat="43.05511" lon="-7.17505">
        <ele>722.5</ele>
        <time>2016-07-12T09:43:04Z</time>
      </trkpt>
      <trkpt lat="43.05503" lon="-7.17502">
        <ele>724.2</ele>
        <time>2016-07-12T09:43:16Z</time>
      </trkpt>
      <trkpt lat="43.05494" lon="-7.17499">
        <ele>725.3</ele>
        <time>2016-07-12T09:43:27Z</time>
      </trkpt>
      <trkpt lat="43.05484" lon="-7.175">
        <ele>726.8</ele>
        <time>2016-07-12T09:43:43Z</time>
      </trkpt>
      <trkpt lat="43.05475" lon="-7.17502">
        <ele>728</ele>
        <time>2016-07-12T09:43:56Z</time>
      </trkpt>
      <trkpt lat="43.05466" lon="-7.17506">
        <ele>728.7</ele>
        <time>2016-07-12T09:44:06Z</time>
      </trkpt>
      <trkpt lat="43.05458" lon="-7.17513">
        <ele>729.7</ele>
        <time>2016-07-12T09:44:16Z</time>
      </trkpt>
      <trkpt lat="43.05451" lon="-7.17522">
        <ele>731.2</ele>
        <time>2016-07-12T09:44:31Z</time>
      </trkpt>
      <trkpt lat="43.05444" lon="-7.1753">
        <ele>731.9</ele>
        <time>2016-07-12T09:44:45Z</time>
      </trkpt>
      <trkpt lat="43.05435" lon="-7.17534">
        <ele>732.9</ele>
        <time>2016-07-12T09:44:57Z</time>
      </trkpt>
      <trkpt lat="43.05428" lon="-7.17542">
        <ele>734</ele>
        <time>2016-07-12T09:45:09Z</time>
      </trkpt>
      <trkpt lat="43.05421" lon="-7.1755">
        <ele>735.1</ele>
        <time>2016-07-12T09:45:25Z</time>
      </trkpt>
      <trkpt lat="43.05413" lon="-7.17558">
        <ele>735.8</ele>
        <time>2016-07-12T09:45:44Z</time>
      </trkpt>
      <trkpt lat="43.05407" lon="-7.17568">
        <ele>737</ele>
        <time>2016-07-12T09:45:56Z</time>
      </trkpt>
      <trkpt lat="43.05402" lon="-7.17579">
        <ele>738.7</ele>
        <time>2016-07-12T09:46:11Z</time>
      </trkpt>
      <trkpt lat="43.05395" lon="-7.17586">
        <ele>739.9</ele>
        <time>2016-07-12T09:46:22Z</time>
      </trkpt>
      <trkpt lat="43.05388" lon="-7.17595">
        <ele>741.2</ele>
        <time>2016-07-12T09:46:32Z</time>
      </trkpt>
      <trkpt lat="43.05381" lon="-7.17604">
        <ele>742.3</ele>
        <time>2016-07-12T09:46:45Z</time>
      </trkpt>
      <trkpt lat="43.05375" lon="-7.17613">
        <ele>744.2</ele>
        <time>2016-07-12T09:47:03Z</time>
      </trkpt>
      <trkpt lat="43.05368" lon="-7.17622">
        <ele>746.3</ele>
        <time>2016-07-12T09:47:21Z</time>
      </trkpt>
      <trkpt lat="43.05361" lon="-7.17631">
        <ele>747.9</ele>
        <time>2016-07-12T09:47:38Z</time>
      </trkpt>
      <trkpt lat="43.05353" lon="-7.17637">
        <ele>749.8</ele>
        <time>2016-07-12T09:47:59Z</time>
      </trkpt>
      <trkpt lat="43.05347" lon="-7.17647">
        <ele>752.1</ele>
        <time>2016-07-12T09:48:17Z</time>
      </trkpt>
      <trkpt lat="43.05342" lon="-7.17658">
        <ele>754.6</ele>
        <time>2016-07-12T09:48:33Z</time>
      </trkpt>
      <trkpt lat="43.05338" lon="-7.17669">
        <ele>757.9</ele>
        <time>2016-07-12T09:49:14Z</time>
      </trkpt>
      <trkpt lat="43.05334" lon="-7.1768">
        <ele>759.2</ele>
        <time>2016-07-12T09:49:29Z</time>
      </trkpt>
      <trkpt lat="43.05331" lon="-7.17692">
        <ele>762.3</ele>
        <time>2016-07-12T09:49:47Z</time>
      </trkpt>
      <trkpt lat="43.05333" lon="-7.17704">
        <ele>764.7</ele>
        <time>2016-07-12T09:50:04Z</time>
      </trkpt>
      <trkpt lat="43.05332" lon="-7.17717">
        <ele>767.2</ele>
        <time>2016-07-12T09:50:23Z</time>
      </trkpt>
      <trkpt lat="43.05335" lon="-7.17729">
        <ele>768.9</ele>
        <time>2016-07-12T09:50:43Z</time>
      </trkpt>
      <trkpt lat="43.0533" lon="-7.17739">
        <ele>774.3</ele>
        <time>2016-07-12T09:51:17Z</time>
      </trkpt>
      <trkpt lat="43.05327" lon="-7.17751">
        <ele>776.5</ele>
        <time>2016-07-12T09:51:35Z</time>
      </trkpt>
      <trkpt lat="43.0532" lon="-7.17759">
        <ele>779.8</ele>
        <time>2016-07-12T09:52:02Z</time>
      </trkpt>
      <trkpt lat="43.05311" lon="-7.17764">
        <ele>781</ele>
        <time>2016-07-12T09:53:06Z</time>
      </trkpt>
      <trkpt lat="43.05302" lon="-7.17771">
        <ele>782.7</ele>
        <time>2016-07-12T09:53:24Z</time>
      </trkpt>
      <trkpt lat="43.05294" lon="-7.17776">
        <ele>784.2</ele>
        <time>2016-07-12T09:53:38Z</time>
      </trkpt>
      <trkpt lat="43.05285" lon="-7.17781">
        <ele>786.5</ele>
        <time>2016-07-12T09:53:55Z</time>
      </trkpt>
      <trkpt lat="43.05276" lon="-7.17782">
        <ele>789.1</ele>
        <time>2016-07-12T09:54:12Z</time>
      </trkpt>
      <trkpt lat="43.05267" lon="-7.17781">
        <ele>791.8</ele>
        <time>2016-07-12T09:54:28Z</time>
      </trkpt>
      <trkpt lat="43.05259" lon="-7.17787">
        <ele>794.3</ele>
        <time>2016-07-12T09:54:47Z</time>
      </trkpt>
      <trkpt lat="43.0525" lon="-7.1779">
        <ele>796.8</ele>
        <time>2016-07-12T09:55:04Z</time>
      </trkpt>
      <trkpt lat="43.05241" lon="-7.17791">
        <ele>799.2</ele>
        <time>2016-07-12T09:55:18Z</time>
      </trkpt>
      <trkpt lat="43.05236" lon="-7.17801">
        <ele>801.5</ele>
        <time>2016-07-12T09:55:48Z</time>
      </trkpt>
      <trkpt lat="43.05228" lon="-7.17808">
        <ele>804.2</ele>
        <time>2016-07-12T09:56:07Z</time>
      </trkpt>
      <trkpt lat="43.0522" lon="-7.17813">
        <ele>806.4</ele>
        <time>2016-07-12T09:56:22Z</time>
      </trkpt>
      <trkpt lat="43.05213" lon="-7.17821">
        <ele>808.4</ele>
        <time>2016-07-12T09:56:36Z</time>
      </trkpt>
      <trkpt lat="43.05205" lon="-7.17827">
        <ele>810.6</ele>
        <time>2016-07-12T09:57:20Z</time>
      </trkpt>
      <trkpt lat="43.05197" lon="-7.17834">
        <ele>812.1</ele>
        <time>2016-07-12T09:57:34Z</time>
      </trkpt>
      <trkpt lat="43.05191" lon="-7.17843">
        <ele>815.5</ele>
        <time>2016-07-12T09:58:01Z</time>
      </trkpt>
      <trkpt lat="43.05183" lon="-7.1785">
        <ele>815.9</ele>
        <time>2016-07-12T09:58:12Z</time>
      </trkpt>
      <trkpt lat="43.05173" lon="-7.17849">
        <ele>816</ele>
        <time>2016-07-12T09:58:20Z</time>
      </trkpt>
      <trkpt lat="43.05164" lon="-7.1785">
        <ele>816.6</ele>
        <time>2016-07-12T09:58:29Z</time>
      </trkpt>
      <trkpt lat="43.05154" lon="-7.17853">
        <ele>817.2</ele>
        <time>2016-07-12T09:58:39Z</time>
      </trkpt>
      <trkpt lat="43.05146" lon="-7.17858">
        <ele>818.1</ele>
        <time>2016-07-12T09:58:48Z</time>
      </trkpt>
      <trkpt lat="43.05137" lon="-7.17863">
        <ele>818.6</ele>
        <time>2016-07-12T09:58:57Z</time>
      </trkpt>
      <trkpt lat="43.05128" lon="-7.17868">
        <ele>818.4</ele>
        <time>2016-07-12T09:59:06Z</time>
      </trkpt>
      <trkpt lat="43.05121" lon="-7.17876">
        <ele>818.3</ele>
        <time>2016-07-12T09:59:17Z</time>
      </trkpt>
      <trkpt lat="43.05114" lon="-7.17886">
        <ele>818.3</ele>
        <time>2016-07-12T09:59:25Z</time>
      </trkpt>
      <trkpt lat="43.05108" lon="-7.17896">
        <ele>818.2</ele>
        <time>2016-07-12T09:59:33Z</time>
      </trkpt>
      <trkpt lat="43.05101" lon="-7.17905">
        <ele>817.9</ele>
        <time>2016-07-12T09:59:42Z</time>
      </trkpt>
      <trkpt lat="43.05098" lon="-7.17917">
        <ele>817.8</ele>
        <time>2016-07-12T09:59:51Z</time>
      </trkpt>
      <trkpt lat="43.05089" lon="-7.1792">
        <ele>817.7</ele>
        <time>2016-07-12T10:00:04Z</time>
      </trkpt>
      <trkpt lat="43.0509" lon="-7.17907">
        <ele>818</ele>
        <time>2016-07-12T10:00:21Z</time>
      </trkpt>
      <trkpt lat="43.05095" lon="-7.17897">
        <ele>818.2</ele>
        <time>2016-07-12T10:00:31Z</time>
      </trkpt>
      <trkpt lat="43.05097" lon="-7.17884">
        <ele>818.3</ele>
        <time>2016-07-12T10:00:41Z</time>
      </trkpt>
      <trkpt lat="43.05097" lon="-7.17871">
        <ele>819.3</ele>
        <time>2016-07-12T10:00:57Z</time>
      </trkpt>
      <trkpt lat="43.05089" lon="-7.17864">
        <ele>820.3</ele>
        <time>2016-07-12T10:01:20Z</time>
      </trkpt>
      <trkpt lat="43.0508" lon="-7.17863">
        <ele>820</ele>
        <time>2016-07-12T10:01:42Z</time>
      </trkpt>
      <trkpt lat="43.05086" lon="-7.17854">
        <ele>820.3</ele>
        <time>2016-07-12T10:08:23Z</time>
      </trkpt>
      <trkpt lat="43.05095" lon="-7.17853">
        <ele>818.8</ele>
        <time>2016-07-12T10:11:59Z</time>
      </trkpt>
      <trkpt lat="43.05089" lon="-7.17862">
        <ele>819.4</ele>
        <time>2016-07-12T10:12:38Z</time>
      </trkpt>
      <trkpt lat="43.05079" lon="-7.1786">
        <ele>818.8</ele>
        <time>2016-07-12T10:14:06Z</time>
      </trkpt>
      <trkpt lat="43.0507" lon="-7.17858">
        <ele>819.1</ele>
        <time>2016-07-12T10:14:21Z</time>
      </trkpt>
      <trkpt lat="43.05073" lon="-7.1787">
        <ele>819.5</ele>
        <time>2016-07-12T10:15:04Z</time>
      </trkpt>
      <trkpt lat="43.05077" lon="-7.17859">
        <ele>819.1</ele>
        <time>2016-07-12T10:16:06Z</time>
      </trkpt>
      <trkpt lat="43.05086" lon="-7.17855">
        <ele>819</ele>
        <time>2016-07-12T10:18:46Z</time>
      </trkpt>
      <trkpt lat="43.05077" lon="-7.17856">
        <ele>818.5</ele>
        <time>2016-07-12T10:23:00Z</time>
      </trkpt>
      <trkpt lat="43.05086" lon="-7.17859">
        <ele>818.7</ele>
        <time>2016-07-12T10:23:36Z</time>
      </trkpt>
      <trkpt lat="43.05081" lon="-7.17871">
        <ele>817.5</ele>
        <time>2016-07-12T10:28:23Z</time>
      </trkpt>
      <trkpt lat="43.05086" lon="-7.1786">
        <ele>817.9</ele>
        <time>2016-07-12T10:28:53Z</time>
      </trkpt>
      <trkpt lat="43.05083" lon="-7.17873">
        <ele>818.3</ele>
        <time>2016-07-12T10:34:36Z</time>
      </trkpt>
      <trkpt lat="43.05081" lon="-7.17886">
        <ele>818</ele>
        <time>2016-07-12T10:34:49Z</time>
      </trkpt>
      <trkpt lat="43.05082" lon="-7.17899">
        <ele>817.3</ele>
        <time>2016-07-12T10:35:05Z</time>
      </trkpt>
      <trkpt lat="43.05083" lon="-7.17912">
        <ele>816.7</ele>
        <time>2016-07-12T10:35:15Z</time>
      </trkpt>
      <trkpt lat="43.05087" lon="-7.17924">
        <ele>815.9</ele>
        <time>2016-07-12T10:35:26Z</time>
      </trkpt>
      <trkpt lat="43.05089" lon="-7.17937">
        <ele>815.5</ele>
        <time>2016-07-12T10:35:36Z</time>
      </trkpt>
      <trkpt lat="43.05092" lon="-7.17949">
        <ele>815.2</ele>
        <time>2016-07-12T10:35:45Z</time>
      </trkpt>
      <trkpt lat="43.05095" lon="-7.17961">
        <ele>814.4</ele>
        <time>2016-07-12T10:35:54Z</time>
      </trkpt>
      <trkpt lat="43.05097" lon="-7.17974">
        <ele>813.9</ele>
        <time>2016-07-12T10:36:06Z</time>
      </trkpt>
      <trkpt lat="43.05097" lon="-7.17987">
        <ele>813.6</ele>
        <time>2016-07-12T10:36:15Z</time>
      </trkpt>
      <trkpt lat="43.05098" lon="-7.18">
        <ele>812.7</ele>
        <time>2016-07-12T10:36:25Z</time>
      </trkpt>
      <trkpt lat="43.05099" lon="-7.18012">
        <ele>812.1</ele>
        <time>2016-07-12T10:36:36Z</time>
      </trkpt>
      <trkpt lat="43.05103" lon="-7.18025">
        <ele>811.7</ele>
        <time>2016-07-12T10:36:49Z</time>
      </trkpt>
      <trkpt lat="43.05105" lon="-7.18038">
        <ele>811.4</ele>
        <time>2016-07-12T10:36:59Z</time>
      </trkpt>
      <trkpt lat="43.05107" lon="-7.18051">
        <ele>811.3</ele>
        <time>2016-07-12T10:37:09Z</time>
      </trkpt>
      <trkpt lat="43.05109" lon="-7.18064">
        <ele>811</ele>
        <time>2016-07-12T10:37:17Z</time>
      </trkpt>
      <trkpt lat="43.0511" lon="-7.18078">
        <ele>810.7</ele>
        <time>2016-07-12T10:37:25Z</time>
      </trkpt>
      <trkpt lat="43.05111" lon="-7.1809">
        <ele>810.2</ele>
        <time>2016-07-12T10:37:33Z</time>
      </trkpt>
      <trkpt lat="43.05112" lon="-7.18103">
        <ele>810.2</ele>
        <time>2016-07-12T10:37:40Z</time>
      </trkpt>
      <trkpt lat="43.05113" lon="-7.18115">
        <ele>810</ele>
        <time>2016-07-12T10:37:48Z</time>
      </trkpt>
      <trkpt lat="43.05115" lon="-7.18129">
        <ele>809.6</ele>
        <time>2016-07-12T10:37:56Z</time>
      </trkpt>
      <trkpt lat="43.05117" lon="-7.18141">
        <ele>809.4</ele>
        <time>2016-07-12T10:38:05Z</time>
      </trkpt>
      <trkpt lat="43.0512" lon="-7.18154">
        <ele>809.4</ele>
        <time>2016-07-12T10:38:14Z</time>
      </trkpt>
      <trkpt lat="43.05119" lon="-7.18168">
        <ele>809.4</ele>
        <time>2016-07-12T10:38:22Z</time>
      </trkpt>
      <trkpt lat="43.05118" lon="-7.18182">
        <ele>809.5</ele>
        <time>2016-07-12T10:38:30Z</time>
      </trkpt>
      <trkpt lat="43.05117" lon="-7.18195">
        <ele>809.5</ele>
        <time>2016-07-12T10:38:37Z</time>
      </trkpt>
      <trkpt lat="43.05114" lon="-7.18207">
        <ele>809.6</ele>
        <time>2016-07-12T10:38:45Z</time>
      </trkpt>
      <trkpt lat="43.05108" lon="-7.18218">
        <ele>809.5</ele>
        <time>2016-07-12T10:38:54Z</time>
      </trkpt>
      <trkpt lat="43.05103" lon="-7.18229">
        <ele>809.5</ele>
        <time>2016-07-12T10:39:03Z</time>
      </trkpt>
      <trkpt lat="43.05097" lon="-7.18239">
        <ele>809.4</ele>
        <time>2016-07-12T10:39:11Z</time>
      </trkpt>
      <trkpt lat="43.0509" lon="-7.18249">
        <ele>809.3</ele>
        <time>2016-07-12T10:39:20Z</time>
      </trkpt>
      <trkpt lat="43.05083" lon="-7.18255">
        <ele>809.2</ele>
        <time>2016-07-12T10:39:28Z</time>
      </trkpt>
      <trkpt lat="43.05075" lon="-7.18263">
        <ele>808.3</ele>
        <time>2016-07-12T10:39:37Z</time>
      </trkpt>
      <trkpt lat="43.05067" lon="-7.1827">
        <ele>807.8</ele>
        <time>2016-07-12T10:39:45Z</time>
      </trkpt>
      <trkpt lat="43.0506" lon="-7.18279">
        <ele>807.3</ele>
        <time>2016-07-12T10:39:54Z</time>
      </trkpt>
      <trkpt lat="43.05053" lon="-7.18289">
        <ele>806.6</ele>
        <time>2016-07-12T10:40:03Z</time>
      </trkpt>
      <trkpt lat="43.05047" lon="-7.18299">
        <ele>806.2</ele>
        <time>2016-07-12T10:40:12Z</time>
      </trkpt>
      <trkpt lat="43.05045" lon="-7.18311">
        <ele>805.7</ele>
        <time>2016-07-12T10:40:23Z</time>
      </trkpt>
      <trkpt lat="43.05039" lon="-7.18322">
        <ele>804.6</ele>
        <time>2016-07-12T10:40:32Z</time>
      </trkpt>
      <trkpt lat="43.05032" lon="-7.18333">
        <ele>803.9</ele>
        <time>2016-07-12T10:40:42Z</time>
      </trkpt>
      <trkpt lat="43.05025" lon="-7.18341">
        <ele>803.3</ele>
        <time>2016-07-12T10:40:50Z</time>
      </trkpt>
      <trkpt lat="43.05018" lon="-7.1835">
        <ele>802.6</ele>
        <time>2016-07-12T10:40:58Z</time>
      </trkpt>
      <trkpt lat="43.05013" lon="-7.18361">
        <ele>802.2</ele>
        <time>2016-07-12T10:41:07Z</time>
      </trkpt>
      <trkpt lat="43.05009" lon="-7.18373">
        <ele>801.5</ele>
        <time>2016-07-12T10:41:18Z</time>
      </trkpt>
      <trkpt lat="43.05005" lon="-7.18385">
        <ele>800.2</ele>
        <time>2016-07-12T10:41:28Z</time>
      </trkpt>
      <trkpt lat="43.05" lon="-7.18398">
        <ele>800.4</ele>
        <time>2016-07-12T10:41:39Z</time>
      </trkpt>
      <trkpt lat="43.04997" lon="-7.1841">
        <ele>800.2</ele>
        <time>2016-07-12T10:41:48Z</time>
      </trkpt>
      <trkpt lat="43.04993" lon="-7.18422">
        <ele>799.8</ele>
        <time>2016-07-12T10:41:56Z</time>
      </trkpt>
      <trkpt lat="43.04987" lon="-7.18432">
        <ele>799.4</ele>
        <time>2016-07-12T10:42:03Z</time>
      </trkpt>
      <trkpt lat="43.0498" lon="-7.1844">
        <ele>798.6</ele>
        <time>2016-07-12T10:42:11Z</time>
      </trkpt>
      <trkpt lat="43.04972" lon="-7.18448">
        <ele>798.2</ele>
        <time>2016-07-12T10:42:18Z</time>
      </trkpt>
      <trkpt lat="43.04964" lon="-7.18457">
        <ele>797.8</ele>
        <time>2016-07-12T10:42:26Z</time>
      </trkpt>
      <trkpt lat="43.04957" lon="-7.18465">
        <ele>797.5</ele>
        <time>2016-07-12T10:42:34Z</time>
      </trkpt>
      <trkpt lat="43.04949" lon="-7.18472">
        <ele>797.2</ele>
        <time>2016-07-12T10:42:44Z</time>
      </trkpt>
      <trkpt lat="43.04941" lon="-7.1848">
        <ele>796.8</ele>
        <time>2016-07-12T10:42:53Z</time>
      </trkpt>
      <trkpt lat="43.04938" lon="-7.18492">
        <ele>796.5</ele>
        <time>2016-07-12T10:43:03Z</time>
      </trkpt>
      <trkpt lat="43.04937" lon="-7.18505">
        <ele>796.4</ele>
        <time>2016-07-12T10:43:13Z</time>
      </trkpt>
      <trkpt lat="43.04933" lon="-7.18517">
        <ele>796.3</ele>
        <time>2016-07-12T10:43:22Z</time>
      </trkpt>
      <trkpt lat="43.04927" lon="-7.18527">
        <ele>796.6</ele>
        <time>2016-07-12T10:43:31Z</time>
      </trkpt>
      <trkpt lat="43.04922" lon="-7.18538">
        <ele>797.7</ele>
        <time>2016-07-12T10:43:41Z</time>
      </trkpt>
      <trkpt lat="43.04913" lon="-7.18543">
        <ele>798.6</ele>
        <time>2016-07-12T10:43:52Z</time>
      </trkpt>
      <trkpt lat="43.04905" lon="-7.18551">
        <ele>799.4</ele>
        <time>2016-07-12T10:44:04Z</time>
      </trkpt>
      <trkpt lat="43.04898" lon="-7.18559">
        <ele>800</ele>
        <time>2016-07-12T10:44:14Z</time>
      </trkpt>
      <trkpt lat="43.04896" lon="-7.18572">
        <ele>801</ele>
        <time>2016-07-12T10:44:23Z</time>
      </trkpt>
      <trkpt lat="43.04889" lon="-7.18579">
        <ele>801.7</ele>
        <time>2016-07-12T10:44:33Z</time>
      </trkpt>
      <trkpt lat="43.04881" lon="-7.18587">
        <ele>802.4</ele>
        <time>2016-07-12T10:44:44Z</time>
      </trkpt>
      <trkpt lat="43.04872" lon="-7.18592">
        <ele>803.2</ele>
        <time>2016-07-12T10:44:54Z</time>
      </trkpt>
      <trkpt lat="43.04863" lon="-7.18596">
        <ele>804.4</ele>
        <time>2016-07-12T10:45:05Z</time>
      </trkpt>
      <trkpt lat="43.04854" lon="-7.186">
        <ele>805.3</ele>
        <time>2016-07-12T10:45:17Z</time>
      </trkpt>
      <trkpt lat="43.04845" lon="-7.18604">
        <ele>805.8</ele>
        <time>2016-07-12T10:45:27Z</time>
      </trkpt>
      <trkpt lat="43.04836" lon="-7.18604">
        <ele>806.5</ele>
        <time>2016-07-12T10:45:35Z</time>
      </trkpt>
      <trkpt lat="43.04826" lon="-7.18603">
        <ele>807.5</ele>
        <time>2016-07-12T10:45:45Z</time>
      </trkpt>
      <trkpt lat="43.04816" lon="-7.18601">
        <ele>808.3</ele>
        <time>2016-07-12T10:45:53Z</time>
      </trkpt>
      <trkpt lat="43.04806" lon="-7.186">
        <ele>809.2</ele>
        <time>2016-07-12T10:46:03Z</time>
      </trkpt>
      <trkpt lat="43.04797" lon="-7.18599">
        <ele>810.7</ele>
        <time>2016-07-12T10:46:13Z</time>
      </trkpt>
      <trkpt lat="43.04788" lon="-7.18605">
        <ele>812.4</ele>
        <time>2016-07-12T10:46:24Z</time>
      </trkpt>
      <trkpt lat="43.04781" lon="-7.18613">
        <ele>813.3</ele>
        <time>2016-07-12T10:46:35Z</time>
      </trkpt>
      <trkpt lat="43.04776" lon="-7.18624">
        <ele>815.7</ele>
        <time>2016-07-12T10:46:48Z</time>
      </trkpt>
      <trkpt lat="43.04774" lon="-7.18636">
        <ele>817.3</ele>
        <time>2016-07-12T10:47:00Z</time>
      </trkpt>
      <trkpt lat="43.0477" lon="-7.18649">
        <ele>819.7</ele>
        <time>2016-07-12T10:47:11Z</time>
      </trkpt>
      <trkpt lat="43.04768" lon="-7.18661">
        <ele>821.1</ele>
        <time>2016-07-12T10:47:20Z</time>
      </trkpt>
      <trkpt lat="43.04764" lon="-7.18674">
        <ele>822.4</ele>
        <time>2016-07-12T10:47:29Z</time>
      </trkpt>
      <trkpt lat="43.04761" lon="-7.18686">
        <ele>823.5</ele>
        <time>2016-07-12T10:47:38Z</time>
      </trkpt>
      <trkpt lat="43.04756" lon="-7.18698">
        <ele>824.6</ele>
        <time>2016-07-12T10:47:48Z</time>
      </trkpt>
      <trkpt lat="43.0475" lon="-7.18706">
        <ele>828.5</ele>
        <time>2016-07-12T10:49:31Z</time>
      </trkpt>
      <trkpt lat="43.04745" lon="-7.18718">
        <ele>829.5</ele>
        <time>2016-07-12T10:49:41Z</time>
      </trkpt>
      <trkpt lat="43.0474" lon="-7.18728">
        <ele>830.3</ele>
        <time>2016-07-12T10:49:50Z</time>
      </trkpt>
      <trkpt lat="43.04735" lon="-7.18739">
        <ele>831.2</ele>
        <time>2016-07-12T10:49:58Z</time>
      </trkpt>
      <trkpt lat="43.04728" lon="-7.18748">
        <ele>832.2</ele>
        <time>2016-07-12T10:50:07Z</time>
      </trkpt>
      <trkpt lat="43.0472" lon="-7.18754">
        <ele>833.2</ele>
        <time>2016-07-12T10:50:16Z</time>
      </trkpt>
      <trkpt lat="43.04712" lon="-7.18761">
        <ele>834.5</ele>
        <time>2016-07-12T10:50:29Z</time>
      </trkpt>
      <trkpt lat="43.04704" lon="-7.18768">
        <ele>836.3</ele>
        <time>2016-07-12T10:50:43Z</time>
      </trkpt>
      <trkpt lat="43.04694" lon="-7.18771">
        <ele>837.6</ele>
        <time>2016-07-12T10:50:53Z</time>
      </trkpt>
      <trkpt lat="43.04685" lon="-7.18776">
        <ele>838.6</ele>
        <time>2016-07-12T10:51:03Z</time>
      </trkpt>
      <trkpt lat="43.04676" lon="-7.1878">
        <ele>839.6</ele>
        <time>2016-07-12T10:51:11Z</time>
      </trkpt>
      <trkpt lat="43.04667" lon="-7.18784">
        <ele>840.9</ele>
        <time>2016-07-12T10:51:20Z</time>
      </trkpt>
      <trkpt lat="43.04658" lon="-7.1879">
        <ele>842.1</ele>
        <time>2016-07-12T10:51:31Z</time>
      </trkpt>
      <trkpt lat="43.04649" lon="-7.18794">
        <ele>843.4</ele>
        <time>2016-07-12T10:51:41Z</time>
      </trkpt>
      <trkpt lat="43.0464" lon="-7.188">
        <ele>845.1</ele>
        <time>2016-07-12T10:51:52Z</time>
      </trkpt>
      <trkpt lat="43.04632" lon="-7.18806">
        <ele>845.9</ele>
        <time>2016-07-12T10:52:03Z</time>
      </trkpt>
      <trkpt lat="43.04622" lon="-7.18809">
        <ele>846.8</ele>
        <time>2016-07-12T10:52:11Z</time>
      </trkpt>
      <trkpt lat="43.04613" lon="-7.1881">
        <ele>847.5</ele>
        <time>2016-07-12T10:52:20Z</time>
      </trkpt>
      <trkpt lat="43.04604" lon="-7.18815">
        <ele>848.5</ele>
        <time>2016-07-12T10:52:30Z</time>
      </trkpt>
      <trkpt lat="43.04597" lon="-7.18822">
        <ele>849.6</ele>
        <time>2016-07-12T10:52:40Z</time>
      </trkpt>
      <trkpt lat="43.04591" lon="-7.18832">
        <ele>850.6</ele>
        <time>2016-07-12T10:52:50Z</time>
      </trkpt>
      <trkpt lat="43.04586" lon="-7.18843">
        <ele>851.4</ele>
        <time>2016-07-12T10:53:00Z</time>
      </trkpt>
      <trkpt lat="43.04579" lon="-7.18852">
        <ele>852.4</ele>
        <time>2016-07-12T10:53:11Z</time>
      </trkpt>
      <trkpt lat="43.04572" lon="-7.18859">
        <ele>853.4</ele>
        <time>2016-07-12T10:53:22Z</time>
      </trkpt>
      <trkpt lat="43.04564" lon="-7.18865">
        <ele>855</ele>
        <time>2016-07-12T10:53:32Z</time>
      </trkpt>
      <trkpt lat="43.04559" lon="-7.18876">
        <ele>856.6</ele>
        <time>2016-07-12T10:53:43Z</time>
      </trkpt>
      <trkpt lat="43.04555" lon="-7.18887">
        <ele>857.7</ele>
        <time>2016-07-12T10:53:53Z</time>
      </trkpt>
      <trkpt lat="43.04549" lon="-7.18896">
        <ele>859</ele>
        <time>2016-07-12T10:54:04Z</time>
      </trkpt>
      <trkpt lat="43.04543" lon="-7.18906">
        <ele>860.4</ele>
        <time>2016-07-12T10:54:15Z</time>
      </trkpt>
      <trkpt lat="43.04537" lon="-7.18916">
        <ele>862.4</ele>
        <time>2016-07-12T10:54:26Z</time>
      </trkpt>
      <trkpt lat="43.04531" lon="-7.18925">
        <ele>865.3</ele>
        <time>2016-07-12T10:54:56Z</time>
      </trkpt>
      <trkpt lat="43.04525" lon="-7.18935">
        <ele>866.4</ele>
        <time>2016-07-12T10:56:39Z</time>
      </trkpt>
      <trkpt lat="43.04518" lon="-7.18943">
        <ele>866.6</ele>
        <time>2016-07-12T10:56:53Z</time>
      </trkpt>
      <trkpt lat="43.04511" lon="-7.18952">
        <ele>867.9</ele>
        <time>2016-07-12T10:57:06Z</time>
      </trkpt>
      <trkpt lat="43.04504" lon="-7.18961">
        <ele>869.1</ele>
        <time>2016-07-12T10:57:19Z</time>
      </trkpt>
      <trkpt lat="43.04498" lon="-7.18971">
        <ele>870.8</ele>
        <time>2016-07-12T10:57:32Z</time>
      </trkpt>
      <trkpt lat="43.04491" lon="-7.1898">
        <ele>872.2</ele>
        <time>2016-07-12T10:57:44Z</time>
      </trkpt>
      <trkpt lat="43.04484" lon="-7.18989">
        <ele>874.5</ele>
        <time>2016-07-12T10:57:56Z</time>
      </trkpt>
      <trkpt lat="43.04478" lon="-7.18997">
        <ele>875.9</ele>
        <time>2016-07-12T10:58:07Z</time>
      </trkpt>
      <trkpt lat="43.04472" lon="-7.19007">
        <ele>877.9</ele>
        <time>2016-07-12T10:58:20Z</time>
      </trkpt>
      <trkpt lat="43.04466" lon="-7.19017">
        <ele>880.2</ele>
        <time>2016-07-12T10:58:39Z</time>
      </trkpt>
      <trkpt lat="43.04462" lon="-7.19029">
        <ele>881.8</ele>
        <time>2016-07-12T10:58:53Z</time>
      </trkpt>
      <trkpt lat="43.04457" lon="-7.19039">
        <ele>883.3</ele>
        <time>2016-07-12T10:59:05Z</time>
      </trkpt>
      <trkpt lat="43.0445" lon="-7.19049">
        <ele>884.6</ele>
        <time>2016-07-12T10:59:17Z</time>
      </trkpt>
      <trkpt lat="43.04445" lon="-7.19059">
        <ele>886.1</ele>
        <time>2016-07-12T10:59:31Z</time>
      </trkpt>
      <trkpt lat="43.04439" lon="-7.19068">
        <ele>887.2</ele>
        <time>2016-07-12T10:59:41Z</time>
      </trkpt>
      <trkpt lat="43.04433" lon="-7.19078">
        <ele>887.9</ele>
        <time>2016-07-12T10:59:51Z</time>
      </trkpt>
      <trkpt lat="43.04426" lon="-7.19086">
        <ele>888.6</ele>
        <time>2016-07-12T11:00:01Z</time>
      </trkpt>
      <trkpt lat="43.04421" lon="-7.19097">
        <ele>889</ele>
        <time>2016-07-12T11:00:17Z</time>
      </trkpt>
      <trkpt lat="43.04417" lon="-7.19109">
        <ele>889.4</ele>
        <time>2016-07-12T11:00:29Z</time>
      </trkpt>
      <trkpt lat="43.04416" lon="-7.19121">
        <ele>891.1</ele>
        <time>2016-07-12T11:00:41Z</time>
      </trkpt>
      <trkpt lat="43.04413" lon="-7.19133">
        <ele>892.1</ele>
        <time>2016-07-12T11:00:52Z</time>
      </trkpt>
      <trkpt lat="43.04406" lon="-7.19143">
        <ele>892.9</ele>
        <time>2016-07-12T11:01:03Z</time>
      </trkpt>
      <trkpt lat="43.04399" lon="-7.1915">
        <ele>893.5</ele>
        <time>2016-07-12T11:01:13Z</time>
      </trkpt>
      <trkpt lat="43.04391" lon="-7.19158">
        <ele>894.2</ele>
        <time>2016-07-12T11:01:22Z</time>
      </trkpt>
      <trkpt lat="43.04383" lon="-7.19164">
        <ele>895.7</ele>
        <time>2016-07-12T11:01:35Z</time>
      </trkpt>
      <trkpt lat="43.04374" lon="-7.19167">
        <ele>897.1</ele>
        <time>2016-07-12T11:01:47Z</time>
      </trkpt>
      <trkpt lat="43.04364" lon="-7.19168">
        <ele>898.2</ele>
        <time>2016-07-12T11:01:59Z</time>
      </trkpt>
      <trkpt lat="43.04355" lon="-7.19167">
        <ele>900.1</ele>
        <time>2016-07-12T11:02:11Z</time>
      </trkpt>
      <trkpt lat="43.04346" lon="-7.19168">
        <ele>902.8</ele>
        <time>2016-07-12T11:02:32Z</time>
      </trkpt>
      <trkpt lat="43.04337" lon="-7.19171">
        <ele>904.5</ele>
        <time>2016-07-12T11:02:47Z</time>
      </trkpt>
      <trkpt lat="43.04328" lon="-7.19174">
        <ele>907.2</ele>
        <time>2016-07-12T11:03:17Z</time>
      </trkpt>
      <trkpt lat="43.04319" lon="-7.19173">
        <ele>908.2</ele>
        <time>2016-07-12T11:04:50Z</time>
      </trkpt>
      <trkpt lat="43.04312" lon="-7.19182">
        <ele>908.7</ele>
        <time>2016-07-12T11:05:01Z</time>
      </trkpt>
      <trkpt lat="43.04305" lon="-7.19192">
        <ele>909.2</ele>
        <time>2016-07-12T11:05:12Z</time>
      </trkpt>
      <trkpt lat="43.04297" lon="-7.19198">
        <ele>909.7</ele>
        <time>2016-07-12T11:05:23Z</time>
      </trkpt>
      <trkpt lat="43.04291" lon="-7.19207">
        <ele>910.1</ele>
        <time>2016-07-12T11:05:33Z</time>
      </trkpt>
      <trkpt lat="43.04283" lon="-7.19212">
        <ele>910.4</ele>
        <time>2016-07-12T11:05:42Z</time>
      </trkpt>
      <trkpt lat="43.04274" lon="-7.19216">
        <ele>911.4</ele>
        <time>2016-07-12T11:05:52Z</time>
      </trkpt>
      <trkpt lat="43.04266" lon="-7.19224">
        <ele>912.2</ele>
        <time>2016-07-12T11:06:03Z</time>
      </trkpt>
      <trkpt lat="43.04257" lon="-7.19226">
        <ele>913.3</ele>
        <time>2016-07-12T11:06:15Z</time>
      </trkpt>
      <trkpt lat="43.04249" lon="-7.19232">
        <ele>914.6</ele>
        <time>2016-07-12T11:06:27Z</time>
      </trkpt>
      <trkpt lat="43.04243" lon="-7.19241">
        <ele>915.9</ele>
        <time>2016-07-12T11:06:39Z</time>
      </trkpt>
      <trkpt lat="43.04234" lon="-7.19245">
        <ele>916.6</ele>
        <time>2016-07-12T11:06:52Z</time>
      </trkpt>
      <trkpt lat="43.04225" lon="-7.19247">
        <ele>917.4</ele>
        <time>2016-07-12T11:07:01Z</time>
      </trkpt>
      <trkpt lat="43.04218" lon="-7.19256">
        <ele>919</ele>
        <time>2016-07-12T11:07:14Z</time>
      </trkpt>
      <trkpt lat="43.04211" lon="-7.19264">
        <ele>921</ele>
        <time>2016-07-12T11:07:28Z</time>
      </trkpt>
      <trkpt lat="43.04203" lon="-7.19271">
        <ele>923.5</ele>
        <time>2016-07-12T11:07:43Z</time>
      </trkpt>
      <trkpt lat="43.04197" lon="-7.1928">
        <ele>926</ele>
        <time>2016-07-12T11:07:56Z</time>
      </trkpt>
      <trkpt lat="43.04192" lon="-7.1929">
        <ele>928</ele>
        <time>2016-07-12T11:08:26Z</time>
      </trkpt>
      <trkpt lat="43.04186" lon="-7.193">
        <ele>927.6</ele>
        <time>2016-07-12T11:08:37Z</time>
      </trkpt>
      <trkpt lat="43.04179" lon="-7.19309">
        <ele>927.7</ele>
        <time>2016-07-12T11:08:47Z</time>
      </trkpt>
      <trkpt lat="43.04171" lon="-7.19316">
        <ele>927.3</ele>
        <time>2016-07-12T11:08:57Z</time>
      </trkpt>
      <trkpt lat="43.04163" lon="-7.19323">
        <ele>927.7</ele>
        <time>2016-07-12T11:09:07Z</time>
      </trkpt>
      <trkpt lat="43.04156" lon="-7.19331">
        <ele>928</ele>
        <time>2016-07-12T11:09:17Z</time>
      </trkpt>
      <trkpt lat="43.04148" lon="-7.19339">
        <ele>928.2</ele>
        <time>2016-07-12T11:09:27Z</time>
      </trkpt>
      <trkpt lat="43.04141" lon="-7.19347">
        <ele>928.3</ele>
        <time>2016-07-12T11:09:36Z</time>
      </trkpt>
      <trkpt lat="43.04133" lon="-7.19354">
        <ele>928.8</ele>
        <time>2016-07-12T11:09:45Z</time>
      </trkpt>
      <trkpt lat="43.04125" lon="-7.19361">
        <ele>929</ele>
        <time>2016-07-12T11:09:54Z</time>
      </trkpt>
      <trkpt lat="43.04116" lon="-7.19367">
        <ele>929.1</ele>
        <time>2016-07-12T11:10:02Z</time>
      </trkpt>
      <trkpt lat="43.04109" lon="-7.19374">
        <ele>929.1</ele>
        <time>2016-07-12T11:10:12Z</time>
      </trkpt>
      <trkpt lat="43.04101" lon="-7.19382">
        <ele>929</ele>
        <time>2016-07-12T11:10:20Z</time>
      </trkpt>
      <trkpt lat="43.04092" lon="-7.19389">
        <ele>929</ele>
        <time>2016-07-12T11:10:30Z</time>
      </trkpt>
      <trkpt lat="43.04083" lon="-7.19393">
        <ele>929</ele>
        <time>2016-07-12T11:10:38Z</time>
      </trkpt>
      <trkpt lat="43.04075" lon="-7.19399">
        <ele>928.9</ele>
        <time>2016-07-12T11:10:46Z</time>
      </trkpt>
      <trkpt lat="43.04067" lon="-7.19405">
        <ele>929</ele>
        <time>2016-07-12T11:10:54Z</time>
      </trkpt>
      <trkpt lat="43.04057" lon="-7.19408">
        <ele>928.9</ele>
        <time>2016-07-12T11:11:03Z</time>
      </trkpt>
      <trkpt lat="43.04049" lon="-7.19414">
        <ele>928.9</ele>
        <time>2016-07-12T11:11:11Z</time>
      </trkpt>
      <trkpt lat="43.0404" lon="-7.19419">
        <ele>928.8</ele>
        <time>2016-07-12T11:11:19Z</time>
      </trkpt>
      <trkpt lat="43.04031" lon="-7.19424">
        <ele>928.8</ele>
        <time>2016-07-12T11:11:27Z</time>
      </trkpt>
      <trkpt lat="43.04022" lon="-7.19428">
        <ele>928.7</ele>
        <time>2016-07-12T11:11:36Z</time>
      </trkpt>
      <trkpt lat="43.04014" lon="-7.19435">
        <ele>928</ele>
        <time>2016-07-12T11:11:46Z</time>
      </trkpt>
      <trkpt lat="43.04005" lon="-7.1944">
        <ele>928</ele>
        <time>2016-07-12T11:11:57Z</time>
      </trkpt>
      <trkpt lat="43.03996" lon="-7.19444">
        <ele>928.2</ele>
        <time>2016-07-12T11:12:05Z</time>
      </trkpt>
      <trkpt lat="43.03987" lon="-7.19449">
        <ele>928.6</ele>
        <time>2016-07-12T11:12:13Z</time>
      </trkpt>
      <trkpt lat="43.03978" lon="-7.19454">
        <ele>928.9</ele>
        <time>2016-07-12T11:12:21Z</time>
      </trkpt>
      <trkpt lat="43.03969" lon="-7.1946">
        <ele>928.9</ele>
        <time>2016-07-12T11:12:32Z</time>
      </trkpt>
      <trkpt lat="43.03959" lon="-7.19464">
        <ele>929.6</ele>
        <time>2016-07-12T11:12:38Z</time>
      </trkpt>
      <trkpt lat="43.0395" lon="-7.19468">
        <ele>930.5</ele>
        <time>2016-07-12T11:12:45Z</time>
      </trkpt>
      <trkpt lat="43.03941" lon="-7.19472">
        <ele>930.8</ele>
        <time>2016-07-12T11:12:53Z</time>
      </trkpt>
      <trkpt lat="43.03932" lon="-7.19479">
        <ele>929.5</ele>
        <time>2016-07-12T11:13:01Z</time>
      </trkpt>
      <trkpt lat="43.03923" lon="-7.19481">
        <ele>929.2</ele>
        <time>2016-07-12T11:13:09Z</time>
      </trkpt>
      <trkpt lat="43.03915" lon="-7.19486">
        <ele>929</ele>
        <time>2016-07-12T11:13:20Z</time>
      </trkpt>
      <trkpt lat="43.03906" lon="-7.19491">
        <ele>929</ele>
        <time>2016-07-12T11:13:31Z</time>
      </trkpt>
      <trkpt lat="43.03896" lon="-7.19494">
        <ele>929</ele>
        <time>2016-07-12T11:13:42Z</time>
      </trkpt>
      <trkpt lat="43.03887" lon="-7.19499">
        <ele>929.1</ele>
        <time>2016-07-12T11:13:52Z</time>
      </trkpt>
      <trkpt lat="43.03878" lon="-7.19503">
        <ele>929.1</ele>
        <time>2016-07-12T11:14:02Z</time>
      </trkpt>
      <trkpt lat="43.03868" lon="-7.19506">
        <ele>929.5</ele>
        <time>2016-07-12T11:14:11Z</time>
      </trkpt>
      <trkpt lat="43.03859" lon="-7.19509">
        <ele>929.8</ele>
        <time>2016-07-12T11:14:19Z</time>
      </trkpt>
      <trkpt lat="43.0385" lon="-7.19514">
        <ele>930.1</ele>
        <time>2016-07-12T11:14:29Z</time>
      </trkpt>
      <trkpt lat="43.03841" lon="-7.19517">
        <ele>930.7</ele>
        <time>2016-07-12T11:14:39Z</time>
      </trkpt>
      <trkpt lat="43.03832" lon="-7.1952">
        <ele>931</ele>
        <time>2016-07-12T11:14:47Z</time>
      </trkpt>
      <trkpt lat="43.03823" lon="-7.19524">
        <ele>931.4</ele>
        <time>2016-07-12T11:14:58Z</time>
      </trkpt>
      <trkpt lat="43.03814" lon="-7.19528">
        <ele>931.9</ele>
        <time>2016-07-12T11:15:08Z</time>
      </trkpt>
      <trkpt lat="43.03804" lon="-7.19531">
        <ele>932.1</ele>
        <time>2016-07-12T11:15:17Z</time>
      </trkpt>
      <trkpt lat="43.03796" lon="-7.19536">
        <ele>932.3</ele>
        <time>2016-07-12T11:15:26Z</time>
      </trkpt>
      <trkpt lat="43.03787" lon="-7.19539">
        <ele>932.4</ele>
        <time>2016-07-12T11:15:35Z</time>
      </trkpt>
      <trkpt lat="43.03777" lon="-7.19541">
        <ele>932.8</ele>
        <time>2016-07-12T11:15:43Z</time>
      </trkpt>
      <trkpt lat="43.03767" lon="-7.19543">
        <ele>933.4</ele>
        <time>2016-07-12T11:15:51Z</time>
      </trkpt>
      <trkpt lat="43.03758" lon="-7.19546">
        <ele>933.7</ele>
        <time>2016-07-12T11:15:59Z</time>
      </trkpt>
      <trkpt lat="43.0375" lon="-7.19552">
        <ele>933.7</ele>
        <time>2016-07-12T11:16:08Z</time>
      </trkpt>
      <trkpt lat="43.03741" lon="-7.19558">
        <ele>933.3</ele>
        <time>2016-07-12T11:16:16Z</time>
      </trkpt>
      <trkpt lat="43.03733" lon="-7.19565">
        <ele>932.8</ele>
        <time>2016-07-12T11:16:23Z</time>
      </trkpt>
      <trkpt lat="43.03724" lon="-7.19568">
        <ele>932.3</ele>
        <time>2016-07-12T11:16:31Z</time>
      </trkpt>
      <trkpt lat="43.03714" lon="-7.19567">
        <ele>932</ele>
        <time>2016-07-12T11:16:39Z</time>
      </trkpt>
      <trkpt lat="43.03705" lon="-7.19567">
        <ele>931.8</ele>
        <time>2016-07-12T11:16:47Z</time>
      </trkpt>
      <trkpt lat="43.03695" lon="-7.19566">
        <ele>931.6</ele>
        <time>2016-07-12T11:16:55Z</time>
      </trkpt>
      <trkpt lat="43.03685" lon="-7.19565">
        <ele>931.3</ele>
        <time>2016-07-12T11:17:03Z</time>
      </trkpt>
      <trkpt lat="43.03676" lon="-7.19564">
        <ele>931.1</ele>
        <time>2016-07-12T11:17:11Z</time>
      </trkpt>
      <trkpt lat="43.03667" lon="-7.19564">
        <ele>931</ele>
        <time>2016-07-12T11:17:20Z</time>
      </trkpt>
      <trkpt lat="43.03657" lon="-7.19565">
        <ele>930.2</ele>
        <time>2016-07-12T11:17:31Z</time>
      </trkpt>
      <trkpt lat="43.03647" lon="-7.19565">
        <ele>930.1</ele>
        <time>2016-07-12T11:17:38Z</time>
      </trkpt>
      <trkpt lat="43.03638" lon="-7.19566">
        <ele>930</ele>
        <time>2016-07-12T11:17:45Z</time>
      </trkpt>
      <trkpt lat="43.03629" lon="-7.19569">
        <ele>929.7</ele>
        <time>2016-07-12T11:17:53Z</time>
      </trkpt>
      <trkpt lat="43.0362" lon="-7.19572">
        <ele>929.4</ele>
        <time>2016-07-12T11:18:01Z</time>
      </trkpt>
      <trkpt lat="43.0361" lon="-7.19575">
        <ele>928.7</ele>
        <time>2016-07-12T11:18:10Z</time>
      </trkpt>
      <trkpt lat="43.03602" lon="-7.19579">
        <ele>927.5</ele>
        <time>2016-07-12T11:18:18Z</time>
      </trkpt>
      <trkpt lat="43.03593" lon="-7.19585">
        <ele>926.8</ele>
        <time>2016-07-12T11:18:27Z</time>
      </trkpt>
      <trkpt lat="43.03587" lon="-7.19594">
        <ele>926.4</ele>
        <time>2016-07-12T11:18:36Z</time>
      </trkpt>
      <trkpt lat="43.0358" lon="-7.19604">
        <ele>926</ele>
        <time>2016-07-12T11:18:45Z</time>
      </trkpt>
      <trkpt lat="43.03574" lon="-7.19613">
        <ele>925.4</ele>
        <time>2016-07-12T11:18:54Z</time>
      </trkpt>
      <trkpt lat="43.03567" lon="-7.19621">
        <ele>924.7</ele>
        <time>2016-07-12T11:19:02Z</time>
      </trkpt>
      <trkpt lat="43.0356" lon="-7.1963">
        <ele>924</ele>
        <time>2016-07-12T11:19:11Z</time>
      </trkpt>
      <trkpt lat="43.03554" lon="-7.19641">
        <ele>922.5</ele>
        <time>2016-07-12T11:19:25Z</time>
      </trkpt>
      <trkpt lat="43.03548" lon="-7.1965">
        <ele>921.5</ele>
        <time>2016-07-12T11:19:33Z</time>
      </trkpt>
      <trkpt lat="43.03541" lon="-7.19659">
        <ele>920.3</ele>
        <time>2016-07-12T11:19:41Z</time>
      </trkpt>
      <trkpt lat="43.03534" lon="-7.19669">
        <ele>919.6</ele>
        <time>2016-07-12T11:19:49Z</time>
      </trkpt>
      <trkpt lat="43.03526" lon="-7.19678">
        <ele>919.2</ele>
        <time>2016-07-12T11:19:57Z</time>
      </trkpt>
      <trkpt lat="43.03519" lon="-7.19687">
        <ele>918.9</ele>
        <time>2016-07-12T11:20:04Z</time>
      </trkpt>
      <trkpt lat="43.03513" lon="-7.19698">
        <ele>918.6</ele>
        <time>2016-07-12T11:20:12Z</time>
      </trkpt>
      <trkpt lat="43.03508" lon="-7.19709">
        <ele>917.4</ele>
        <time>2016-07-12T11:20:24Z</time>
      </trkpt>
      <trkpt lat="43.03503" lon="-7.19719">
        <ele>916.8</ele>
        <time>2016-07-12T11:20:33Z</time>
      </trkpt>
      <trkpt lat="43.03498" lon="-7.19729">
        <ele>915.7</ele>
        <time>2016-07-12T11:20:41Z</time>
      </trkpt>
      <trkpt lat="43.03493" lon="-7.1974">
        <ele>914.6</ele>
        <time>2016-07-12T11:20:49Z</time>
      </trkpt>
      <trkpt lat="43.03488" lon="-7.19751">
        <ele>914</ele>
        <time>2016-07-12T11:20:57Z</time>
      </trkpt>
      <trkpt lat="43.03484" lon="-7.19762">
        <ele>913.2</ele>
        <time>2016-07-12T11:21:05Z</time>
      </trkpt>
      <trkpt lat="43.0348" lon="-7.19775">
        <ele>912.1</ele>
        <time>2016-07-12T11:21:18Z</time>
      </trkpt>
      <trkpt lat="43.03477" lon="-7.19787">
        <ele>911.3</ele>
        <time>2016-07-12T11:21:26Z</time>
      </trkpt>
      <trkpt lat="43.03474" lon="-7.19799">
        <ele>911</ele>
        <time>2016-07-12T11:21:34Z</time>
      </trkpt>
      <trkpt lat="43.03472" lon="-7.19813">
        <ele>910.4</ele>
        <time>2016-07-12T11:21:42Z</time>
      </trkpt>
      <trkpt lat="43.03469" lon="-7.19825">
        <ele>909.4</ele>
        <time>2016-07-12T11:21:50Z</time>
      </trkpt>
      <trkpt lat="43.03465" lon="-7.19839">
        <ele>908</ele>
        <time>2016-07-12T11:21:58Z</time>
      </trkpt>
      <trkpt lat="43.03462" lon="-7.1985">
        <ele>907.2</ele>
        <time>2016-07-12T11:22:06Z</time>
      </trkpt>
      <trkpt lat="43.03459" lon="-7.19863">
        <ele>906.7</ele>
        <time>2016-07-12T11:22:14Z</time>
      </trkpt>
      <trkpt lat="43.03456" lon="-7.19875">
        <ele>905.9</ele>
        <time>2016-07-12T11:22:22Z</time>
      </trkpt>
      <trkpt lat="43.03453" lon="-7.19887">
        <ele>905.2</ele>
        <time>2016-07-12T11:22:30Z</time>
      </trkpt>
      <trkpt lat="43.0345" lon="-7.19899">
        <ele>904.4</ele>
        <time>2016-07-12T11:22:38Z</time>
      </trkpt>
      <trkpt lat="43.03447" lon="-7.19912">
        <ele>903.8</ele>
        <time>2016-07-12T11:22:46Z</time>
      </trkpt>
      <trkpt lat="43.03445" lon="-7.19924">
        <ele>903.2</ele>
        <time>2016-07-12T11:22:54Z</time>
      </trkpt>
      <trkpt lat="43.03445" lon="-7.19936">
        <ele>901</ele>
        <time>2016-07-12T11:23:28Z</time>
      </trkpt>
      <trkpt lat="43.03439" lon="-7.19946">
        <ele>900.3</ele>
        <time>2016-07-12T11:24:14Z</time>
      </trkpt>
      <trkpt lat="43.03433" lon="-7.19955">
        <ele>900.3</ele>
        <time>2016-07-12T11:24:23Z</time>
      </trkpt>
      <trkpt lat="43.03424" lon="-7.19963">
        <ele>900.1</ele>
        <time>2016-07-12T11:24:33Z</time>
      </trkpt>
      <trkpt lat="43.03415" lon="-7.19969">
        <ele>900.1</ele>
        <time>2016-07-12T11:24:41Z</time>
      </trkpt>
      <trkpt lat="43.03407" lon="-7.19977">
        <ele>900.4</ele>
        <time>2016-07-12T11:24:49Z</time>
      </trkpt>
      <trkpt lat="43.03399" lon="-7.19985">
        <ele>900.7</ele>
        <time>2016-07-12T11:24:57Z</time>
      </trkpt>
      <trkpt lat="43.03393" lon="-7.19993">
        <ele>900.8</ele>
        <time>2016-07-12T11:25:05Z</time>
      </trkpt>
      <trkpt lat="43.03385" lon="-7.20001">
        <ele>900.6</ele>
        <time>2016-07-12T11:25:14Z</time>
      </trkpt>
      <trkpt lat="43.03376" lon="-7.20008">
        <ele>900.4</ele>
        <time>2016-07-12T11:25:23Z</time>
      </trkpt>
      <trkpt lat="43.03369" lon="-7.20016">
        <ele>900.3</ele>
        <time>2016-07-12T11:25:35Z</time>
      </trkpt>
      <trkpt lat="43.03363" lon="-7.20027">
        <ele>900.2</ele>
        <time>2016-07-12T11:25:43Z</time>
      </trkpt>
      <trkpt lat="43.03355" lon="-7.20033">
        <ele>900.2</ele>
        <time>2016-07-12T11:25:51Z</time>
      </trkpt>
      <trkpt lat="43.03348" lon="-7.20041">
        <ele>900.2</ele>
        <time>2016-07-12T11:25:59Z</time>
      </trkpt>
      <trkpt lat="43.03341" lon="-7.20049">
        <ele>900.4</ele>
        <time>2016-07-12T11:26:07Z</time>
      </trkpt>
      <trkpt lat="43.03332" lon="-7.20056">
        <ele>900</ele>
        <time>2016-07-12T11:26:15Z</time>
      </trkpt>
      <trkpt lat="43.03324" lon="-7.20061">
        <ele>899.5</ele>
        <time>2016-07-12T11:26:23Z</time>
      </trkpt>
      <trkpt lat="43.03314" lon="-7.20063">
        <ele>899.4</ele>
        <time>2016-07-12T11:26:33Z</time>
      </trkpt>
      <trkpt lat="43.03305" lon="-7.20063">
        <ele>899.3</ele>
        <time>2016-07-12T11:26:43Z</time>
      </trkpt>
      <trkpt lat="43.03295" lon="-7.20063">
        <ele>899.3</ele>
        <time>2016-07-12T11:26:52Z</time>
      </trkpt>
      <trkpt lat="43.03286" lon="-7.20063">
        <ele>899.2</ele>
        <time>2016-07-12T11:27:01Z</time>
      </trkpt>
      <trkpt lat="43.03278" lon="-7.2007">
        <ele>899</ele>
        <time>2016-07-12T11:27:11Z</time>
      </trkpt>
      <trkpt lat="43.03269" lon="-7.20076">
        <ele>898.3</ele>
        <time>2016-07-12T11:27:27Z</time>
      </trkpt>
      <trkpt lat="43.03262" lon="-7.20085">
        <ele>898.3</ele>
        <time>2016-07-12T11:27:36Z</time>
      </trkpt>
      <trkpt lat="43.03256" lon="-7.20097">
        <ele>897.8</ele>
        <time>2016-07-12T11:27:45Z</time>
      </trkpt>
      <trkpt lat="43.03251" lon="-7.20107">
        <ele>897.3</ele>
        <time>2016-07-12T11:27:54Z</time>
      </trkpt>
      <trkpt lat="43.03244" lon="-7.20116">
        <ele>896.6</ele>
        <time>2016-07-12T11:28:04Z</time>
      </trkpt>
      <trkpt lat="43.03236" lon="-7.20124">
        <ele>896</ele>
        <time>2016-07-12T11:28:14Z</time>
      </trkpt>
      <trkpt lat="43.0323" lon="-7.20133">
        <ele>895.2</ele>
        <time>2016-07-12T11:28:23Z</time>
      </trkpt>
      <trkpt lat="43.03223" lon="-7.20141">
        <ele>895</ele>
        <time>2016-07-12T11:28:32Z</time>
      </trkpt>
      <trkpt lat="43.03219" lon="-7.20152">
        <ele>895.2</ele>
        <time>2016-07-12T11:28:48Z</time>
      </trkpt>
      <trkpt lat="43.03214" lon="-7.20163">
        <ele>895.5</ele>
        <time>2016-07-12T11:29:21Z</time>
      </trkpt>
      <trkpt lat="43.03208" lon="-7.20174">
        <ele>895.2</ele>
        <time>2016-07-12T11:30:26Z</time>
      </trkpt>
      <trkpt lat="43.03201" lon="-7.20182">
        <ele>895.7</ele>
        <time>2016-07-12T11:30:38Z</time>
      </trkpt>
      <trkpt lat="43.03194" lon="-7.2019">
        <ele>895.5</ele>
        <time>2016-07-12T11:30:46Z</time>
      </trkpt>
      <trkpt lat="43.03187" lon="-7.202">
        <ele>895.2</ele>
        <time>2016-07-12T11:30:55Z</time>
      </trkpt>
      <trkpt lat="43.03181" lon="-7.2021">
        <ele>894.9</ele>
        <time>2016-07-12T11:31:03Z</time>
      </trkpt>
      <trkpt lat="43.03175" lon="-7.2022">
        <ele>894.5</ele>
        <time>2016-07-12T11:31:11Z</time>
      </trkpt>
      <trkpt lat="43.03169" lon="-7.2023">
        <ele>894.4</ele>
        <time>2016-07-12T11:31:19Z</time>
      </trkpt>
      <trkpt lat="43.03161" lon="-7.20235">
        <ele>894.3</ele>
        <time>2016-07-12T11:31:27Z</time>
      </trkpt>
      <trkpt lat="43.03152" lon="-7.20239">
        <ele>894.5</ele>
        <time>2016-07-12T11:31:36Z</time>
      </trkpt>
      <trkpt lat="43.03144" lon="-7.20244">
        <ele>894.8</ele>
        <time>2016-07-12T11:31:45Z</time>
      </trkpt>
      <trkpt lat="43.03136" lon="-7.20252">
        <ele>895.7</ele>
        <time>2016-07-12T11:31:55Z</time>
      </trkpt>
      <trkpt lat="43.03129" lon="-7.2026">
        <ele>896</ele>
        <time>2016-07-12T11:32:04Z</time>
      </trkpt>
      <trkpt lat="43.03121" lon="-7.20268">
        <ele>896</ele>
        <time>2016-07-12T11:32:18Z</time>
      </trkpt>
      <trkpt lat="43.03114" lon="-7.20275">
        <ele>895.9</ele>
        <time>2016-07-12T11:32:27Z</time>
      </trkpt>
      <trkpt lat="43.03106" lon="-7.20282">
        <ele>895.8</ele>
        <time>2016-07-12T11:32:35Z</time>
      </trkpt>
      <trkpt lat="43.03098" lon="-7.20288">
        <ele>895.5</ele>
        <time>2016-07-12T11:32:44Z</time>
      </trkpt>
      <trkpt lat="43.0309" lon="-7.20295">
        <ele>895.5</ele>
        <time>2016-07-12T11:32:53Z</time>
      </trkpt>
      <trkpt lat="43.03082" lon="-7.20303">
        <ele>895.4</ele>
        <time>2016-07-12T11:33:02Z</time>
      </trkpt>
      <trkpt lat="43.03075" lon="-7.20311">
        <ele>895.3</ele>
        <time>2016-07-12T11:33:10Z</time>
      </trkpt>
      <trkpt lat="43.03067" lon="-7.20318">
        <ele>895.2</ele>
        <time>2016-07-12T11:33:19Z</time>
      </trkpt>
      <trkpt lat="43.03058" lon="-7.20325">
        <ele>895.3</ele>
        <time>2016-07-12T11:33:29Z</time>
      </trkpt>
      <trkpt lat="43.0305" lon="-7.20331">
        <ele>895.7</ele>
        <time>2016-07-12T11:33:38Z</time>
      </trkpt>
      <trkpt lat="43.03042" lon="-7.20338">
        <ele>895.9</ele>
        <time>2016-07-12T11:33:46Z</time>
      </trkpt>
      <trkpt lat="43.03034" lon="-7.20344">
        <ele>895.9</ele>
        <time>2016-07-12T11:33:55Z</time>
      </trkpt>
      <trkpt lat="43.03026" lon="-7.20351">
        <ele>895.8</ele>
        <time>2016-07-12T11:34:04Z</time>
      </trkpt>
      <trkpt lat="43.03018" lon="-7.20357">
        <ele>895.7</ele>
        <time>2016-07-12T11:34:20Z</time>
      </trkpt>
      <trkpt lat="43.03013" lon="-7.20367">
        <ele>895.7</ele>
        <time>2016-07-12T11:34:29Z</time>
      </trkpt>
      <trkpt lat="43.03009" lon="-7.20379">
        <ele>895.7</ele>
        <time>2016-07-12T11:34:38Z</time>
      </trkpt>
      <trkpt lat="43.03003" lon="-7.2039">
        <ele>895.7</ele>
        <time>2016-07-12T11:34:48Z</time>
      </trkpt>
      <trkpt lat="43.02997" lon="-7.20401">
        <ele>895.7</ele>
        <time>2016-07-12T11:34:57Z</time>
      </trkpt>
      <trkpt lat="43.02991" lon="-7.2041">
        <ele>895.6</ele>
        <time>2016-07-12T11:35:05Z</time>
      </trkpt>
      <trkpt lat="43.02984" lon="-7.20419">
        <ele>895.2</ele>
        <time>2016-07-12T11:35:13Z</time>
      </trkpt>
      <trkpt lat="43.02976" lon="-7.20425">
        <ele>895</ele>
        <time>2016-07-12T11:35:21Z</time>
      </trkpt>
      <trkpt lat="43.02967" lon="-7.20429">
        <ele>894.8</ele>
        <time>2016-07-12T11:35:30Z</time>
      </trkpt>
      <trkpt lat="43.02958" lon="-7.20431">
        <ele>894.4</ele>
        <time>2016-07-12T11:35:39Z</time>
      </trkpt>
      <trkpt lat="43.02948" lon="-7.20433">
        <ele>894.1</ele>
        <time>2016-07-12T11:35:47Z</time>
      </trkpt>
      <trkpt lat="43.02939" lon="-7.20435">
        <ele>894</ele>
        <time>2016-07-12T11:35:56Z</time>
      </trkpt>
      <trkpt lat="43.0293" lon="-7.20439">
        <ele>893.6</ele>
        <time>2016-07-12T11:36:05Z</time>
      </trkpt>
      <trkpt lat="43.0292" lon="-7.20443">
        <ele>893.2</ele>
        <time>2016-07-12T11:36:15Z</time>
      </trkpt>
      <trkpt lat="43.02911" lon="-7.20449">
        <ele>893</ele>
        <time>2016-07-12T11:36:30Z</time>
      </trkpt>
      <trkpt lat="43.02902" lon="-7.20452">
        <ele>892.9</ele>
        <time>2016-07-12T11:36:39Z</time>
      </trkpt>
      <trkpt lat="43.02892" lon="-7.20453">
        <ele>892.7</ele>
        <time>2016-07-12T11:36:47Z</time>
      </trkpt>
      <trkpt lat="43.02883" lon="-7.20454">
        <ele>892.6</ele>
        <time>2016-07-12T11:36:54Z</time>
      </trkpt>
      <trkpt lat="43.02874" lon="-7.20455">
        <ele>892.7</ele>
        <time>2016-07-12T11:37:01Z</time>
      </trkpt>
      <trkpt lat="43.02864" lon="-7.20456">
        <ele>891.9</ele>
        <time>2016-07-12T11:37:10Z</time>
      </trkpt>
      <trkpt lat="43.02855" lon="-7.20458">
        <ele>891</ele>
        <time>2016-07-12T11:37:19Z</time>
      </trkpt>
      <trkpt lat="43.02845" lon="-7.2046">
        <ele>890.2</ele>
        <time>2016-07-12T11:37:28Z</time>
      </trkpt>
      <trkpt lat="43.02836" lon="-7.20462">
        <ele>889.5</ele>
        <time>2016-07-12T11:37:36Z</time>
      </trkpt>
      <trkpt lat="43.02826" lon="-7.20464">
        <ele>888.7</ele>
        <time>2016-07-12T11:37:45Z</time>
      </trkpt>
      <trkpt lat="43.02817" lon="-7.20468">
        <ele>887.9</ele>
        <time>2016-07-12T11:37:54Z</time>
      </trkpt>
      <trkpt lat="43.02808" lon="-7.20472">
        <ele>886.9</ele>
        <time>2016-07-12T11:38:03Z</time>
      </trkpt>
      <trkpt lat="43.02799" lon="-7.20474">
        <ele>886</ele>
        <time>2016-07-12T11:38:11Z</time>
      </trkpt>
      <trkpt lat="43.0279" lon="-7.20478">
        <ele>883.7</ele>
        <time>2016-07-12T11:38:29Z</time>
      </trkpt>
      <trkpt lat="43.02781" lon="-7.20483">
        <ele>882.9</ele>
        <time>2016-07-12T11:38:39Z</time>
      </trkpt>
      <trkpt lat="43.0277" lon="-7.20487">
        <ele>882.3</ele>
        <time>2016-07-12T11:38:48Z</time>
      </trkpt>
      <trkpt lat="43.02761" lon="-7.2049">
        <ele>881.4</ele>
        <time>2016-07-12T11:38:56Z</time>
      </trkpt>
      <trkpt lat="43.02752" lon="-7.20493">
        <ele>880.6</ele>
        <time>2016-07-12T11:39:04Z</time>
      </trkpt>
      <trkpt lat="43.02743" lon="-7.20496">
        <ele>879.6</ele>
        <time>2016-07-12T11:39:14Z</time>
      </trkpt>
      <trkpt lat="43.02733" lon="-7.20499">
        <ele>878.9</ele>
        <time>2016-07-12T11:39:22Z</time>
      </trkpt>
      <trkpt lat="43.02724" lon="-7.205">
        <ele>878.1</ele>
        <time>2016-07-12T11:39:30Z</time>
      </trkpt>
      <trkpt lat="43.02716" lon="-7.20507">
        <ele>876.9</ele>
        <time>2016-07-12T11:39:39Z</time>
      </trkpt>
      <trkpt lat="43.02708" lon="-7.20511">
        <ele>875.6</ele>
        <time>2016-07-12T11:39:48Z</time>
      </trkpt>
      <trkpt lat="43.02699" lon="-7.20516">
        <ele>874.4</ele>
        <time>2016-07-12T11:39:57Z</time>
      </trkpt>
      <trkpt lat="43.0269" lon="-7.20518">
        <ele>873.2</ele>
        <time>2016-07-12T11:40:06Z</time>
      </trkpt>
      <trkpt lat="43.02681" lon="-7.20521">
        <ele>871.7</ele>
        <time>2016-07-12T11:40:18Z</time>
      </trkpt>
      <trkpt lat="43.02672" lon="-7.20525">
        <ele>869.8</ele>
        <time>2016-07-12T11:40:35Z</time>
      </trkpt>
      <trkpt lat="43.02663" lon="-7.20527">
        <ele>868.4</ele>
        <time>2016-07-12T11:40:45Z</time>
      </trkpt>
      <trkpt lat="43.02654" lon="-7.20526">
        <ele>867.8</ele>
        <time>2016-07-12T11:40:54Z</time>
      </trkpt>
      <trkpt lat="43.02644" lon="-7.20527">
        <ele>866.8</ele>
        <time>2016-07-12T11:41:03Z</time>
      </trkpt>
      <trkpt lat="43.02634" lon="-7.2053">
        <ele>865.7</ele>
        <time>2016-07-12T11:41:11Z</time>
      </trkpt>
      <trkpt lat="43.02625" lon="-7.20532">
        <ele>864.7</ele>
        <time>2016-07-12T11:41:19Z</time>
      </trkpt>
      <trkpt lat="43.02615" lon="-7.20533">
        <ele>863.7</ele>
        <time>2016-07-12T11:41:26Z</time>
      </trkpt>
      <trkpt lat="43.02609" lon="-7.20542">
        <ele>862.2</ele>
        <time>2016-07-12T11:41:35Z</time>
      </trkpt>
      <trkpt lat="43.02606" lon="-7.20555">
        <ele>861.5</ele>
        <time>2016-07-12T11:41:44Z</time>
      </trkpt>
      <trkpt lat="43.02602" lon="-7.20567">
        <ele>860.7</ele>
        <time>2016-07-12T11:41:53Z</time>
      </trkpt>
      <trkpt lat="43.02602" lon="-7.2058">
        <ele>859.9</ele>
        <time>2016-07-12T11:42:01Z</time>
      </trkpt>
      <trkpt lat="43.02603" lon="-7.20593">
        <ele>859.1</ele>
        <time>2016-07-12T11:42:09Z</time>
      </trkpt>
      <trkpt lat="43.02601" lon="-7.20606">
        <ele>857.8</ele>
        <time>2016-07-12T11:42:17Z</time>
      </trkpt>
      <trkpt lat="43.02599" lon="-7.20618">
        <ele>856.8</ele>
        <time>2016-07-12T11:42:26Z</time>
      </trkpt>
      <trkpt lat="43.02594" lon="-7.20628">
        <ele>855.7</ele>
        <time>2016-07-12T11:42:39Z</time>
      </trkpt>
      <trkpt lat="43.02587" lon="-7.20636">
        <ele>855</ele>
        <time>2016-07-12T11:42:47Z</time>
      </trkpt>
      <trkpt lat="43.02582" lon="-7.20646">
        <ele>854.5</ele>
        <time>2016-07-12T11:42:55Z</time>
      </trkpt>
      <trkpt lat="43.02578" lon="-7.20659">
        <ele>853.3</ele>
        <time>2016-07-12T11:43:03Z</time>
      </trkpt>
      <trkpt lat="43.02576" lon="-7.20671">
        <ele>852.6</ele>
        <time>2016-07-12T11:43:11Z</time>
      </trkpt>
      <trkpt lat="43.02574" lon="-7.20684">
        <ele>852.4</ele>
        <time>2016-07-12T11:43:21Z</time>
      </trkpt>
      <trkpt lat="43.02573" lon="-7.20697">
        <ele>852.2</ele>
        <time>2016-07-12T11:43:30Z</time>
      </trkpt>
      <trkpt lat="43.02572" lon="-7.2071">
        <ele>852</ele>
        <time>2016-07-12T11:43:39Z</time>
      </trkpt>
      <trkpt lat="43.0257" lon="-7.20723">
        <ele>851.3</ele>
        <time>2016-07-12T11:43:47Z</time>
      </trkpt>
      <trkpt lat="43.02568" lon="-7.20735">
        <ele>850.8</ele>
        <time>2016-07-12T11:43:54Z</time>
      </trkpt>
      <trkpt lat="43.02567" lon="-7.20747">
        <ele>850.5</ele>
        <time>2016-07-12T11:44:01Z</time>
      </trkpt>
      <trkpt lat="43.02566" lon="-7.2076">
        <ele>850</ele>
        <time>2016-07-12T11:44:08Z</time>
      </trkpt>
      <trkpt lat="43.02564" lon="-7.20774">
        <ele>849.6</ele>
        <time>2016-07-12T11:44:16Z</time>
      </trkpt>
      <trkpt lat="43.02563" lon="-7.20786">
        <ele>849.2</ele>
        <time>2016-07-12T11:44:23Z</time>
      </trkpt>
      <trkpt lat="43.02561" lon="-7.208">
        <ele>848.6</ele>
        <time>2016-07-12T11:44:32Z</time>
      </trkpt>
      <trkpt lat="43.02559" lon="-7.20812">
        <ele>848.1</ele>
        <time>2016-07-12T11:44:42Z</time>
      </trkpt>
      <trkpt lat="43.02558" lon="-7.20825">
        <ele>847.7</ele>
        <time>2016-07-12T11:44:51Z</time>
      </trkpt>
      <trkpt lat="43.02557" lon="-7.20838">
        <ele>847.1</ele>
        <time>2016-07-12T11:44:59Z</time>
      </trkpt>
      <trkpt lat="43.02556" lon="-7.20851">
        <ele>846.7</ele>
        <time>2016-07-12T11:45:08Z</time>
      </trkpt>
      <trkpt lat="43.02554" lon="-7.20864">
        <ele>846.1</ele>
        <time>2016-07-12T11:45:17Z</time>
      </trkpt>
      <trkpt lat="43.02552" lon="-7.20876">
        <ele>845.5</ele>
        <time>2016-07-12T11:45:25Z</time>
      </trkpt>
      <trkpt lat="43.0255" lon="-7.20888">
        <ele>845.1</ele>
        <time>2016-07-12T11:45:33Z</time>
      </trkpt>
      <trkpt lat="43.02548" lon="-7.20901">
        <ele>844.7</ele>
        <time>2016-07-12T11:45:41Z</time>
      </trkpt>
      <trkpt lat="43.02546" lon="-7.20914">
        <ele>844.4</ele>
        <time>2016-07-12T11:45:49Z</time>
      </trkpt>
      <trkpt lat="43.02543" lon="-7.20927">
        <ele>843.8</ele>
        <time>2016-07-12T11:45:57Z</time>
      </trkpt>
      <trkpt lat="43.0254" lon="-7.20939">
        <ele>843.3</ele>
        <time>2016-07-12T11:46:05Z</time>
      </trkpt>
      <trkpt lat="43.02537" lon="-7.2095">
        <ele>842.9</ele>
        <time>2016-07-12T11:46:13Z</time>
      </trkpt>
      <trkpt lat="43.02533" lon="-7.20962">
        <ele>842.7</ele>
        <time>2016-07-12T11:46:21Z</time>
      </trkpt>
      <trkpt lat="43.02529" lon="-7.20974">
        <ele>842.4</ele>
        <time>2016-07-12T11:46:31Z</time>
      </trkpt>
      <trkpt lat="43.02525" lon="-7.20986">
        <ele>842.4</ele>
        <time>2016-07-12T11:46:40Z</time>
      </trkpt>
      <trkpt lat="43.02521" lon="-7.20997">
        <ele>842.7</ele>
        <time>2016-07-12T11:46:48Z</time>
      </trkpt>
      <trkpt lat="43.02516" lon="-7.21008">
        <ele>843</ele>
        <time>2016-07-12T11:46:57Z</time>
      </trkpt>
      <trkpt lat="43.02511" lon="-7.21019">
        <ele>843.2</ele>
        <time>2016-07-12T11:47:06Z</time>
      </trkpt>
      <trkpt lat="43.02505" lon="-7.2103">
        <ele>843.7</ele>
        <time>2016-07-12T11:47:15Z</time>
      </trkpt>
      <trkpt lat="43.02499" lon="-7.2104">
        <ele>844.4</ele>
        <time>2016-07-12T11:47:25Z</time>
      </trkpt>
      <trkpt lat="43.02493" lon="-7.2105">
        <ele>845.2</ele>
        <time>2016-07-12T11:47:34Z</time>
      </trkpt>
      <trkpt lat="43.02486" lon="-7.21059">
        <ele>846</ele>
        <time>2016-07-12T11:47:47Z</time>
      </trkpt>
      <trkpt lat="43.0248" lon="-7.21068">
        <ele>846.6</ele>
        <time>2016-07-12T11:47:57Z</time>
      </trkpt>
      <trkpt lat="43.02472" lon="-7.21075">
        <ele>847.1</ele>
        <time>2016-07-12T11:48:07Z</time>
      </trkpt>
      <trkpt lat="43.02464" lon="-7.21083">
        <ele>847.8</ele>
        <time>2016-07-12T11:48:19Z</time>
      </trkpt>
      <trkpt lat="43.02456" lon="-7.21089">
        <ele>848.3</ele>
        <time>2016-07-12T11:48:28Z</time>
      </trkpt>
      <trkpt lat="43.02449" lon="-7.21098">
        <ele>848.8</ele>
        <time>2016-07-12T11:48:37Z</time>
      </trkpt>
      <trkpt lat="43.02441" lon="-7.21104">
        <ele>849.5</ele>
        <time>2016-07-12T11:48:46Z</time>
      </trkpt>
      <trkpt lat="43.02432" lon="-7.2111">
        <ele>850</ele>
        <time>2016-07-12T11:48:54Z</time>
      </trkpt>
      <trkpt lat="43.02425" lon="-7.21118">
        <ele>850.7</ele>
        <time>2016-07-12T11:49:04Z</time>
      </trkpt>
      <trkpt lat="43.02418" lon="-7.21126">
        <ele>851.1</ele>
        <time>2016-07-12T11:49:14Z</time>
      </trkpt>
      <trkpt lat="43.0241" lon="-7.21135">
        <ele>851.7</ele>
        <time>2016-07-12T11:49:24Z</time>
      </trkpt>
      <trkpt lat="43.02403" lon="-7.21143">
        <ele>852.8</ele>
        <time>2016-07-12T11:49:45Z</time>
      </trkpt>
      <trkpt lat="43.02396" lon="-7.21151">
        <ele>853.2</ele>
        <time>2016-07-12T11:49:55Z</time>
      </trkpt>
      <trkpt lat="43.0239" lon="-7.2116">
        <ele>853.6</ele>
        <time>2016-07-12T11:50:05Z</time>
      </trkpt>
      <trkpt lat="43.02383" lon="-7.21169">
        <ele>853.9</ele>
        <time>2016-07-12T11:50:14Z</time>
      </trkpt>
      <trkpt lat="43.02376" lon="-7.21177">
        <ele>854.8</ele>
        <time>2016-07-12T11:50:23Z</time>
      </trkpt>
      <trkpt lat="43.02369" lon="-7.21188">
        <ele>855.7</ele>
        <time>2016-07-12T11:50:33Z</time>
      </trkpt>
      <trkpt lat="43.02364" lon="-7.21199">
        <ele>856.5</ele>
        <time>2016-07-12T11:50:44Z</time>
      </trkpt>
      <trkpt lat="43.0236" lon="-7.2121">
        <ele>857.7</ele>
        <time>2016-07-12T11:50:55Z</time>
      </trkpt>
      <trkpt lat="43.02355" lon="-7.21221">
        <ele>858</ele>
        <time>2016-07-12T11:51:05Z</time>
      </trkpt>
      <trkpt lat="43.02353" lon="-7.21233">
        <ele>858.7</ele>
        <time>2016-07-12T11:51:15Z</time>
      </trkpt>
      <trkpt lat="43.0235" lon="-7.21245">
        <ele>859.2</ele>
        <time>2016-07-12T11:51:26Z</time>
      </trkpt>
      <trkpt lat="43.02348" lon="-7.21258">
        <ele>860.2</ele>
        <time>2016-07-12T11:51:38Z</time>
      </trkpt>
      <trkpt lat="43.02345" lon="-7.2127">
        <ele>860.6</ele>
        <time>2016-07-12T11:51:49Z</time>
      </trkpt>
      <trkpt lat="43.02344" lon="-7.21282">
        <ele>861.3</ele>
        <time>2016-07-12T11:52:00Z</time>
      </trkpt>
      <trkpt lat="43.02343" lon="-7.21295">
        <ele>862.1</ele>
        <time>2016-07-12T11:52:11Z</time>
      </trkpt>
      <trkpt lat="43.02342" lon="-7.21307">
        <ele>863.6</ele>
        <time>2016-07-12T11:52:37Z</time>
      </trkpt>
      <trkpt lat="43.02342" lon="-7.2132">
        <ele>864</ele>
        <time>2016-07-12T11:52:47Z</time>
      </trkpt>
      <trkpt lat="43.02341" lon="-7.21332">
        <ele>864.6</ele>
        <time>2016-07-12T11:52:57Z</time>
      </trkpt>
      <trkpt lat="43.02341" lon="-7.21345">
        <ele>865.4</ele>
        <time>2016-07-12T11:53:07Z</time>
      </trkpt>
      <trkpt lat="43.02339" lon="-7.21357">
        <ele>865.9</ele>
        <time>2016-07-12T11:53:18Z</time>
      </trkpt>
      <trkpt lat="43.02336" lon="-7.21369">
        <ele>866.1</ele>
        <time>2016-07-12T11:53:28Z</time>
      </trkpt>
      <trkpt lat="43.02334" lon="-7.21382">
        <ele>866.3</ele>
        <time>2016-07-12T11:53:39Z</time>
      </trkpt>
      <trkpt lat="43.02332" lon="-7.21394">
        <ele>867.2</ele>
        <time>2016-07-12T11:53:49Z</time>
      </trkpt>
      <trkpt lat="43.02329" lon="-7.21406">
        <ele>868</ele>
        <time>2016-07-12T11:53:59Z</time>
      </trkpt>
      <trkpt lat="43.02325" lon="-7.21418">
        <ele>868.4</ele>
        <time>2016-07-12T11:54:09Z</time>
      </trkpt>
      <trkpt lat="43.02321" lon="-7.21429">
        <ele>869</ele>
        <time>2016-07-12T11:54:19Z</time>
      </trkpt>
      <trkpt lat="43.02315" lon="-7.2144">
        <ele>870.1</ele>
        <time>2016-07-12T11:54:33Z</time>
      </trkpt>
      <trkpt lat="43.02309" lon="-7.2145">
        <ele>870.9</ele>
        <time>2016-07-12T11:54:43Z</time>
      </trkpt>
      <trkpt lat="43.02302" lon="-7.21459">
        <ele>871.3</ele>
        <time>2016-07-12T11:54:54Z</time>
      </trkpt>
      <trkpt lat="43.02298" lon="-7.21471">
        <ele>871.5</ele>
        <time>2016-07-12T11:55:03Z</time>
      </trkpt>
      <trkpt lat="43.02293" lon="-7.21481">
        <ele>871.6</ele>
        <time>2016-07-12T11:55:13Z</time>
      </trkpt>
      <trkpt lat="43.02287" lon="-7.21492">
        <ele>871.7</ele>
        <time>2016-07-12T11:55:25Z</time>
      </trkpt>
      <trkpt lat="43.0228" lon="-7.21502">
        <ele>872</ele>
        <time>2016-07-12T11:55:34Z</time>
      </trkpt>
      <trkpt lat="43.02274" lon="-7.21511">
        <ele>872.1</ele>
        <time>2016-07-12T11:55:45Z</time>
      </trkpt>
      <trkpt lat="43.02269" lon="-7.21522">
        <ele>872.1</ele>
        <time>2016-07-12T11:55:54Z</time>
      </trkpt>
      <trkpt lat="43.02264" lon="-7.21534">
        <ele>872</ele>
        <time>2016-07-12T11:56:04Z</time>
      </trkpt>
      <trkpt lat="43.02259" lon="-7.21546">
        <ele>871.8</ele>
        <time>2016-07-12T11:56:13Z</time>
      </trkpt>
      <trkpt lat="43.02259" lon="-7.21558">
        <ele>871.7</ele>
        <time>2016-07-12T11:56:21Z</time>
      </trkpt>
      <trkpt lat="43.02257" lon="-7.21571">
        <ele>871.4</ele>
        <time>2016-07-12T11:56:29Z</time>
      </trkpt>
      <trkpt lat="43.02254" lon="-7.21584">
        <ele>870.6</ele>
        <time>2016-07-12T11:56:40Z</time>
      </trkpt>
      <trkpt lat="43.02251" lon="-7.21596">
        <ele>870</ele>
        <time>2016-07-12T11:56:49Z</time>
      </trkpt>
      <trkpt lat="43.02248" lon="-7.21609">
        <ele>869.1</ele>
        <time>2016-07-12T11:56:58Z</time>
      </trkpt>
      <trkpt lat="43.02245" lon="-7.21622">
        <ele>868.6</ele>
        <time>2016-07-12T11:57:07Z</time>
      </trkpt>
      <trkpt lat="43.02242" lon="-7.21635">
        <ele>868.2</ele>
        <time>2016-07-12T11:57:15Z</time>
      </trkpt>
      <trkpt lat="43.0224" lon="-7.21647">
        <ele>867.6</ele>
        <time>2016-07-12T11:57:23Z</time>
      </trkpt>
      <trkpt lat="43.02239" lon="-7.2166">
        <ele>867</ele>
        <time>2016-07-12T11:57:31Z</time>
      </trkpt>
      <trkpt lat="43.02241" lon="-7.21672">
        <ele>866.3</ele>
        <time>2016-07-12T11:57:40Z</time>
      </trkpt>
      <trkpt lat="43.02242" lon="-7.21685">
        <ele>865.9</ele>
        <time>2016-07-12T11:57:49Z</time>
      </trkpt>
      <trkpt lat="43.02242" lon="-7.21698">
        <ele>865.9</ele>
        <time>2016-07-12T11:58:01Z</time>
      </trkpt>
      <trkpt lat="43.02243" lon="-7.21711">
        <ele>865.9</ele>
        <time>2016-07-12T11:58:10Z</time>
      </trkpt>
      <trkpt lat="43.02243" lon="-7.21725">
        <ele>866.1</ele>
        <time>2016-07-12T11:58:19Z</time>
      </trkpt>
      <trkpt lat="43.02245" lon="-7.21737">
        <ele>866.2</ele>
        <time>2016-07-12T11:58:28Z</time>
      </trkpt>
      <trkpt lat="43.02245" lon="-7.2175">
        <ele>866</ele>
        <time>2016-07-12T11:58:38Z</time>
      </trkpt>
      <trkpt lat="43.02246" lon="-7.21763">
        <ele>865.6</ele>
        <time>2016-07-12T11:58:47Z</time>
      </trkpt>
      <trkpt lat="43.02246" lon="-7.21775">
        <ele>865.4</ele>
        <time>2016-07-12T11:58:56Z</time>
      </trkpt>
      <trkpt lat="43.02249" lon="-7.21788">
        <ele>865.6</ele>
        <time>2016-07-12T11:59:09Z</time>
      </trkpt>
      <trkpt lat="43.02249" lon="-7.21801">
        <ele>865.8</ele>
        <time>2016-07-12T11:59:19Z</time>
      </trkpt>
      <trkpt lat="43.02248" lon="-7.21814">
        <ele>865.8</ele>
        <time>2016-07-12T11:59:29Z</time>
      </trkpt>
      <trkpt lat="43.02246" lon="-7.21826">
        <ele>866</ele>
        <time>2016-07-12T11:59:39Z</time>
      </trkpt>
      <trkpt lat="43.02245" lon="-7.21839">
        <ele>866.1</ele>
        <time>2016-07-12T11:59:49Z</time>
      </trkpt>
      <trkpt lat="43.02244" lon="-7.21852">
        <ele>866</ele>
        <time>2016-07-12T11:59:58Z</time>
      </trkpt>
      <trkpt lat="43.02243" lon="-7.21865">
        <ele>866</ele>
        <time>2016-07-12T12:00:10Z</time>
      </trkpt>
      <trkpt lat="43.02241" lon="-7.21878">
        <ele>866.1</ele>
        <time>2016-07-12T12:00:19Z</time>
      </trkpt>
      <trkpt lat="43.02238" lon="-7.21891">
        <ele>866.3</ele>
        <time>2016-07-12T12:00:28Z</time>
      </trkpt>
      <trkpt lat="43.02236" lon="-7.21904">
        <ele>866.4</ele>
        <time>2016-07-12T12:00:36Z</time>
      </trkpt>
      <trkpt lat="43.02231" lon="-7.21915">
        <ele>866.5</ele>
        <time>2016-07-12T12:00:44Z</time>
      </trkpt>
      <trkpt lat="43.02229" lon="-7.21928">
        <ele>866.5</ele>
        <time>2016-07-12T12:00:52Z</time>
      </trkpt>
      <trkpt lat="43.02226" lon="-7.21941">
        <ele>866.3</ele>
        <time>2016-07-12T12:01:00Z</time>
      </trkpt>
      <trkpt lat="43.02222" lon="-7.21954">
        <ele>866.1</ele>
        <time>2016-07-12T12:01:10Z</time>
      </trkpt>
      <trkpt lat="43.02218" lon="-7.21965">
        <ele>866</ele>
        <time>2016-07-12T12:01:18Z</time>
      </trkpt>
      <trkpt lat="43.02212" lon="-7.21977">
        <ele>866</ele>
        <time>2016-07-12T12:01:27Z</time>
      </trkpt>
      <trkpt lat="43.02209" lon="-7.21989">
        <ele>866</ele>
        <time>2016-07-12T12:01:40Z</time>
      </trkpt>
      <trkpt lat="43.02205" lon="-7.22002">
        <ele>866</ele>
        <time>2016-07-12T12:01:50Z</time>
      </trkpt>
      <trkpt lat="43.02201" lon="-7.22013">
        <ele>866.5</ele>
        <time>2016-07-12T12:02:00Z</time>
      </trkpt>
      <trkpt lat="43.02197" lon="-7.22024">
        <ele>866.5</ele>
        <time>2016-07-12T12:02:11Z</time>
      </trkpt>
      <trkpt lat="43.022" lon="-7.22037">
        <ele>866.6</ele>
        <time>2016-07-12T12:02:31Z</time>
      </trkpt>
      <trkpt lat="43.02192" lon="-7.22045">
        <ele>866.6</ele>
        <time>2016-07-12T12:02:42Z</time>
      </trkpt>
      <trkpt lat="43.02185" lon="-7.22054">
        <ele>866.6</ele>
        <time>2016-07-12T12:02:51Z</time>
      </trkpt>
      <trkpt lat="43.02178" lon="-7.22064">
        <ele>866.9</ele>
        <time>2016-07-12T12:03:00Z</time>
      </trkpt>
      <trkpt lat="43.02172" lon="-7.22075">
        <ele>867</ele>
        <time>2016-07-12T12:03:08Z</time>
      </trkpt>
      <trkpt lat="43.02168" lon="-7.22086">
        <ele>866.9</ele>
        <time>2016-07-12T12:03:17Z</time>
      </trkpt>
      <trkpt lat="43.02164" lon="-7.22098">
        <ele>866.9</ele>
        <time>2016-07-12T12:03:26Z</time>
      </trkpt>
      <trkpt lat="43.02159" lon="-7.22111">
        <ele>867.9</ele>
        <time>2016-07-12T12:03:36Z</time>
      </trkpt>
      <trkpt lat="43.02156" lon="-7.22122">
        <ele>868.4</ele>
        <time>2016-07-12T12:03:46Z</time>
      </trkpt>
      <trkpt lat="43.02153" lon="-7.22135">
        <ele>868.7</ele>
        <time>2016-07-12T12:03:54Z</time>
      </trkpt>
      <trkpt lat="43.02151" lon="-7.22148">
        <ele>868.9</ele>
        <time>2016-07-12T12:04:03Z</time>
      </trkpt>
      <trkpt lat="43.0215" lon="-7.22161">
        <ele>869.1</ele>
        <time>2016-07-12T12:04:12Z</time>
      </trkpt>
      <trkpt lat="43.02148" lon="-7.22174">
        <ele>869.2</ele>
        <time>2016-07-12T12:04:21Z</time>
      </trkpt>
      <trkpt lat="43.02146" lon="-7.22186">
        <ele>869.1</ele>
        <time>2016-07-12T12:04:28Z</time>
      </trkpt>
      <trkpt lat="43.02143" lon="-7.22198">
        <ele>868.9</ele>
        <time>2016-07-12T12:04:35Z</time>
      </trkpt>
      <trkpt lat="43.02138" lon="-7.22209">
        <ele>869.4</ele>
        <time>2016-07-12T12:04:43Z</time>
      </trkpt>
      <trkpt lat="43.02134" lon="-7.22222">
        <ele>869.8</ele>
        <time>2016-07-12T12:04:51Z</time>
      </trkpt>
      <trkpt lat="43.0213" lon="-7.22233">
        <ele>870.1</ele>
        <time>2016-07-12T12:04:58Z</time>
      </trkpt>
      <trkpt lat="43.02126" lon="-7.22245">
        <ele>870.3</ele>
        <time>2016-07-12T12:05:06Z</time>
      </trkpt>
      <trkpt lat="43.02122" lon="-7.22256">
        <ele>870.6</ele>
        <time>2016-07-12T12:05:14Z</time>
      </trkpt>
      <trkpt lat="43.02118" lon="-7.22268">
        <ele>871.2</ele>
        <time>2016-07-12T12:05:23Z</time>
      </trkpt>
      <trkpt lat="43.02114" lon="-7.2228">
        <ele>871.3</ele>
        <time>2016-07-12T12:05:32Z</time>
      </trkpt>
      <trkpt lat="43.02109" lon="-7.22292">
        <ele>871.3</ele>
        <time>2016-07-12T12:05:52Z</time>
      </trkpt>
      <trkpt lat="43.02107" lon="-7.22304">
        <ele>871.1</ele>
        <time>2016-07-12T12:06:01Z</time>
      </trkpt>
      <trkpt lat="43.02105" lon="-7.22316">
        <ele>871.2</ele>
        <time>2016-07-12T12:06:10Z</time>
      </trkpt>
      <trkpt lat="43.02102" lon="-7.22329">
        <ele>871.2</ele>
        <time>2016-07-12T12:06:19Z</time>
      </trkpt>
      <trkpt lat="43.02099" lon="-7.22341">
        <ele>871.2</ele>
        <time>2016-07-12T12:06:27Z</time>
      </trkpt>
      <trkpt lat="43.02097" lon="-7.22354">
        <ele>871</ele>
        <time>2016-07-12T12:06:36Z</time>
      </trkpt>
      <trkpt lat="43.02097" lon="-7.22367">
        <ele>870.6</ele>
        <time>2016-07-12T12:06:50Z</time>
      </trkpt>
      <trkpt lat="43.02097" lon="-7.2238">
        <ele>870.3</ele>
        <time>2016-07-12T12:07:00Z</time>
      </trkpt>
      <trkpt lat="43.02094" lon="-7.22392">
        <ele>869.1</ele>
        <time>2016-07-12T12:07:17Z</time>
      </trkpt>
      <trkpt lat="43.02093" lon="-7.22405">
        <ele>868.4</ele>
        <time>2016-07-12T12:07:29Z</time>
      </trkpt>
      <trkpt lat="43.02094" lon="-7.22418">
        <ele>867.5</ele>
        <time>2016-07-12T12:07:41Z</time>
      </trkpt>
      <trkpt lat="43.02093" lon="-7.2243">
        <ele>866.2</ele>
        <time>2016-07-12T12:07:52Z</time>
      </trkpt>
      <trkpt lat="43.02093" lon="-7.22444">
        <ele>865.2</ele>
        <time>2016-07-12T12:08:03Z</time>
      </trkpt>
      <trkpt lat="43.02093" lon="-7.22457">
        <ele>864.6</ele>
        <time>2016-07-12T12:08:13Z</time>
      </trkpt>
      <trkpt lat="43.02096" lon="-7.22469">
        <ele>863.3</ele>
        <time>2016-07-12T12:08:40Z</time>
      </trkpt>
      <trkpt lat="43.02096" lon="-7.22483">
        <ele>863</ele>
        <time>2016-07-12T12:08:50Z</time>
      </trkpt>
      <trkpt lat="43.02099" lon="-7.22495">
        <ele>862.5</ele>
        <time>2016-07-12T12:08:59Z</time>
      </trkpt>
      <trkpt lat="43.02101" lon="-7.22508">
        <ele>862.2</ele>
        <time>2016-07-12T12:09:08Z</time>
      </trkpt>
      <trkpt lat="43.02103" lon="-7.2252">
        <ele>862</ele>
        <time>2016-07-12T12:09:18Z</time>
      </trkpt>
      <trkpt lat="43.02106" lon="-7.22532">
        <ele>861.7</ele>
        <time>2016-07-12T12:09:29Z</time>
      </trkpt>
      <trkpt lat="43.02112" lon="-7.22542">
        <ele>861.8</ele>
        <time>2016-07-12T12:09:40Z</time>
      </trkpt>
      <trkpt lat="43.0212" lon="-7.22549">
        <ele>862.5</ele>
        <time>2016-07-12T12:09:52Z</time>
      </trkpt>
      <trkpt lat="43.02128" lon="-7.22555">
        <ele>863.2</ele>
        <time>2016-07-12T12:10:03Z</time>
      </trkpt>
      <trkpt lat="43.02129" lon="-7.22567">
        <ele>865.1</ele>
        <time>2016-07-12T12:10:15Z</time>
      </trkpt>
      <trkpt lat="43.02126" lon="-7.2258">
        <ele>866.2</ele>
        <time>2016-07-12T12:10:26Z</time>
      </trkpt>
      <trkpt lat="43.02121" lon="-7.22592">
        <ele>866.9</ele>
        <time>2016-07-12T12:10:36Z</time>
      </trkpt>
      <trkpt lat="43.02116" lon="-7.22603">
        <ele>867.3</ele>
        <time>2016-07-12T12:10:45Z</time>
      </trkpt>
      <trkpt lat="43.02113" lon="-7.22616">
        <ele>867.9</ele>
        <time>2016-07-12T12:10:56Z</time>
      </trkpt>
      <trkpt lat="43.02107" lon="-7.22626">
        <ele>868</ele>
        <time>2016-07-12T12:11:06Z</time>
      </trkpt>
      <trkpt lat="43.02103" lon="-7.22637">
        <ele>868.7</ele>
        <time>2016-07-12T12:11:16Z</time>
      </trkpt>
      <trkpt lat="43.02098" lon="-7.22647">
        <ele>869.3</ele>
        <time>2016-07-12T12:11:25Z</time>
      </trkpt>
      <trkpt lat="43.02093" lon="-7.22658">
        <ele>870.9</ele>
        <time>2016-07-12T12:11:38Z</time>
      </trkpt>
      <trkpt lat="43.02088" lon="-7.2267">
        <ele>871.5</ele>
        <time>2016-07-12T12:11:48Z</time>
      </trkpt>
      <trkpt lat="43.02084" lon="-7.2268">
        <ele>872</ele>
        <time>2016-07-12T12:11:57Z</time>
      </trkpt>
      <trkpt lat="43.02079" lon="-7.22691">
        <ele>872.3</ele>
        <time>2016-07-12T12:12:05Z</time>
      </trkpt>
      <trkpt lat="43.02077" lon="-7.22703">
        <ele>872.5</ele>
        <time>2016-07-12T12:12:20Z</time>
      </trkpt>
      <trkpt lat="43.02075" lon="-7.22715">
        <ele>872.5</ele>
        <time>2016-07-12T12:12:30Z</time>
      </trkpt>
      <trkpt lat="43.0207" lon="-7.22727">
        <ele>872.6</ele>
        <time>2016-07-12T12:12:40Z</time>
      </trkpt>
      <trkpt lat="43.02067" lon="-7.22739">
        <ele>872.7</ele>
        <time>2016-07-12T12:12:50Z</time>
      </trkpt>
      <trkpt lat="43.02062" lon="-7.2275">
        <ele>872.7</ele>
        <time>2016-07-12T12:13:00Z</time>
      </trkpt>
      <trkpt lat="43.02057" lon="-7.22762">
        <ele>872</ele>
        <time>2016-07-12T12:13:10Z</time>
      </trkpt>
      <trkpt lat="43.02052" lon="-7.22774">
        <ele>869.8</ele>
        <time>2016-07-12T12:13:19Z</time>
      </trkpt>
      <trkpt lat="43.02047" lon="-7.22785">
        <ele>870</ele>
        <time>2016-07-12T12:13:28Z</time>
      </trkpt>
      <trkpt lat="43.02043" lon="-7.22797">
        <ele>868.3</ele>
        <time>2016-07-12T12:13:38Z</time>
      </trkpt>
      <trkpt lat="43.02037" lon="-7.22807">
        <ele>866.7</ele>
        <time>2016-07-12T12:13:49Z</time>
      </trkpt>
      <trkpt lat="43.02034" lon="-7.2282">
        <ele>864.9</ele>
        <time>2016-07-12T12:13:59Z</time>
      </trkpt>
      <trkpt lat="43.02031" lon="-7.22832">
        <ele>862.8</ele>
        <time>2016-07-12T12:14:10Z</time>
      </trkpt>
      <trkpt lat="43.02027" lon="-7.22844">
        <ele>861.2</ele>
        <time>2016-07-12T12:14:20Z</time>
      </trkpt>
      <trkpt lat="43.02024" lon="-7.22856">
        <ele>858.8</ele>
        <time>2016-07-12T12:14:30Z</time>
      </trkpt>
      <trkpt lat="43.0202" lon="-7.22868">
        <ele>857.3</ele>
        <time>2016-07-12T12:14:38Z</time>
      </trkpt>
      <trkpt lat="43.02017" lon="-7.2288">
        <ele>855.7</ele>
        <time>2016-07-12T12:14:47Z</time>
      </trkpt>
      <trkpt lat="43.02012" lon="-7.22891">
        <ele>854.4</ele>
        <time>2016-07-12T12:14:55Z</time>
      </trkpt>
      <trkpt lat="43.02008" lon="-7.22904">
        <ele>853</ele>
        <time>2016-07-12T12:15:04Z</time>
      </trkpt>
      <trkpt lat="43.02004" lon="-7.22915">
        <ele>851.7</ele>
        <time>2016-07-12T12:15:12Z</time>
      </trkpt>
      <trkpt lat="43.01999" lon="-7.22926">
        <ele>850.3</ele>
        <time>2016-07-12T12:15:20Z</time>
      </trkpt>
      <trkpt lat="43.01995" lon="-7.22937">
        <ele>849.1</ele>
        <time>2016-07-12T12:15:28Z</time>
      </trkpt>
      <trkpt lat="43.0199" lon="-7.22949">
        <ele>847.9</ele>
        <time>2016-07-12T12:15:37Z</time>
      </trkpt>
      <trkpt lat="43.01986" lon="-7.2296">
        <ele>846.9</ele>
        <time>2016-07-12T12:15:46Z</time>
      </trkpt>
      <trkpt lat="43.01982" lon="-7.22971">
        <ele>845.8</ele>
        <time>2016-07-12T12:15:55Z</time>
      </trkpt>
      <trkpt lat="43.01976" lon="-7.22983">
        <ele>844.9</ele>
        <time>2016-07-12T12:16:04Z</time>
      </trkpt>
      <trkpt lat="43.01973" lon="-7.22994">
        <ele>843.8</ele>
        <time>2016-07-12T12:16:12Z</time>
      </trkpt>
      <trkpt lat="43.01968" lon="-7.23006">
        <ele>842.5</ele>
        <time>2016-07-12T12:16:21Z</time>
      </trkpt>
      <trkpt lat="43.01965" lon="-7.23018">
        <ele>841.4</ele>
        <time>2016-07-12T12:16:29Z</time>
      </trkpt>
      <trkpt lat="43.01961" lon="-7.23029">
        <ele>840.5</ele>
        <time>2016-07-12T12:16:37Z</time>
      </trkpt>
      <trkpt lat="43.01958" lon="-7.23042">
        <ele>839.7</ele>
        <time>2016-07-12T12:16:46Z</time>
      </trkpt>
      <trkpt lat="43.01956" lon="-7.23054">
        <ele>838.9</ele>
        <time>2016-07-12T12:16:55Z</time>
      </trkpt>
      <trkpt lat="43.01953" lon="-7.23067">
        <ele>837.8</ele>
        <time>2016-07-12T12:17:04Z</time>
      </trkpt>
      <trkpt lat="43.01951" lon="-7.23079">
        <ele>837</ele>
        <time>2016-07-12T12:17:13Z</time>
      </trkpt>
      <trkpt lat="43.01947" lon="-7.23092">
        <ele>836</ele>
        <time>2016-07-12T12:17:22Z</time>
      </trkpt>
      <trkpt lat="43.01944" lon="-7.23104">
        <ele>835.3</ele>
        <time>2016-07-12T12:17:31Z</time>
      </trkpt>
      <trkpt lat="43.01941" lon="-7.23117">
        <ele>834.7</ele>
        <time>2016-07-12T12:17:40Z</time>
      </trkpt>
      <trkpt lat="43.01937" lon="-7.23129">
        <ele>834.3</ele>
        <time>2016-07-12T12:17:49Z</time>
      </trkpt>
      <trkpt lat="43.01933" lon="-7.2314">
        <ele>834</ele>
        <time>2016-07-12T12:17:57Z</time>
      </trkpt>
      <trkpt lat="43.01929" lon="-7.23151">
        <ele>833.4</ele>
        <time>2016-07-12T12:18:05Z</time>
      </trkpt>
      <trkpt lat="43.01925" lon="-7.23163">
        <ele>832.9</ele>
        <time>2016-07-12T12:18:13Z</time>
      </trkpt>
      <trkpt lat="43.01921" lon="-7.23175">
        <ele>832.4</ele>
        <time>2016-07-12T12:18:22Z</time>
      </trkpt>
      <trkpt lat="43.01916" lon="-7.23186">
        <ele>831.6</ele>
        <time>2016-07-12T12:18:31Z</time>
      </trkpt>
      <trkpt lat="43.01912" lon="-7.23198">
        <ele>831.2</ele>
        <time>2016-07-12T12:18:40Z</time>
      </trkpt>
      <trkpt lat="43.01909" lon="-7.2321">
        <ele>830.8</ele>
        <time>2016-07-12T12:18:49Z</time>
      </trkpt>
      <trkpt lat="43.01905" lon="-7.23222">
        <ele>830.6</ele>
        <time>2016-07-12T12:18:58Z</time>
      </trkpt>
      <trkpt lat="43.01903" lon="-7.23234">
        <ele>830.4</ele>
        <time>2016-07-12T12:19:07Z</time>
      </trkpt>
      <trkpt lat="43.019" lon="-7.23246">
        <ele>830.3</ele>
        <time>2016-07-12T12:19:16Z</time>
      </trkpt>
      <trkpt lat="43.01896" lon="-7.23258">
        <ele>830</ele>
        <time>2016-07-12T12:19:25Z</time>
      </trkpt>
      <trkpt lat="43.01892" lon="-7.23269">
        <ele>829.8</ele>
        <time>2016-07-12T12:19:36Z</time>
      </trkpt>
      <trkpt lat="43.01887" lon="-7.23281">
        <ele>830.2</ele>
        <time>2016-07-12T12:19:45Z</time>
      </trkpt>
      <trkpt lat="43.01883" lon="-7.23292">
        <ele>830.5</ele>
        <time>2016-07-12T12:19:54Z</time>
      </trkpt>
      <trkpt lat="43.01884" lon="-7.23305">
        <ele>830.6</ele>
        <time>2016-07-12T12:20:26Z</time>
      </trkpt>
      <trkpt lat="43.0188" lon="-7.23317">
        <ele>830.5</ele>
        <time>2016-07-12T12:20:36Z</time>
      </trkpt>
      <trkpt lat="43.01876" lon="-7.23328">
        <ele>830.8</ele>
        <time>2016-07-12T12:20:45Z</time>
      </trkpt>
      <trkpt lat="43.01872" lon="-7.2334">
        <ele>831.5</ele>
        <time>2016-07-12T12:20:55Z</time>
      </trkpt>
      <trkpt lat="43.01868" lon="-7.23352">
        <ele>831.8</ele>
        <time>2016-07-12T12:21:04Z</time>
      </trkpt>
      <trkpt lat="43.01863" lon="-7.23364">
        <ele>832</ele>
        <time>2016-07-12T12:21:13Z</time>
      </trkpt>
      <trkpt lat="43.01859" lon="-7.23375">
        <ele>832.6</ele>
        <time>2016-07-12T12:21:22Z</time>
      </trkpt>
      <trkpt lat="43.01855" lon="-7.23388">
        <ele>833</ele>
        <time>2016-07-12T12:21:32Z</time>
      </trkpt>
      <trkpt lat="43.01851" lon="-7.234">
        <ele>833.2</ele>
        <time>2016-07-12T12:21:41Z</time>
      </trkpt>
      <trkpt lat="43.01848" lon="-7.23411">
        <ele>833.5</ele>
        <time>2016-07-12T12:21:49Z</time>
      </trkpt>
      <trkpt lat="43.01845" lon="-7.23424">
        <ele>834</ele>
        <time>2016-07-12T12:22:00Z</time>
      </trkpt>
      <trkpt lat="43.01842" lon="-7.23437">
        <ele>834.4</ele>
        <time>2016-07-12T12:22:10Z</time>
      </trkpt>
      <trkpt lat="43.01837" lon="-7.23449">
        <ele>834.6</ele>
        <time>2016-07-12T12:22:18Z</time>
      </trkpt>
      <trkpt lat="43.01834" lon="-7.2346">
        <ele>834.9</ele>
        <time>2016-07-12T12:22:27Z</time>
      </trkpt>
      <trkpt lat="43.0183" lon="-7.23472">
        <ele>835.5</ele>
        <time>2016-07-12T12:22:36Z</time>
      </trkpt>
      <trkpt lat="43.01824" lon="-7.23482">
        <ele>836.4</ele>
        <time>2016-07-12T12:22:46Z</time>
      </trkpt>
      <trkpt lat="43.0182" lon="-7.23494">
        <ele>837.2</ele>
        <time>2016-07-12T12:22:57Z</time>
      </trkpt>
      <trkpt lat="43.01815" lon="-7.23505">
        <ele>838.6</ele>
        <time>2016-07-12T12:23:09Z</time>
      </trkpt>
      <trkpt lat="43.0181" lon="-7.23515">
        <ele>839.6</ele>
        <time>2016-07-12T12:23:19Z</time>
      </trkpt>
      <trkpt lat="43.01805" lon="-7.23526">
        <ele>840.4</ele>
        <time>2016-07-12T12:23:28Z</time>
      </trkpt>
      <trkpt lat="43.01802" lon="-7.23538">
        <ele>841.3</ele>
        <time>2016-07-12T12:23:40Z</time>
      </trkpt>
      <trkpt lat="43.01798" lon="-7.2355">
        <ele>841.9</ele>
        <time>2016-07-12T12:23:49Z</time>
      </trkpt>
      <trkpt lat="43.01795" lon="-7.23563">
        <ele>842.2</ele>
        <time>2016-07-12T12:23:58Z</time>
      </trkpt>
      <trkpt lat="43.01796" lon="-7.23576">
        <ele>842.4</ele>
        <time>2016-07-12T12:24:07Z</time>
      </trkpt>
      <trkpt lat="43.01799" lon="-7.23588">
        <ele>842.3</ele>
        <time>2016-07-12T12:24:16Z</time>
      </trkpt>
      <trkpt lat="43.01802" lon="-7.236">
        <ele>842.2</ele>
        <time>2016-07-12T12:24:26Z</time>
      </trkpt>
      <trkpt lat="43.01805" lon="-7.23612">
        <ele>842.1</ele>
        <time>2016-07-12T12:24:36Z</time>
      </trkpt>
      <trkpt lat="43.01809" lon="-7.23624">
        <ele>841.9</ele>
        <time>2016-07-12T12:24:46Z</time>
      </trkpt>
      <trkpt lat="43.01812" lon="-7.23636">
        <ele>841.3</ele>
        <time>2016-07-12T12:24:57Z</time>
      </trkpt>
      <trkpt lat="43.01814" lon="-7.23649">
        <ele>840.7</ele>
        <time>2016-07-12T12:25:06Z</time>
      </trkpt>
      <trkpt lat="43.01814" lon="-7.23662">
        <ele>840.3</ele>
        <time>2016-07-12T12:25:14Z</time>
      </trkpt>
      <trkpt lat="43.01815" lon="-7.23675">
        <ele>840.1</ele>
        <time>2016-07-12T12:25:21Z</time>
      </trkpt>
      <trkpt lat="43.01816" lon="-7.23687">
        <ele>840</ele>
        <time>2016-07-12T12:25:28Z</time>
      </trkpt>
      <trkpt lat="43.01817" lon="-7.237">
        <ele>839.7</ele>
        <time>2016-07-12T12:25:36Z</time>
      </trkpt>
      <trkpt lat="43.01816" lon="-7.23713">
        <ele>839.3</ele>
        <time>2016-07-12T12:25:45Z</time>
      </trkpt>
      <trkpt lat="43.01815" lon="-7.23727">
        <ele>839</ele>
        <time>2016-07-12T12:25:54Z</time>
      </trkpt>
      <trkpt lat="43.01815" lon="-7.2374">
        <ele>838.8</ele>
        <time>2016-07-12T12:26:03Z</time>
      </trkpt>
      <trkpt lat="43.01815" lon="-7.23753">
        <ele>838.4</ele>
        <time>2016-07-12T12:26:13Z</time>
      </trkpt>
      <trkpt lat="43.01817" lon="-7.23767">
        <ele>837.5</ele>
        <time>2016-07-12T12:26:23Z</time>
      </trkpt>
      <trkpt lat="43.0182" lon="-7.23779">
        <ele>836.7</ele>
        <time>2016-07-12T12:26:35Z</time>
      </trkpt>
      <trkpt lat="43.01821" lon="-7.23792">
        <ele>836.4</ele>
        <time>2016-07-12T12:26:45Z</time>
      </trkpt>
      <trkpt lat="43.01821" lon="-7.23805">
        <ele>835.6</ele>
        <time>2016-07-12T12:26:54Z</time>
      </trkpt>
      <trkpt lat="43.0182" lon="-7.23818">
        <ele>834.6</ele>
        <time>2016-07-12T12:27:03Z</time>
      </trkpt>
      <trkpt lat="43.0182" lon="-7.2383">
        <ele>833.6</ele>
        <time>2016-07-12T12:27:12Z</time>
      </trkpt>
      <trkpt lat="43.0182" lon="-7.23843">
        <ele>832.6</ele>
        <time>2016-07-12T12:27:21Z</time>
      </trkpt>
      <trkpt lat="43.01819" lon="-7.23856">
        <ele>831</ele>
        <time>2016-07-12T12:27:31Z</time>
      </trkpt>
      <trkpt lat="43.01817" lon="-7.23869">
        <ele>828.8</ele>
        <time>2016-07-12T12:27:44Z</time>
      </trkpt>
      <trkpt lat="43.01815" lon="-7.2388">
        <ele>827.1</ele>
        <time>2016-07-12T12:27:57Z</time>
      </trkpt>
      <trkpt lat="43.01813" lon="-7.23893">
        <ele>825.4</ele>
        <time>2016-07-12T12:28:07Z</time>
      </trkpt>
      <trkpt lat="43.0181" lon="-7.23905">
        <ele>823.4</ele>
        <time>2016-07-12T12:28:16Z</time>
      </trkpt>
      <trkpt lat="43.01808" lon="-7.23918">
        <ele>821.7</ele>
        <time>2016-07-12T12:28:26Z</time>
      </trkpt>
      <trkpt lat="43.0181" lon="-7.2393">
        <ele>820.2</ele>
        <time>2016-07-12T12:28:35Z</time>
      </trkpt>
      <trkpt lat="43.01812" lon="-7.23942">
        <ele>819</ele>
        <time>2016-07-12T12:28:45Z</time>
      </trkpt>
      <trkpt lat="43.01812" lon="-7.23954">
        <ele>817.6</ele>
        <time>2016-07-12T12:28:54Z</time>
      </trkpt>
      <trkpt lat="43.01811" lon="-7.23967">
        <ele>815.7</ele>
        <time>2016-07-12T12:29:07Z</time>
      </trkpt>
      <trkpt lat="43.0181" lon="-7.2398">
        <ele>814.6</ele>
        <time>2016-07-12T12:29:16Z</time>
      </trkpt>
      <trkpt lat="43.01807" lon="-7.23993">
        <ele>813.3</ele>
        <time>2016-07-12T12:29:25Z</time>
      </trkpt>
      <trkpt lat="43.01804" lon="-7.24006">
        <ele>811.6</ele>
        <time>2016-07-12T12:29:34Z</time>
      </trkpt>
      <trkpt lat="43.018" lon="-7.24019">
        <ele>810.1</ele>
        <time>2016-07-12T12:29:43Z</time>
      </trkpt>
      <trkpt lat="43.01797" lon="-7.2403">
        <ele>808.3</ele>
        <time>2016-07-12T12:29:51Z</time>
      </trkpt>
      <trkpt lat="43.01793" lon="-7.24042">
        <ele>806.5</ele>
        <time>2016-07-12T12:30:00Z</time>
      </trkpt>
      <trkpt lat="43.0179" lon="-7.24054">
        <ele>804.4</ele>
        <time>2016-07-12T12:30:11Z</time>
      </trkpt>
      <trkpt lat="43.01786" lon="-7.24067">
        <ele>803.1</ele>
        <time>2016-07-12T12:30:20Z</time>
      </trkpt>
      <trkpt lat="43.01783" lon="-7.24079">
        <ele>801.6</ele>
        <time>2016-07-12T12:30:29Z</time>
      </trkpt>
      <trkpt lat="43.01782" lon="-7.24092">
        <ele>800.1</ele>
        <time>2016-07-12T12:30:38Z</time>
      </trkpt>
      <trkpt lat="43.01779" lon="-7.24104">
        <ele>798.7</ele>
        <time>2016-07-12T12:30:48Z</time>
      </trkpt>
      <trkpt lat="43.01777" lon="-7.24116">
        <ele>797.4</ele>
        <time>2016-07-12T12:30:57Z</time>
      </trkpt>
      <trkpt lat="43.01774" lon="-7.24128">
        <ele>795</ele>
        <time>2016-07-12T12:31:12Z</time>
      </trkpt>
      <trkpt lat="43.0177" lon="-7.2414">
        <ele>793</ele>
        <time>2016-07-12T12:31:24Z</time>
      </trkpt>
      <trkpt lat="43.01773" lon="-7.24153">
        <ele>791.7</ele>
        <time>2016-07-12T12:31:32Z</time>
      </trkpt>
      <trkpt lat="43.0178" lon="-7.2416">
        <ele>790.3</ele>
        <time>2016-07-12T12:31:41Z</time>
      </trkpt>
      <trkpt lat="43.01789" lon="-7.24165">
        <ele>789.3</ele>
        <time>2016-07-12T12:31:49Z</time>
      </trkpt>
      <trkpt lat="43.01798" lon="-7.24168">
        <ele>788.5</ele>
        <time>2016-07-12T12:31:58Z</time>
      </trkpt>
      <trkpt lat="43.01808" lon="-7.24168">
        <ele>787.8</ele>
        <time>2016-07-12T12:32:07Z</time>
      </trkpt>
      <trkpt lat="43.01817" lon="-7.24165">
        <ele>786.9</ele>
        <time>2016-07-12T12:32:18Z</time>
      </trkpt>
      <trkpt lat="43.01826" lon="-7.24163">
        <ele>785.9</ele>
        <time>2016-07-12T12:32:27Z</time>
      </trkpt>
      <trkpt lat="43.01836" lon="-7.24161">
        <ele>784.6</ele>
        <time>2016-07-12T12:32:37Z</time>
      </trkpt>
      <trkpt lat="43.01844" lon="-7.24167">
        <ele>783.2</ele>
        <time>2016-07-12T12:32:47Z</time>
      </trkpt>
      <trkpt lat="43.01849" lon="-7.24179">
        <ele>781.2</ele>
        <time>2016-07-12T12:32:59Z</time>
      </trkpt>
      <trkpt lat="43.01852" lon="-7.24191">
        <ele>779.2</ele>
        <time>2016-07-12T12:33:09Z</time>
      </trkpt>
      <trkpt lat="43.01851" lon="-7.24203">
        <ele>777.8</ele>
        <time>2016-07-12T12:33:18Z</time>
      </trkpt>
      <trkpt lat="43.01848" lon="-7.24216">
        <ele>776.1</ele>
        <time>2016-07-12T12:33:26Z</time>
      </trkpt>
      <trkpt lat="43.01847" lon="-7.24229">
        <ele>774.9</ele>
        <time>2016-07-12T12:33:35Z</time>
      </trkpt>
      <trkpt lat="43.01844" lon="-7.24242">
        <ele>773</ele>
        <time>2016-07-12T12:33:44Z</time>
      </trkpt>
      <trkpt lat="43.0184" lon="-7.24253">
        <ele>771.3</ele>
        <time>2016-07-12T12:33:52Z</time>
      </trkpt>
      <trkpt lat="43.01835" lon="-7.24265">
        <ele>768</ele>
        <time>2016-07-12T12:34:16Z</time>
      </trkpt>
      <trkpt lat="43.01829" lon="-7.24274">
        <ele>767.2</ele>
        <time>2016-07-12T12:34:25Z</time>
      </trkpt>
      <trkpt lat="43.01824" lon="-7.24285">
        <ele>766.1</ele>
        <time>2016-07-12T12:34:34Z</time>
      </trkpt>
      <trkpt lat="43.01819" lon="-7.24295">
        <ele>764.6</ele>
        <time>2016-07-12T12:34:44Z</time>
      </trkpt>
      <trkpt lat="43.01814" lon="-7.24306">
        <ele>761.2</ele>
        <time>2016-07-12T12:35:05Z</time>
      </trkpt>
      <trkpt lat="43.01808" lon="-7.24315">
        <ele>761</ele>
        <time>2016-07-12T12:35:15Z</time>
      </trkpt>
      <trkpt lat="43.018" lon="-7.24323">
        <ele>759.2</ele>
        <time>2016-07-12T12:35:26Z</time>
      </trkpt>
      <trkpt lat="43.01795" lon="-7.24333">
        <ele>757.9</ele>
        <time>2016-07-12T12:35:37Z</time>
      </trkpt>
      <trkpt lat="43.01788" lon="-7.24342">
        <ele>756.8</ele>
        <time>2016-07-12T12:35:46Z</time>
      </trkpt>
      <trkpt lat="43.01782" lon="-7.24352">
        <ele>755.1</ele>
        <time>2016-07-12T12:35:56Z</time>
      </trkpt>
      <trkpt lat="43.0178" lon="-7.24364">
        <ele>751.4</ele>
        <time>2016-07-12T12:36:24Z</time>
      </trkpt>
      <trkpt lat="43.01775" lon="-7.24375">
        <ele>750.4</ele>
        <time>2016-07-12T12:36:36Z</time>
      </trkpt>
      <trkpt lat="43.01768" lon="-7.24383">
        <ele>749.2</ele>
        <time>2016-07-12T12:36:46Z</time>
      </trkpt>
      <trkpt lat="43.01761" lon="-7.24392">
        <ele>747.4</ele>
        <time>2016-07-12T12:36:56Z</time>
      </trkpt>
      <trkpt lat="43.01754" lon="-7.24401">
        <ele>745.8</ele>
        <time>2016-07-12T12:37:06Z</time>
      </trkpt>
      <trkpt lat="43.01748" lon="-7.24411">
        <ele>744.1</ele>
        <time>2016-07-12T12:37:15Z</time>
      </trkpt>
      <trkpt lat="43.01742" lon="-7.24422">
        <ele>742.3</ele>
        <time>2016-07-12T12:37:25Z</time>
      </trkpt>
      <trkpt lat="43.01734" lon="-7.24431">
        <ele>741.1</ele>
        <time>2016-07-12T12:37:34Z</time>
      </trkpt>
      <trkpt lat="43.0173" lon="-7.24442">
        <ele>739.9</ele>
        <time>2016-07-12T12:37:50Z</time>
      </trkpt>
      <trkpt lat="43.01726" lon="-7.24453">
        <ele>739.1</ele>
        <time>2016-07-12T12:38:00Z</time>
      </trkpt>
      <trkpt lat="43.01723" lon="-7.24465">
        <ele>737.9</ele>
        <time>2016-07-12T12:38:09Z</time>
      </trkpt>
      <trkpt lat="43.01719" lon="-7.24477">
        <ele>736.7</ele>
        <time>2016-07-12T12:38:17Z</time>
      </trkpt>
      <trkpt lat="43.01715" lon="-7.24488">
        <ele>735.8</ele>
        <time>2016-07-12T12:38:26Z</time>
      </trkpt>
      <trkpt lat="43.0171" lon="-7.245">
        <ele>735.2</ele>
        <time>2016-07-12T12:38:58Z</time>
      </trkpt>
      <trkpt lat="43.01704" lon="-7.24509">
        <ele>735.1</ele>
        <time>2016-07-12T12:39:06Z</time>
      </trkpt>
      <trkpt lat="43.01699" lon="-7.2452">
        <ele>734.7</ele>
        <time>2016-07-12T12:39:14Z</time>
      </trkpt>
      <trkpt lat="43.01692" lon="-7.2453">
        <ele>734.4</ele>
        <time>2016-07-12T12:39:23Z</time>
      </trkpt>
      <trkpt lat="43.01685" lon="-7.24538">
        <ele>733.9</ele>
        <time>2016-07-12T12:39:33Z</time>
      </trkpt>
      <trkpt lat="43.01685" lon="-7.24551">
        <ele>732.3</ele>
        <time>2016-07-12T12:40:01Z</time>
      </trkpt>
      <trkpt lat="43.0169" lon="-7.24561">
        <ele>731.7</ele>
        <time>2016-07-12T12:40:13Z</time>
      </trkpt>
      <trkpt lat="43.01692" lon="-7.24574">
        <ele>731.4</ele>
        <time>2016-07-12T12:40:24Z</time>
      </trkpt>
      <trkpt lat="43.01686" lon="-7.24585">
        <ele>730.1</ele>
        <time>2016-07-12T12:40:40Z</time>
      </trkpt>
      <trkpt lat="43.01677" lon="-7.24588">
        <ele>728.2</ele>
        <time>2016-07-12T12:41:13Z</time>
      </trkpt>
      <trkpt lat="43.0167" lon="-7.24597">
        <ele>728.3</ele>
        <time>2016-07-12T12:41:44Z</time>
      </trkpt>
      <trkpt lat="43.01666" lon="-7.24608">
        <ele>726.8</ele>
        <time>2016-07-12T12:41:56Z</time>
      </trkpt>
      <trkpt lat="43.0166" lon="-7.24619">
        <ele>725</ele>
        <time>2016-07-12T12:42:08Z</time>
      </trkpt>
      <trkpt lat="43.01662" lon="-7.24631">
        <ele>721.9</ele>
        <time>2016-07-12T12:42:46Z</time>
      </trkpt>
      <trkpt lat="43.0167" lon="-7.24626">
        <ele>721.6</ele>
        <time>2016-07-12T12:43:06Z</time>
      </trkpt>
      <trkpt lat="43.01673" lon="-7.24614">
        <ele>723.5</ele>
        <time>2016-07-12T12:43:27Z</time>
      </trkpt>
      <trkpt lat="43.01678" lon="-7.24603">
        <ele>725.6</ele>
        <time>2016-07-12T12:43:42Z</time>
      </trkpt>
      <trkpt lat="43.01684" lon="-7.24593">
        <ele>728</ele>
        <time>2016-07-12T12:44:11Z</time>
      </trkpt>
      <trkpt lat="43.01693" lon="-7.24588">
        <ele>728</ele>
        <time>2016-07-12T12:44:26Z</time>
      </trkpt>
      <trkpt lat="43.01696" lon="-7.24576">
        <ele>729.1</ele>
        <time>2016-07-12T12:44:52Z</time>
      </trkpt>
      <trkpt lat="43.01695" lon="-7.24563">
        <ele>729.3</ele>
        <time>2016-07-12T12:45:02Z</time>
      </trkpt>
      <trkpt lat="43.0169" lon="-7.24551">
        <ele>729.7</ele>
        <time>2016-07-12T12:45:12Z</time>
      </trkpt>
      <trkpt lat="43.01684" lon="-7.24542">
        <ele>730.9</ele>
        <time>2016-07-12T12:45:26Z</time>
      </trkpt>
      <trkpt lat="43.01675" lon="-7.24538">
        <ele>731.6</ele>
        <time>2016-07-12T12:45:36Z</time>
      </trkpt>
      <trkpt lat="43.01666" lon="-7.24534">
        <ele>731.9</ele>
        <time>2016-07-12T12:45:46Z</time>
      </trkpt>
      <trkpt lat="43.01656" lon="-7.24531">
        <ele>731.6</ele>
        <time>2016-07-12T12:45:56Z</time>
      </trkpt>
      <trkpt lat="43.01648" lon="-7.24526">
        <ele>731.1</ele>
        <time>2016-07-12T12:46:06Z</time>
      </trkpt>
      <trkpt lat="43.01638" lon="-7.24523">
        <ele>730.5</ele>
        <time>2016-07-12T12:46:17Z</time>
      </trkpt>
      <trkpt lat="43.01629" lon="-7.24519">
        <ele>730</ele>
        <time>2016-07-12T12:46:25Z</time>
      </trkpt>
      <trkpt lat="43.01621" lon="-7.24513">
        <ele>729.4</ele>
        <time>2016-07-12T12:46:37Z</time>
      </trkpt>
      <trkpt lat="43.01612" lon="-7.24508">
        <ele>728.8</ele>
        <time>2016-07-12T12:46:45Z</time>
      </trkpt>
      <trkpt lat="43.01604" lon="-7.24503">
        <ele>728.1</ele>
        <time>2016-07-12T12:46:52Z</time>
      </trkpt>
      <trkpt lat="43.01595" lon="-7.24497">
        <ele>727.3</ele>
        <time>2016-07-12T12:47:01Z</time>
      </trkpt>
      <trkpt lat="43.01587" lon="-7.24489">
        <ele>726.9</ele>
        <time>2016-07-12T12:47:09Z</time>
      </trkpt>
      <trkpt lat="43.0158" lon="-7.24481">
        <ele>726.7</ele>
        <time>2016-07-12T12:47:17Z</time>
      </trkpt>
      <trkpt lat="43.01573" lon="-7.24473">
        <ele>726.3</ele>
        <time>2016-07-12T12:47:26Z</time>
      </trkpt>
      <trkpt lat="43.01564" lon="-7.24471">
        <ele>726.1</ele>
        <time>2016-07-12T12:47:39Z</time>
      </trkpt>
      <trkpt lat="43.01555" lon="-7.24473">
        <ele>725.3</ele>
        <time>2016-07-12T12:47:59Z</time>
      </trkpt>
      <trkpt lat="43.01549" lon="-7.24482">
        <ele>725.1</ele>
        <time>2016-07-12T12:48:07Z</time>
      </trkpt>
      <trkpt lat="43.01545" lon="-7.24494">
        <ele>724.3</ele>
        <time>2016-07-12T12:48:27Z</time>
      </trkpt>
      <trkpt lat="43.01536" lon="-7.24494">
        <ele>723.5</ele>
        <time>2016-07-12T12:48:49Z</time>
      </trkpt>
      <trkpt lat="43.01531" lon="-7.24483">
        <ele>723</ele>
        <time>2016-07-12T12:49:04Z</time>
      </trkpt>
      <trkpt lat="43.01525" lon="-7.24471">
        <ele>722.8</ele>
        <time>2016-07-12T12:49:12Z</time>
      </trkpt>
      <trkpt lat="43.0152" lon="-7.24461">
        <ele>722.5</ele>
        <time>2016-07-12T12:49:20Z</time>
      </trkpt>
      <trkpt lat="43.01513" lon="-7.24452">
        <ele>721.9</ele>
        <time>2016-07-12T12:49:28Z</time>
      </trkpt>
      <trkpt lat="43.01508" lon="-7.24441">
        <ele>721.5</ele>
        <time>2016-07-12T12:49:36Z</time>
      </trkpt>
      <trkpt lat="43.01503" lon="-7.2443">
        <ele>720.8</ele>
        <time>2016-07-12T12:49:46Z</time>
      </trkpt>
      <trkpt lat="43.01494" lon="-7.24445">
        <ele>720</ele>
        <time>2016-07-12T12:50:15Z</time>
      </trkpt>
      <trkpt lat="43.01482" lon="-7.24437">
        <ele>719</ele>
        <time>2016-07-12T12:52:25Z</time>
      </trkpt>
      <trkpt lat="43.01447" lon="-7.2442">
        <ele>723</ele>
        <time>2016-07-12T12:58:42Z</time>
      </trkpt>
      <trkpt lat="43.01497" lon="-7.24439">
        <ele>724</ele>
        <time>2016-07-12T12:59:02Z</time>
      </trkpt>
      <trkpt lat="43.01488" lon="-7.24432">
        <ele>724.7</ele>
        <time>2016-07-12T12:59:07Z</time>
      </trkpt>
      <trkpt lat="43.01476" lon="-7.24433">
        <ele>725</ele>
        <time>2016-07-12T12:59:34Z</time>
      </trkpt>
      <trkpt lat="43.01493" lon="-7.24431">
        <ele>726</ele>
        <time>2016-07-12T13:01:00Z</time>
      </trkpt>
      <trkpt lat="43.01483" lon="-7.24433">
        <ele>726.5</ele>
        <time>2016-07-12T13:01:21Z</time>
      </trkpt>
      <trkpt lat="43.01475" lon="-7.24426">
        <ele>726.7</ele>
        <time>2016-07-12T13:01:30Z</time>
      </trkpt>
      <trkpt lat="43.01467" lon="-7.24419">
        <ele>726.7</ele>
        <time>2016-07-12T13:01:44Z</time>
      </trkpt>
      <trkpt lat="43.01476" lon="-7.24424">
        <ele>726</ele>
        <time>2016-07-12T13:02:02Z</time>
      </trkpt>
      <trkpt lat="43.01483" lon="-7.24433">
        <ele>726.5</ele>
        <time>2016-07-12T13:02:19Z</time>
      </trkpt>
      <trkpt lat="43.01476" lon="-7.24425">
        <ele>726</ele>
        <time>2016-07-12T13:03:18Z</time>
      </trkpt>
      <trkpt lat="43.01463" lon="-7.24428">
        <ele>726</ele>
        <time>2016-07-12T13:03:46Z</time>
      </trkpt>
      <trkpt lat="43.01454" lon="-7.24425">
        <ele>726.9</ele>
        <time>2016-07-12T13:04:15Z</time>
      </trkpt>
      <trkpt lat="43.01455" lon="-7.24427">
        <ele>726.9</ele>
        <time>2016-07-12T13:04:22Z</time>
      </trkpt>
    </trkseg>
  </trk>
</gpx>